<?xml version="1.0" encoding="UTF-8" standalone="no" ?>
<gpx xmlns="http://www.topografix.com/GPX/1/1" xmlns:xsi="http://www.w3.org/2001/XMLSchema-instance" xsi:schemaLocation="http://www.topografix.com/GPX/1/1 http://www.topografix.com/GPX/1/1/gpx.xsd" version="1.1" creator="VisuGPX - https://www.visugpx.com">
  <metadata>
    <name>Thanner le 30 avril 2017</name>
    <desc><![CDATA[Départ du plan Diebold vers les Weierlé]]></desc>
  </metadata>
  <trk>
    <name><![CDATA[20170430_102144.gpx]]></name>
    <trkseg>
      <trkpt lat="47.81156" lon="7.05815">
        <ele>698</ele>
        <time>2017-04-30T08:24:06Z</time>
      </trkpt>
      <trkpt lat="47.81116" lon="7.05805">
        <ele>698</ele>
        <time>2017-04-30T08:24:42Z</time>
      </trkpt>
      <trkpt lat="47.8112" lon="7.058">
        <ele>696</ele>
        <time>2017-04-30T08:24:43Z</time>
      </trkpt>
      <trkpt lat="47.81118" lon="7.0578">
        <ele>694</ele>
        <time>2017-04-30T08:24:53Z</time>
      </trkpt>
      <trkpt lat="47.81108" lon="7.05776">
        <ele>701</ele>
        <time>2017-04-30T08:25:03Z</time>
      </trkpt>
      <trkpt lat="47.81097" lon="7.05772">
        <ele>708</ele>
        <time>2017-04-30T08:25:11Z</time>
      </trkpt>
      <trkpt lat="47.81099" lon="7.05774">
        <ele>707</ele>
        <time>2017-04-30T08:25:12Z</time>
      </trkpt>
      <trkpt lat="47.81091" lon="7.05764">
        <ele>709</ele>
        <time>2017-04-30T08:25:23Z</time>
      </trkpt>
      <trkpt lat="47.81089" lon="7.05765">
        <ele>708</ele>
        <time>2017-04-30T08:25:24Z</time>
      </trkpt>
      <trkpt lat="47.81083" lon="7.05752">
        <ele>708</ele>
        <time>2017-04-30T08:25:34Z</time>
      </trkpt>
      <trkpt lat="47.81075" lon="7.05745">
        <ele>712</ele>
        <time>2017-04-30T08:25:39Z</time>
      </trkpt>
      <trkpt lat="47.81074" lon="7.05746">
        <ele>714</ele>
        <time>2017-04-30T08:25:40Z</time>
      </trkpt>
      <trkpt lat="47.81073" lon="7.05745">
        <ele>714</ele>
        <time>2017-04-30T08:25:41Z</time>
      </trkpt>
      <trkpt lat="47.81065" lon="7.05736">
        <ele>714</ele>
        <time>2017-04-30T08:25:44Z</time>
      </trkpt>
      <trkpt lat="47.81063" lon="7.05737">
        <ele>714</ele>
        <time>2017-04-30T08:25:45Z</time>
      </trkpt>
      <trkpt lat="47.81056" lon="7.05728">
        <ele>717</ele>
        <time>2017-04-30T08:25:53Z</time>
      </trkpt>
      <trkpt lat="47.81056" lon="7.05727">
        <ele>717</ele>
        <time>2017-04-30T08:25:54Z</time>
      </trkpt>
      <trkpt lat="47.81045" lon="7.05723">
        <ele>721</ele>
        <time>2017-04-30T08:26:01Z</time>
      </trkpt>
      <trkpt lat="47.81044" lon="7.05725">
        <ele>721</ele>
        <time>2017-04-30T08:26:02Z</time>
      </trkpt>
      <trkpt lat="47.81044" lon="7.05711">
        <ele>721</ele>
        <time>2017-04-30T08:26:09Z</time>
      </trkpt>
      <trkpt lat="47.81043" lon="7.05713">
        <ele>720</ele>
        <time>2017-04-30T08:26:10Z</time>
      </trkpt>
      <trkpt lat="47.81034" lon="7.05706">
        <ele>723</ele>
        <time>2017-04-30T08:26:18Z</time>
      </trkpt>
      <trkpt lat="47.81033" lon="7.05703">
        <ele>724</ele>
        <time>2017-04-30T08:26:19Z</time>
      </trkpt>
      <trkpt lat="47.81033" lon="7.057">
        <ele>724</ele>
        <time>2017-04-30T08:26:20Z</time>
      </trkpt>
      <trkpt lat="47.8103" lon="7.05702">
        <ele>725</ele>
        <time>2017-04-30T08:26:28Z</time>
      </trkpt>
      <trkpt lat="47.8103" lon="7.05702">
        <ele>725</ele>
        <time>2017-04-30T08:26:28Z</time>
      </trkpt>
      <trkpt lat="47.81023" lon="7.05694">
        <ele>724</ele>
        <time>2017-04-30T08:27:07Z</time>
      </trkpt>
      <trkpt lat="47.81016" lon="7.05683">
        <ele>721</ele>
        <time>2017-04-30T08:27:09Z</time>
      </trkpt>
      <trkpt lat="47.81011" lon="7.05666">
        <ele>721</ele>
        <time>2017-04-30T08:27:13Z</time>
      </trkpt>
      <trkpt lat="47.8101" lon="7.05651">
        <ele>723</ele>
        <time>2017-04-30T08:27:18Z</time>
      </trkpt>
      <trkpt lat="47.81007" lon="7.05637">
        <ele>729</ele>
        <time>2017-04-30T08:27:25Z</time>
      </trkpt>
      <trkpt lat="47.81007" lon="7.05635">
        <ele>729</ele>
        <time>2017-04-30T08:27:26Z</time>
      </trkpt>
      <trkpt lat="47.80996" lon="7.05629">
        <ele>728</ele>
        <time>2017-04-30T08:27:45Z</time>
      </trkpt>
      <trkpt lat="47.80983" lon="7.05626">
        <ele>733</ele>
        <time>2017-04-30T08:27:50Z</time>
      </trkpt>
      <trkpt lat="47.8098" lon="7.05629">
        <ele>734</ele>
        <time>2017-04-30T08:27:51Z</time>
      </trkpt>
      <trkpt lat="47.80978" lon="7.05627">
        <ele>736</ele>
        <time>2017-04-30T08:27:52Z</time>
      </trkpt>
      <trkpt lat="47.80978" lon="7.05627">
        <ele>736</ele>
        <time>2017-04-30T08:27:53Z</time>
      </trkpt>
      <trkpt lat="47.80966" lon="7.05634">
        <ele>736</ele>
        <time>2017-04-30T08:27:56Z</time>
      </trkpt>
      <trkpt lat="47.80961" lon="7.05637">
        <ele>736</ele>
        <time>2017-04-30T08:27:57Z</time>
      </trkpt>
      <trkpt lat="47.80949" lon="7.05645">
        <ele>738</ele>
        <time>2017-04-30T08:28:07Z</time>
      </trkpt>
      <trkpt lat="47.80945" lon="7.05646">
        <ele>737</ele>
        <time>2017-04-30T08:28:08Z</time>
      </trkpt>
      <trkpt lat="47.80954" lon="7.05651">
        <ele>735</ele>
        <time>2017-04-30T08:28:13Z</time>
      </trkpt>
      <trkpt lat="47.80954" lon="7.05665">
        <ele>735</ele>
        <time>2017-04-30T08:28:25Z</time>
      </trkpt>
      <trkpt lat="47.80944" lon="7.05676">
        <ele>737</ele>
        <time>2017-04-30T08:28:32Z</time>
      </trkpt>
      <trkpt lat="47.80938" lon="7.05687">
        <ele>738</ele>
        <time>2017-04-30T08:29:18Z</time>
      </trkpt>
      <trkpt lat="47.80933" lon="7.05689">
        <ele>733</ele>
        <time>2017-04-30T08:29:19Z</time>
      </trkpt>
      <trkpt lat="47.80925" lon="7.05695">
        <ele>729</ele>
        <time>2017-04-30T08:29:24Z</time>
      </trkpt>
      <trkpt lat="47.80916" lon="7.05704">
        <ele>727</ele>
        <time>2017-04-30T08:29:29Z</time>
      </trkpt>
      <trkpt lat="47.80908" lon="7.05712">
        <ele>728</ele>
        <time>2017-04-30T08:29:33Z</time>
      </trkpt>
      <trkpt lat="47.80899" lon="7.05716">
        <ele>732</ele>
        <time>2017-04-30T08:29:41Z</time>
      </trkpt>
      <trkpt lat="47.80889" lon="7.05716">
        <ele>738</ele>
        <time>2017-04-30T08:29:47Z</time>
      </trkpt>
      <trkpt lat="47.8088" lon="7.05714">
        <ele>737</ele>
        <time>2017-04-30T08:29:52Z</time>
      </trkpt>
      <trkpt lat="47.80869" lon="7.0571">
        <ele>748</ele>
        <time>2017-04-30T08:30:01Z</time>
      </trkpt>
      <trkpt lat="47.80867" lon="7.0571">
        <ele>748</ele>
        <time>2017-04-30T08:30:02Z</time>
      </trkpt>
      <trkpt lat="47.80863" lon="7.05705">
        <ele>754</ele>
        <time>2017-04-30T08:30:23Z</time>
      </trkpt>
      <trkpt lat="47.80863" lon="7.05705">
        <ele>754</ele>
        <time>2017-04-30T08:30:23Z</time>
      </trkpt>
      <trkpt lat="47.80854" lon="7.05719">
        <ele>756</ele>
        <time>2017-04-30T08:30:29Z</time>
      </trkpt>
      <trkpt lat="47.8085" lon="7.05722">
        <ele>757</ele>
        <time>2017-04-30T08:30:30Z</time>
      </trkpt>
      <trkpt lat="47.80847" lon="7.05726">
        <ele>759</ele>
        <time>2017-04-30T08:30:31Z</time>
      </trkpt>
      <trkpt lat="47.80841" lon="7.05731">
        <ele>759</ele>
        <time>2017-04-30T08:30:32Z</time>
      </trkpt>
      <trkpt lat="47.80837" lon="7.05743">
        <ele>762</ele>
        <time>2017-04-30T08:30:37Z</time>
      </trkpt>
      <trkpt lat="47.80834" lon="7.05748">
        <ele>761</ele>
        <time>2017-04-30T08:30:38Z</time>
      </trkpt>
      <trkpt lat="47.80853" lon="7.05747">
        <ele>764</ele>
        <time>2017-04-30T08:30:41Z</time>
      </trkpt>
      <trkpt lat="47.80851" lon="7.05748">
        <ele>763</ele>
        <time>2017-04-30T08:30:42Z</time>
      </trkpt>
      <trkpt lat="47.80854" lon="7.0576">
        <ele>765</ele>
        <time>2017-04-30T08:30:45Z</time>
      </trkpt>
      <trkpt lat="47.8086" lon="7.05755">
        <ele>765</ele>
        <time>2017-04-30T08:30:46Z</time>
      </trkpt>
      <trkpt lat="47.8086" lon="7.05769">
        <ele>766</ele>
        <time>2017-04-30T08:30:54Z</time>
      </trkpt>
      <trkpt lat="47.80854" lon="7.05772">
        <ele>765</ele>
        <time>2017-04-30T08:30:55Z</time>
      </trkpt>
      <trkpt lat="47.8086" lon="7.05784">
        <ele>764</ele>
        <time>2017-04-30T08:31:06Z</time>
      </trkpt>
      <trkpt lat="47.80852" lon="7.05797">
        <ele>762</ele>
        <time>2017-04-30T08:31:10Z</time>
      </trkpt>
      <trkpt lat="47.80853" lon="7.05814">
        <ele>764</ele>
        <time>2017-04-30T08:31:23Z</time>
      </trkpt>
      <trkpt lat="47.80853" lon="7.05829">
        <ele>763</ele>
        <time>2017-04-30T08:31:26Z</time>
      </trkpt>
      <trkpt lat="47.80854" lon="7.05844">
        <ele>757</ele>
        <time>2017-04-30T08:31:33Z</time>
      </trkpt>
      <trkpt lat="47.80868" lon="7.05847">
        <ele>763</ele>
        <time>2017-04-30T08:31:36Z</time>
      </trkpt>
      <trkpt lat="47.80879" lon="7.05849">
        <ele>765</ele>
        <time>2017-04-30T08:31:39Z</time>
      </trkpt>
      <trkpt lat="47.80886" lon="7.05858">
        <ele>765</ele>
        <time>2017-04-30T08:31:43Z</time>
      </trkpt>
      <trkpt lat="47.80887" lon="7.05873">
        <ele>764</ele>
        <time>2017-04-30T08:31:52Z</time>
      </trkpt>
      <trkpt lat="47.80897" lon="7.05878">
        <ele>765</ele>
        <time>2017-04-30T08:31:57Z</time>
      </trkpt>
      <trkpt lat="47.8089" lon="7.05893">
        <ele>761</ele>
        <time>2017-04-30T08:32:02Z</time>
      </trkpt>
      <trkpt lat="47.80897" lon="7.05903">
        <ele>764</ele>
        <time>2017-04-30T08:32:08Z</time>
      </trkpt>
      <trkpt lat="47.80883" lon="7.05912">
        <ele>759</ele>
        <time>2017-04-30T08:32:11Z</time>
      </trkpt>
      <trkpt lat="47.80893" lon="7.05914">
        <ele>757</ele>
        <time>2017-04-30T08:32:17Z</time>
      </trkpt>
      <trkpt lat="47.80906" lon="7.05909">
        <ele>758</ele>
        <time>2017-04-30T08:32:20Z</time>
      </trkpt>
      <trkpt lat="47.80896" lon="7.05916">
        <ele>755</ele>
        <time>2017-04-30T08:32:23Z</time>
      </trkpt>
      <trkpt lat="47.80896" lon="7.0593">
        <ele>753</ele>
        <time>2017-04-30T08:32:29Z</time>
      </trkpt>
      <trkpt lat="47.80908" lon="7.05935">
        <ele>753</ele>
        <time>2017-04-30T08:32:33Z</time>
      </trkpt>
      <trkpt lat="47.80892" lon="7.05939">
        <ele>746</ele>
        <time>2017-04-30T08:32:36Z</time>
      </trkpt>
      <trkpt lat="47.80903" lon="7.05946">
        <ele>745</ele>
        <time>2017-04-30T08:32:42Z</time>
      </trkpt>
      <trkpt lat="47.80912" lon="7.05953">
        <ele>750</ele>
        <time>2017-04-30T08:32:46Z</time>
      </trkpt>
      <trkpt lat="47.80914" lon="7.05968">
        <ele>753</ele>
        <time>2017-04-30T08:32:56Z</time>
      </trkpt>
      <trkpt lat="47.8092" lon="7.05981">
        <ele>752</ele>
        <time>2017-04-30T08:33:05Z</time>
      </trkpt>
      <trkpt lat="47.80927" lon="7.05991">
        <ele>750</ele>
        <time>2017-04-30T08:33:13Z</time>
      </trkpt>
      <trkpt lat="47.80933" lon="7.06">
        <ele>748</ele>
        <time>2017-04-30T08:33:17Z</time>
      </trkpt>
      <trkpt lat="47.80943" lon="7.06002">
        <ele>747</ele>
        <time>2017-04-30T08:33:22Z</time>
      </trkpt>
      <trkpt lat="47.80947" lon="7.06014">
        <ele>749</ele>
        <time>2017-04-30T08:33:28Z</time>
      </trkpt>
      <trkpt lat="47.80953" lon="7.06025">
        <ele>748</ele>
        <time>2017-04-30T08:33:36Z</time>
      </trkpt>
      <trkpt lat="47.80962" lon="7.06035">
        <ele>752</ele>
        <time>2017-04-30T08:33:44Z</time>
      </trkpt>
      <trkpt lat="47.80967" lon="7.06048">
        <ele>752</ele>
        <time>2017-04-30T08:33:55Z</time>
      </trkpt>
      <trkpt lat="47.80965" lon="7.06063">
        <ele>751</ele>
        <time>2017-04-30T08:34:01Z</time>
      </trkpt>
      <trkpt lat="47.80973" lon="7.06071">
        <ele>752</ele>
        <time>2017-04-30T08:34:05Z</time>
      </trkpt>
      <trkpt lat="47.80976" lon="7.06085">
        <ele>752</ele>
        <time>2017-04-30T08:34:13Z</time>
      </trkpt>
      <trkpt lat="47.80969" lon="7.06097">
        <ele>752</ele>
        <time>2017-04-30T08:34:18Z</time>
      </trkpt>
      <trkpt lat="47.8096" lon="7.06102">
        <ele>751</ele>
        <time>2017-04-30T08:34:26Z</time>
      </trkpt>
      <trkpt lat="47.80964" lon="7.06116">
        <ele>749</ele>
        <time>2017-04-30T08:34:34Z</time>
      </trkpt>
      <trkpt lat="47.80967" lon="7.06129">
        <ele>752</ele>
        <time>2017-04-30T08:34:38Z</time>
      </trkpt>
      <trkpt lat="47.80976" lon="7.06136">
        <ele>752</ele>
        <time>2017-04-30T08:34:46Z</time>
      </trkpt>
      <trkpt lat="47.80982" lon="7.06147">
        <ele>749</ele>
        <time>2017-04-30T08:34:55Z</time>
      </trkpt>
      <trkpt lat="47.80991" lon="7.06152">
        <ele>748</ele>
        <time>2017-04-30T08:35:00Z</time>
      </trkpt>
      <trkpt lat="47.80996" lon="7.06164">
        <ele>750</ele>
        <time>2017-04-30T08:35:06Z</time>
      </trkpt>
      <trkpt lat="47.81009" lon="7.0617">
        <ele>752</ele>
        <time>2017-04-30T08:35:10Z</time>
      </trkpt>
      <trkpt lat="47.80998" lon="7.06177">
        <ele>750</ele>
        <time>2017-04-30T08:35:13Z</time>
      </trkpt>
      <trkpt lat="47.80992" lon="7.06188">
        <ele>751</ele>
        <time>2017-04-30T08:35:15Z</time>
      </trkpt>
      <trkpt lat="47.80991" lon="7.06197">
        <ele>750</ele>
        <time>2017-04-30T08:36:03Z</time>
      </trkpt>
      <trkpt lat="47.80994" lon="7.06211">
        <ele>746</ele>
        <time>2017-04-30T08:36:10Z</time>
      </trkpt>
      <trkpt lat="47.80994" lon="7.06224">
        <ele>747</ele>
        <time>2017-04-30T08:36:18Z</time>
      </trkpt>
      <trkpt lat="47.80986" lon="7.06236">
        <ele>747</ele>
        <time>2017-04-30T08:36:25Z</time>
      </trkpt>
      <trkpt lat="47.80977" lon="7.06238">
        <ele>743</ele>
        <time>2017-04-30T08:36:27Z</time>
      </trkpt>
      <trkpt lat="47.80957" lon="7.06254">
        <ele>742</ele>
        <time>2017-04-30T08:36:53Z</time>
      </trkpt>
      <trkpt lat="47.80948" lon="7.06256">
        <ele>739</ele>
        <time>2017-04-30T08:36:56Z</time>
      </trkpt>
      <trkpt lat="47.80938" lon="7.06257">
        <ele>739</ele>
        <time>2017-04-30T08:36:58Z</time>
      </trkpt>
      <trkpt lat="47.80929" lon="7.06263">
        <ele>739</ele>
        <time>2017-04-30T08:37:03Z</time>
      </trkpt>
      <trkpt lat="47.8092" lon="7.0626">
        <ele>736</ele>
        <time>2017-04-30T08:37:06Z</time>
      </trkpt>
      <trkpt lat="47.80911" lon="7.06264">
        <ele>736</ele>
        <time>2017-04-30T08:37:09Z</time>
      </trkpt>
      <trkpt lat="47.80903" lon="7.06275">
        <ele>737</ele>
        <time>2017-04-30T08:37:14Z</time>
      </trkpt>
      <trkpt lat="47.80893" lon="7.06279">
        <ele>740</ele>
        <time>2017-04-30T08:37:19Z</time>
      </trkpt>
      <trkpt lat="47.80883" lon="7.06276">
        <ele>745</ele>
        <time>2017-04-30T08:37:26Z</time>
      </trkpt>
      <trkpt lat="47.80873" lon="7.06273">
        <ele>749</ele>
        <time>2017-04-30T08:37:31Z</time>
      </trkpt>
      <trkpt lat="47.80864" lon="7.06264">
        <ele>753</ele>
        <time>2017-04-30T08:37:43Z</time>
      </trkpt>
      <trkpt lat="47.80854" lon="7.06262">
        <ele>754</ele>
        <time>2017-04-30T08:37:49Z</time>
      </trkpt>
      <trkpt lat="47.80843" lon="7.06257">
        <ele>757</ele>
        <time>2017-04-30T08:37:54Z</time>
      </trkpt>
      <trkpt lat="47.80834" lon="7.06254">
        <ele>758</ele>
        <time>2017-04-30T08:38:01Z</time>
      </trkpt>
      <trkpt lat="47.80828" lon="7.06243">
        <ele>757</ele>
        <time>2017-04-30T08:38:12Z</time>
      </trkpt>
      <trkpt lat="47.80818" lon="7.06238">
        <ele>759</ele>
        <time>2017-04-30T08:38:23Z</time>
      </trkpt>
      <trkpt lat="47.80809" lon="7.06227">
        <ele>759</ele>
        <time>2017-04-30T08:38:32Z</time>
      </trkpt>
      <trkpt lat="47.80801" lon="7.0622">
        <ele>756</ele>
        <time>2017-04-30T08:38:37Z</time>
      </trkpt>
      <trkpt lat="47.80795" lon="7.06209">
        <ele>757</ele>
        <time>2017-04-30T08:38:45Z</time>
      </trkpt>
      <trkpt lat="47.80784" lon="7.06199">
        <ele>759</ele>
        <time>2017-04-30T08:38:52Z</time>
      </trkpt>
      <trkpt lat="47.80776" lon="7.06194">
        <ele>760</ele>
        <time>2017-04-30T08:39:03Z</time>
      </trkpt>
      <trkpt lat="47.80768" lon="7.06186">
        <ele>758</ele>
        <time>2017-04-30T08:39:13Z</time>
      </trkpt>
      <trkpt lat="47.80759" lon="7.06178">
        <ele>757</ele>
        <time>2017-04-30T08:39:20Z</time>
      </trkpt>
      <trkpt lat="47.8075" lon="7.06176">
        <ele>760</ele>
        <time>2017-04-30T08:39:25Z</time>
      </trkpt>
      <trkpt lat="47.80744" lon="7.06161">
        <ele>763</ele>
        <time>2017-04-30T08:39:30Z</time>
      </trkpt>
      <trkpt lat="47.80736" lon="7.06153">
        <ele>764</ele>
        <time>2017-04-30T08:39:42Z</time>
      </trkpt>
      <trkpt lat="47.80729" lon="7.06142">
        <ele>764</ele>
        <time>2017-04-30T08:39:48Z</time>
      </trkpt>
      <trkpt lat="47.80726" lon="7.06129">
        <ele>763</ele>
        <time>2017-04-30T08:39:54Z</time>
      </trkpt>
      <trkpt lat="47.80718" lon="7.06121">
        <ele>765</ele>
        <time>2017-04-30T08:40:07Z</time>
      </trkpt>
      <trkpt lat="47.8071" lon="7.06116">
        <ele>767</ele>
        <time>2017-04-30T08:40:21Z</time>
      </trkpt>
      <trkpt lat="47.8071" lon="7.06115">
        <ele>766</ele>
        <time>2017-04-30T08:40:22Z</time>
      </trkpt>
      <trkpt lat="47.80699" lon="7.06105">
        <ele>764</ele>
        <time>2017-04-30T08:40:56Z</time>
      </trkpt>
      <trkpt lat="47.8069" lon="7.06099">
        <ele>759</ele>
        <time>2017-04-30T08:41:01Z</time>
      </trkpt>
      <trkpt lat="47.80681" lon="7.06095">
        <ele>761</ele>
        <time>2017-04-30T08:41:09Z</time>
      </trkpt>
      <trkpt lat="47.80669" lon="7.06098">
        <ele>764</ele>
        <time>2017-04-30T08:41:16Z</time>
      </trkpt>
      <trkpt lat="47.80658" lon="7.06104">
        <ele>763</ele>
        <time>2017-04-30T08:41:24Z</time>
      </trkpt>
      <trkpt lat="47.8065" lon="7.06113">
        <ele>766</ele>
        <time>2017-04-30T08:41:34Z</time>
      </trkpt>
      <trkpt lat="47.8063" lon="7.0612">
        <ele>766</ele>
        <time>2017-04-30T08:42:05Z</time>
      </trkpt>
      <trkpt lat="47.8062" lon="7.06126">
        <ele>765</ele>
        <time>2017-04-30T08:42:08Z</time>
      </trkpt>
      <trkpt lat="47.80612" lon="7.0614">
        <ele>764</ele>
        <time>2017-04-30T08:42:14Z</time>
      </trkpt>
      <trkpt lat="47.80602" lon="7.0615">
        <ele>766</ele>
        <time>2017-04-30T08:42:19Z</time>
      </trkpt>
      <trkpt lat="47.80594" lon="7.06159">
        <ele>764</ele>
        <time>2017-04-30T08:42:26Z</time>
      </trkpt>
      <trkpt lat="47.80585" lon="7.06162">
        <ele>767</ele>
        <time>2017-04-30T08:42:34Z</time>
      </trkpt>
      <trkpt lat="47.80575" lon="7.06172">
        <ele>770</ele>
        <time>2017-04-30T08:42:40Z</time>
      </trkpt>
      <trkpt lat="47.80575" lon="7.06167">
        <ele>769</ele>
        <time>2017-04-30T08:42:41Z</time>
      </trkpt>
      <trkpt lat="47.80566" lon="7.06171">
        <ele>769</ele>
        <time>2017-04-30T08:43:04Z</time>
      </trkpt>
      <trkpt lat="47.80557" lon="7.06172">
        <ele>768</ele>
        <time>2017-04-30T08:43:12Z</time>
      </trkpt>
      <trkpt lat="47.80547" lon="7.06175">
        <ele>771</ele>
        <time>2017-04-30T08:43:19Z</time>
      </trkpt>
      <trkpt lat="47.80546" lon="7.06175">
        <ele>771</ele>
        <time>2017-04-30T08:43:20Z</time>
      </trkpt>
      <trkpt lat="47.80536" lon="7.06175">
        <ele>770</ele>
        <time>2017-04-30T08:43:30Z</time>
      </trkpt>
      <trkpt lat="47.80533" lon="7.06176">
        <ele>769</ele>
        <time>2017-04-30T08:43:31Z</time>
      </trkpt>
      <trkpt lat="47.80524" lon="7.06174">
        <ele>772</ele>
        <time>2017-04-30T08:43:36Z</time>
      </trkpt>
      <trkpt lat="47.80515" lon="7.06181">
        <ele>773</ele>
        <time>2017-04-30T08:43:42Z</time>
      </trkpt>
      <trkpt lat="47.80513" lon="7.06181">
        <ele>773</ele>
        <time>2017-04-30T08:43:43Z</time>
      </trkpt>
      <trkpt lat="47.80503" lon="7.06176">
        <ele>768</ele>
        <time>2017-04-30T08:43:48Z</time>
      </trkpt>
      <trkpt lat="47.80494" lon="7.06173">
        <ele>767</ele>
        <time>2017-04-30T08:43:55Z</time>
      </trkpt>
      <trkpt lat="47.80484" lon="7.06169">
        <ele>767</ele>
        <time>2017-04-30T08:44:00Z</time>
      </trkpt>
      <trkpt lat="47.80475" lon="7.06164">
        <ele>766</ele>
        <time>2017-04-30T08:44:10Z</time>
      </trkpt>
      <trkpt lat="47.80467" lon="7.06159">
        <ele>769</ele>
        <time>2017-04-30T08:44:21Z</time>
      </trkpt>
      <trkpt lat="47.80458" lon="7.06155">
        <ele>773</ele>
        <time>2017-04-30T08:44:30Z</time>
      </trkpt>
      <trkpt lat="47.80448" lon="7.06146">
        <ele>771</ele>
        <time>2017-04-30T08:44:36Z</time>
      </trkpt>
      <trkpt lat="47.80438" lon="7.06143">
        <ele>772</ele>
        <time>2017-04-30T08:44:40Z</time>
      </trkpt>
      <trkpt lat="47.8043" lon="7.06136">
        <ele>772</ele>
        <time>2017-04-30T08:44:44Z</time>
      </trkpt>
      <trkpt lat="47.80417" lon="7.06126">
        <ele>772</ele>
        <time>2017-04-30T08:45:14Z</time>
      </trkpt>
      <trkpt lat="47.80406" lon="7.06125">
        <ele>772</ele>
        <time>2017-04-30T08:45:19Z</time>
      </trkpt>
      <trkpt lat="47.80397" lon="7.06121">
        <ele>771</ele>
        <time>2017-04-30T08:45:24Z</time>
      </trkpt>
      <trkpt lat="47.80389" lon="7.06115">
        <ele>771</ele>
        <time>2017-04-30T08:45:29Z</time>
      </trkpt>
      <trkpt lat="47.8038" lon="7.06107">
        <ele>777</ele>
        <time>2017-04-30T08:45:37Z</time>
      </trkpt>
      <trkpt lat="47.8038" lon="7.06107">
        <ele>777</ele>
        <time>2017-04-30T08:45:38Z</time>
      </trkpt>
      <trkpt lat="47.80373" lon="7.06098">
        <ele>783</ele>
        <time>2017-04-30T08:45:46Z</time>
      </trkpt>
      <trkpt lat="47.80372" lon="7.06099">
        <ele>786</ele>
        <time>2017-04-30T08:45:47Z</time>
      </trkpt>
      <trkpt lat="47.80371" lon="7.06093">
        <ele>786</ele>
        <time>2017-04-30T08:45:48Z</time>
      </trkpt>
      <trkpt lat="47.80362" lon="7.06103">
        <ele>793</ele>
        <time>2017-04-30T08:46:02Z</time>
      </trkpt>
      <trkpt lat="47.80361" lon="7.06104">
        <ele>794</ele>
        <time>2017-04-30T08:46:03Z</time>
      </trkpt>
      <trkpt lat="47.8036" lon="7.06104">
        <ele>794</ele>
        <time>2017-04-30T08:46:04Z</time>
      </trkpt>
      <trkpt lat="47.80378" lon="7.0609">
        <ele>794</ele>
        <time>2017-04-30T08:46:12Z</time>
      </trkpt>
      <trkpt lat="47.80381" lon="7.06075">
        <ele>794</ele>
        <time>2017-04-30T08:46:20Z</time>
      </trkpt>
      <trkpt lat="47.80384" lon="7.06073">
        <ele>788</ele>
        <time>2017-04-30T08:46:23Z</time>
      </trkpt>
      <trkpt lat="47.80384" lon="7.06073">
        <ele>788</ele>
        <time>2017-04-30T08:46:23Z</time>
      </trkpt>
      <trkpt lat="47.80384" lon="7.06087">
        <ele>781</ele>
        <time>2017-04-30T08:48:00Z</time>
      </trkpt>
      <trkpt lat="47.80384" lon="7.0609">
        <ele>778</ele>
        <time>2017-04-30T08:57:00Z</time>
      </trkpt>
      <trkpt lat="47.80379" lon="7.06078">
        <ele>772</ele>
        <time>2017-04-30T08:57:06Z</time>
      </trkpt>
      <trkpt lat="47.8037" lon="7.06065">
        <ele>769</ele>
        <time>2017-04-30T08:57:10Z</time>
      </trkpt>
      <trkpt lat="47.80372" lon="7.06048">
        <ele>767</ele>
        <time>2017-04-30T08:57:15Z</time>
      </trkpt>
      <trkpt lat="47.8037" lon="7.06032">
        <ele>763</ele>
        <time>2017-04-30T08:57:20Z</time>
      </trkpt>
      <trkpt lat="47.80367" lon="7.06019">
        <ele>761</ele>
        <time>2017-04-30T08:57:23Z</time>
      </trkpt>
      <trkpt lat="47.80367" lon="7.06005">
        <ele>760</ele>
        <time>2017-04-30T08:57:27Z</time>
      </trkpt>
      <trkpt lat="47.80367" lon="7.0599">
        <ele>757</ele>
        <time>2017-04-30T08:57:32Z</time>
      </trkpt>
      <trkpt lat="47.8037" lon="7.05974">
        <ele>757</ele>
        <time>2017-04-30T08:57:37Z</time>
      </trkpt>
      <trkpt lat="47.80373" lon="7.05956">
        <ele>762</ele>
        <time>2017-04-30T08:58:19Z</time>
      </trkpt>
      <trkpt lat="47.80385" lon="7.0595">
        <ele>763</ele>
        <time>2017-04-30T08:58:25Z</time>
      </trkpt>
      <trkpt lat="47.80391" lon="7.0594">
        <ele>764</ele>
        <time>2017-04-30T08:58:32Z</time>
      </trkpt>
      <trkpt lat="47.80397" lon="7.05928">
        <ele>766</ele>
        <time>2017-04-30T08:58:36Z</time>
      </trkpt>
      <trkpt lat="47.80404" lon="7.05919">
        <ele>760</ele>
        <time>2017-04-30T08:58:41Z</time>
      </trkpt>
      <trkpt lat="47.8041" lon="7.05909">
        <ele>759</ele>
        <time>2017-04-30T08:58:46Z</time>
      </trkpt>
      <trkpt lat="47.80419" lon="7.05903">
        <ele>758</ele>
        <time>2017-04-30T08:58:48Z</time>
      </trkpt>
      <trkpt lat="47.80426" lon="7.05893">
        <ele>763</ele>
        <time>2017-04-30T08:58:57Z</time>
      </trkpt>
      <trkpt lat="47.80436" lon="7.05888">
        <ele>762</ele>
        <time>2017-04-30T08:59:16Z</time>
      </trkpt>
      <trkpt lat="47.80447" lon="7.05884">
        <ele>761</ele>
        <time>2017-04-30T08:59:27Z</time>
      </trkpt>
      <trkpt lat="47.80457" lon="7.05879">
        <ele>753</ele>
        <time>2017-04-30T08:59:33Z</time>
      </trkpt>
      <trkpt lat="47.80465" lon="7.0587">
        <ele>751</ele>
        <time>2017-04-30T08:59:42Z</time>
      </trkpt>
      <trkpt lat="47.80467" lon="7.05851">
        <ele>758</ele>
        <time>2017-04-30T09:00:38Z</time>
      </trkpt>
      <trkpt lat="47.80462" lon="7.05835">
        <ele>756</ele>
        <time>2017-04-30T09:00:42Z</time>
      </trkpt>
      <trkpt lat="47.80456" lon="7.05823">
        <ele>756</ele>
        <time>2017-04-30T09:00:47Z</time>
      </trkpt>
      <trkpt lat="47.80452" lon="7.05811">
        <ele>760</ele>
        <time>2017-04-30T09:00:53Z</time>
      </trkpt>
      <trkpt lat="47.80449" lon="7.05797">
        <ele>760</ele>
        <time>2017-04-30T09:01:02Z</time>
      </trkpt>
      <trkpt lat="47.80449" lon="7.05782">
        <ele>758</ele>
        <time>2017-04-30T09:01:10Z</time>
      </trkpt>
      <trkpt lat="47.80444" lon="7.05771">
        <ele>759</ele>
        <time>2017-04-30T09:01:16Z</time>
      </trkpt>
      <trkpt lat="47.80447" lon="7.05767">
        <ele>758</ele>
        <time>2017-04-30T09:01:19Z</time>
      </trkpt>
      <trkpt lat="47.80447" lon="7.05767">
        <ele>758</ele>
        <time>2017-04-30T09:01:19Z</time>
      </trkpt>
      <trkpt lat="47.80442" lon="7.05755">
        <ele>755</ele>
        <time>2017-04-30T09:02:40Z</time>
      </trkpt>
      <trkpt lat="47.80439" lon="7.05735">
        <ele>759</ele>
        <time>2017-04-30T09:02:45Z</time>
      </trkpt>
      <trkpt lat="47.80437" lon="7.0572">
        <ele>758</ele>
        <time>2017-04-30T09:02:57Z</time>
      </trkpt>
      <trkpt lat="47.80436" lon="7.05706">
        <ele>758</ele>
        <time>2017-04-30T09:03:05Z</time>
      </trkpt>
      <trkpt lat="47.80429" lon="7.05699">
        <ele>758</ele>
        <time>2017-04-30T09:03:10Z</time>
      </trkpt>
      <trkpt lat="47.8043" lon="7.05686">
        <ele>761</ele>
        <time>2017-04-30T09:03:20Z</time>
      </trkpt>
      <trkpt lat="47.80429" lon="7.05672">
        <ele>760</ele>
        <time>2017-04-30T09:03:29Z</time>
      </trkpt>
      <trkpt lat="47.80428" lon="7.05671">
        <ele>758</ele>
        <time>2017-04-30T09:03:34Z</time>
      </trkpt>
      <trkpt lat="47.80428" lon="7.05671">
        <ele>758</ele>
        <time>2017-04-30T09:03:34Z</time>
      </trkpt>
      <trkpt lat="47.80433" lon="7.0566">
        <ele>761</ele>
        <time>2017-04-30T09:03:58Z</time>
      </trkpt>
      <trkpt lat="47.80438" lon="7.05647">
        <ele>761</ele>
        <time>2017-04-30T09:04:01Z</time>
      </trkpt>
      <trkpt lat="47.80441" lon="7.05631">
        <ele>766</ele>
        <time>2017-04-30T09:04:09Z</time>
      </trkpt>
      <trkpt lat="47.80437" lon="7.05616">
        <ele>771</ele>
        <time>2017-04-30T09:04:15Z</time>
      </trkpt>
      <trkpt lat="47.80436" lon="7.05601">
        <ele>774</ele>
        <time>2017-04-30T09:04:22Z</time>
      </trkpt>
      <trkpt lat="47.80433" lon="7.05588">
        <ele>781</ele>
        <time>2017-04-30T09:04:26Z</time>
      </trkpt>
      <trkpt lat="47.80438" lon="7.05575">
        <ele>783</ele>
        <time>2017-04-30T09:04:34Z</time>
      </trkpt>
      <trkpt lat="47.80444" lon="7.05564">
        <ele>782</ele>
        <time>2017-04-30T09:04:42Z</time>
      </trkpt>
      <trkpt lat="47.80439" lon="7.05553">
        <ele>783</ele>
        <time>2017-04-30T09:04:55Z</time>
      </trkpt>
      <trkpt lat="47.80442" lon="7.05539">
        <ele>781</ele>
        <time>2017-04-30T09:05:02Z</time>
      </trkpt>
      <trkpt lat="47.80435" lon="7.0553">
        <ele>779</ele>
        <time>2017-04-30T09:05:09Z</time>
      </trkpt>
      <trkpt lat="47.8043" lon="7.05518">
        <ele>780</ele>
        <time>2017-04-30T09:05:20Z</time>
      </trkpt>
      <trkpt lat="47.80423" lon="7.05497">
        <ele>781</ele>
        <time>2017-04-30T09:06:29Z</time>
      </trkpt>
      <trkpt lat="47.80409" lon="7.05492">
        <ele>785</ele>
        <time>2017-04-30T09:06:59Z</time>
      </trkpt>
      <trkpt lat="47.80399" lon="7.0549">
        <ele>788</ele>
        <time>2017-04-30T09:07:05Z</time>
      </trkpt>
      <trkpt lat="47.80391" lon="7.05485">
        <ele>788</ele>
        <time>2017-04-30T09:07:12Z</time>
      </trkpt>
      <trkpt lat="47.80382" lon="7.05477">
        <ele>790</ele>
        <time>2017-04-30T09:07:20Z</time>
      </trkpt>
      <trkpt lat="47.80368" lon="7.05467">
        <ele>789</ele>
        <time>2017-04-30T09:07:40Z</time>
      </trkpt>
      <trkpt lat="47.8036" lon="7.0546">
        <ele>785</ele>
        <time>2017-04-30T09:07:49Z</time>
      </trkpt>
      <trkpt lat="47.80351" lon="7.05456">
        <ele>787</ele>
        <time>2017-04-30T09:07:56Z</time>
      </trkpt>
      <trkpt lat="47.80342" lon="7.05459">
        <ele>790</ele>
        <time>2017-04-30T09:08:44Z</time>
      </trkpt>
      <trkpt lat="47.80332" lon="7.05459">
        <ele>788</ele>
        <time>2017-04-30T09:08:50Z</time>
      </trkpt>
      <trkpt lat="47.80323" lon="7.05455">
        <ele>789</ele>
        <time>2017-04-30T09:08:58Z</time>
      </trkpt>
      <trkpt lat="47.80306" lon="7.05443">
        <ele>789</ele>
        <time>2017-04-30T09:09:39Z</time>
      </trkpt>
      <trkpt lat="47.80298" lon="7.05436">
        <ele>793</ele>
        <time>2017-04-30T09:09:44Z</time>
      </trkpt>
      <trkpt lat="47.8029" lon="7.05425">
        <ele>795</ele>
        <time>2017-04-30T09:09:50Z</time>
      </trkpt>
      <trkpt lat="47.80289" lon="7.05425">
        <ele>796</ele>
        <time>2017-04-30T09:09:51Z</time>
      </trkpt>
      <trkpt lat="47.80281" lon="7.05417">
        <ele>800</ele>
        <time>2017-04-30T09:10:01Z</time>
      </trkpt>
      <trkpt lat="47.8028" lon="7.05416">
        <ele>800</ele>
        <time>2017-04-30T09:10:02Z</time>
      </trkpt>
      <trkpt lat="47.80275" lon="7.05405">
        <ele>796</ele>
        <time>2017-04-30T09:10:09Z</time>
      </trkpt>
      <trkpt lat="47.80268" lon="7.05396">
        <ele>794</ele>
        <time>2017-04-30T09:10:17Z</time>
      </trkpt>
      <trkpt lat="47.80261" lon="7.05387">
        <ele>789</ele>
        <time>2017-04-30T09:10:26Z</time>
      </trkpt>
      <trkpt lat="47.80255" lon="7.05377">
        <ele>791</ele>
        <time>2017-04-30T09:10:34Z</time>
      </trkpt>
      <trkpt lat="47.80246" lon="7.05366">
        <ele>793</ele>
        <time>2017-04-30T09:10:42Z</time>
      </trkpt>
      <trkpt lat="47.80245" lon="7.05352">
        <ele>798</ele>
        <time>2017-04-30T09:10:51Z</time>
      </trkpt>
      <trkpt lat="47.80237" lon="7.05341">
        <ele>802</ele>
        <time>2017-04-30T09:11:01Z</time>
      </trkpt>
      <trkpt lat="47.80237" lon="7.05338">
        <ele>802</ele>
        <time>2017-04-30T09:11:02Z</time>
      </trkpt>
      <trkpt lat="47.80233" lon="7.05324">
        <ele>800</ele>
        <time>2017-04-30T09:11:14Z</time>
      </trkpt>
      <trkpt lat="47.80233" lon="7.05307">
        <ele>795</ele>
        <time>2017-04-30T09:11:20Z</time>
      </trkpt>
      <trkpt lat="47.80227" lon="7.05298">
        <ele>797</ele>
        <time>2017-04-30T09:11:33Z</time>
      </trkpt>
      <trkpt lat="47.80229" lon="7.05283">
        <ele>801</ele>
        <time>2017-04-30T09:11:47Z</time>
      </trkpt>
      <trkpt lat="47.8023" lon="7.05281">
        <ele>802</ele>
        <time>2017-04-30T09:11:48Z</time>
      </trkpt>
      <trkpt lat="47.80234" lon="7.05267">
        <ele>800</ele>
        <time>2017-04-30T09:12:00Z</time>
      </trkpt>
      <trkpt lat="47.80241" lon="7.05257">
        <ele>799</ele>
        <time>2017-04-30T09:12:16Z</time>
      </trkpt>
      <trkpt lat="47.80248" lon="7.05247">
        <ele>801</ele>
        <time>2017-04-30T09:12:23Z</time>
      </trkpt>
      <trkpt lat="47.80248" lon="7.05247">
        <ele>801</ele>
        <time>2017-04-30T09:12:23Z</time>
      </trkpt>
      <trkpt lat="47.80248" lon="7.05247">
        <ele>801</ele>
        <time>2017-04-30T09:12:23Z</time>
      </trkpt>
      <trkpt lat="47.80256" lon="7.0523">
        <ele>799</ele>
        <time>2017-04-30T09:12:42Z</time>
      </trkpt>
      <trkpt lat="47.80265" lon="7.05221">
        <ele>796</ele>
        <time>2017-04-30T09:12:49Z</time>
      </trkpt>
      <trkpt lat="47.80268" lon="7.05208">
        <ele>797</ele>
        <time>2017-04-30T09:12:56Z</time>
      </trkpt>
      <trkpt lat="47.80277" lon="7.05207">
        <ele>796</ele>
        <time>2017-04-30T09:13:03Z</time>
      </trkpt>
      <trkpt lat="47.80286" lon="7.05196">
        <ele>796</ele>
        <time>2017-04-30T09:13:11Z</time>
      </trkpt>
      <trkpt lat="47.80292" lon="7.05183">
        <ele>798</ele>
        <time>2017-04-30T09:13:21Z</time>
      </trkpt>
      <trkpt lat="47.80303" lon="7.05182">
        <ele>797</ele>
        <time>2017-04-30T09:13:30Z</time>
      </trkpt>
      <trkpt lat="47.80309" lon="7.05172">
        <ele>800</ele>
        <time>2017-04-30T09:13:38Z</time>
      </trkpt>
      <trkpt lat="47.80317" lon="7.05166">
        <ele>798</ele>
        <time>2017-04-30T09:13:44Z</time>
      </trkpt>
      <trkpt lat="47.80327" lon="7.05166">
        <ele>799</ele>
        <time>2017-04-30T09:13:50Z</time>
      </trkpt>
      <trkpt lat="47.80336" lon="7.0516">
        <ele>799</ele>
        <time>2017-04-30T09:13:59Z</time>
      </trkpt>
      <trkpt lat="47.80339" lon="7.05154">
        <ele>801</ele>
        <time>2017-04-30T09:14:16Z</time>
      </trkpt>
      <trkpt lat="47.80343" lon="7.05139">
        <ele>803</ele>
        <time>2017-04-30T09:14:20Z</time>
      </trkpt>
      <trkpt lat="47.80349" lon="7.0513">
        <ele>806</ele>
        <time>2017-04-30T09:14:26Z</time>
      </trkpt>
      <trkpt lat="47.80351" lon="7.0513">
        <ele>805</ele>
        <time>2017-04-30T09:14:27Z</time>
      </trkpt>
      <trkpt lat="47.80358" lon="7.0512">
        <ele>808</ele>
        <time>2017-04-30T09:14:33Z</time>
      </trkpt>
      <trkpt lat="47.80358" lon="7.05117">
        <ele>808</ele>
        <time>2017-04-30T09:14:34Z</time>
      </trkpt>
      <trkpt lat="47.80363" lon="7.05104">
        <ele>808</ele>
        <time>2017-04-30T09:14:40Z</time>
      </trkpt>
      <trkpt lat="47.80364" lon="7.05104">
        <ele>808</ele>
        <time>2017-04-30T09:14:41Z</time>
      </trkpt>
      <trkpt lat="47.80372" lon="7.05094">
        <ele>806</ele>
        <time>2017-04-30T09:14:53Z</time>
      </trkpt>
      <trkpt lat="47.8038" lon="7.051">
        <ele>805</ele>
        <time>2017-04-30T09:15:02Z</time>
      </trkpt>
      <trkpt lat="47.80386" lon="7.05116">
        <ele>804</ele>
        <time>2017-04-30T09:15:05Z</time>
      </trkpt>
      <trkpt lat="47.80392" lon="7.05106">
        <ele>804</ele>
        <time>2017-04-30T09:15:13Z</time>
      </trkpt>
      <trkpt lat="47.80401" lon="7.05085">
        <ele>803</ele>
        <time>2017-04-30T09:15:15Z</time>
      </trkpt>
      <trkpt lat="47.80392" lon="7.05098">
        <ele>801</ele>
        <time>2017-04-30T09:15:19Z</time>
      </trkpt>
      <trkpt lat="47.80398" lon="7.05085">
        <ele>799</ele>
        <time>2017-04-30T09:15:20Z</time>
      </trkpt>
      <trkpt lat="47.80393" lon="7.05095">
        <ele>801</ele>
        <time>2017-04-30T09:15:27Z</time>
      </trkpt>
      <trkpt lat="47.80393" lon="7.05095">
        <ele>801</ele>
        <time>2017-04-30T09:15:27Z</time>
      </trkpt>
      <trkpt lat="47.80394" lon="7.05077">
        <ele>802</ele>
        <time>2017-04-30T09:16:08Z</time>
      </trkpt>
      <trkpt lat="47.80401" lon="7.05068">
        <ele>802</ele>
        <time>2017-04-30T09:16:12Z</time>
      </trkpt>
      <trkpt lat="47.80408" lon="7.05056">
        <ele>806</ele>
        <time>2017-04-30T09:16:18Z</time>
      </trkpt>
      <trkpt lat="47.80412" lon="7.05042">
        <ele>809</ele>
        <time>2017-04-30T09:16:24Z</time>
      </trkpt>
      <trkpt lat="47.80411" lon="7.05025">
        <ele>810</ele>
        <time>2017-04-30T09:16:28Z</time>
      </trkpt>
      <trkpt lat="47.80414" lon="7.05012">
        <ele>810</ele>
        <time>2017-04-30T09:16:33Z</time>
      </trkpt>
      <trkpt lat="47.80415" lon="7.05009">
        <ele>810</ele>
        <time>2017-04-30T09:16:34Z</time>
      </trkpt>
      <trkpt lat="47.80423" lon="7.04997">
        <ele>811</ele>
        <time>2017-04-30T09:16:40Z</time>
      </trkpt>
      <trkpt lat="47.8043" lon="7.04988">
        <ele>813</ele>
        <time>2017-04-30T09:16:48Z</time>
      </trkpt>
      <trkpt lat="47.80431" lon="7.04987">
        <ele>813</ele>
        <time>2017-04-30T09:16:49Z</time>
      </trkpt>
      <trkpt lat="47.80439" lon="7.04981">
        <ele>815</ele>
        <time>2017-04-30T09:17:01Z</time>
      </trkpt>
      <trkpt lat="47.8044" lon="7.04981">
        <ele>815</ele>
        <time>2017-04-30T09:17:02Z</time>
      </trkpt>
      <trkpt lat="47.8045" lon="7.04974">
        <ele>817</ele>
        <time>2017-04-30T09:17:14Z</time>
      </trkpt>
      <trkpt lat="47.8045" lon="7.04974">
        <ele>818</ele>
        <time>2017-04-30T09:17:15Z</time>
      </trkpt>
      <trkpt lat="47.8045" lon="7.04974">
        <ele>818</ele>
        <time>2017-04-30T09:17:16Z</time>
      </trkpt>
      <trkpt lat="47.8046" lon="7.04977">
        <ele>814</ele>
        <time>2017-04-30T09:17:19Z</time>
      </trkpt>
      <trkpt lat="47.80469" lon="7.04975">
        <ele>814</ele>
        <time>2017-04-30T09:17:26Z</time>
      </trkpt>
      <trkpt lat="47.80479" lon="7.04978">
        <ele>814</ele>
        <time>2017-04-30T09:17:34Z</time>
      </trkpt>
      <trkpt lat="47.80488" lon="7.04977">
        <ele>809</ele>
        <time>2017-04-30T09:17:44Z</time>
      </trkpt>
      <trkpt lat="47.80494" lon="7.04964">
        <ele>807</ele>
        <time>2017-04-30T09:17:50Z</time>
      </trkpt>
      <trkpt lat="47.80494" lon="7.0495">
        <ele>811</ele>
        <time>2017-04-30T09:17:57Z</time>
      </trkpt>
      <trkpt lat="47.80502" lon="7.04942">
        <ele>810</ele>
        <time>2017-04-30T09:18:09Z</time>
      </trkpt>
      <trkpt lat="47.80503" lon="7.04921">
        <ele>812</ele>
        <time>2017-04-30T09:18:17Z</time>
      </trkpt>
      <trkpt lat="47.80512" lon="7.04909">
        <ele>813</ele>
        <time>2017-04-30T09:18:20Z</time>
      </trkpt>
      <trkpt lat="47.80523" lon="7.04917">
        <ele>810</ele>
        <time>2017-04-30T09:18:25Z</time>
      </trkpt>
      <trkpt lat="47.80511" lon="7.04914">
        <ele>811</ele>
        <time>2017-04-30T09:18:28Z</time>
      </trkpt>
      <trkpt lat="47.80513" lon="7.04901">
        <ele>812</ele>
        <time>2017-04-30T09:18:47Z</time>
      </trkpt>
      <trkpt lat="47.80517" lon="7.04887">
        <ele>815</ele>
        <time>2017-04-30T09:18:50Z</time>
      </trkpt>
      <trkpt lat="47.80522" lon="7.04872">
        <ele>817</ele>
        <time>2017-04-30T09:18:54Z</time>
      </trkpt>
      <trkpt lat="47.80513" lon="7.04856">
        <ele>819</ele>
        <time>2017-04-30T09:19:04Z</time>
      </trkpt>
      <trkpt lat="47.80513" lon="7.04855">
        <ele>819</ele>
        <time>2017-04-30T09:19:05Z</time>
      </trkpt>
      <trkpt lat="47.80515" lon="7.0484">
        <ele>819</ele>
        <time>2017-04-30T09:19:14Z</time>
      </trkpt>
      <trkpt lat="47.80514" lon="7.04838">
        <ele>820</ele>
        <time>2017-04-30T09:19:15Z</time>
      </trkpt>
      <trkpt lat="47.80507" lon="7.04826">
        <ele>822</ele>
        <time>2017-04-30T09:19:23Z</time>
      </trkpt>
      <trkpt lat="47.80508" lon="7.04823">
        <ele>823</ele>
        <time>2017-04-30T09:19:24Z</time>
      </trkpt>
      <trkpt lat="47.80508" lon="7.04824">
        <ele>822</ele>
        <time>2017-04-30T09:19:25Z</time>
      </trkpt>
      <trkpt lat="47.80505" lon="7.0481">
        <ele>825</ele>
        <time>2017-04-30T09:19:33Z</time>
      </trkpt>
      <trkpt lat="47.80504" lon="7.0481">
        <ele>825</ele>
        <time>2017-04-30T09:19:34Z</time>
      </trkpt>
      <trkpt lat="47.80501" lon="7.04797">
        <ele>830</ele>
        <time>2017-04-30T09:19:44Z</time>
      </trkpt>
      <trkpt lat="47.80502" lon="7.04794">
        <ele>828</ele>
        <time>2017-04-30T09:19:45Z</time>
      </trkpt>
      <trkpt lat="47.80495" lon="7.04781">
        <ele>829</ele>
        <time>2017-04-30T09:19:53Z</time>
      </trkpt>
      <trkpt lat="47.80498" lon="7.04768">
        <ele>829</ele>
        <time>2017-04-30T09:20:01Z</time>
      </trkpt>
      <trkpt lat="47.80491" lon="7.04756">
        <ele>833</ele>
        <time>2017-04-30T09:20:06Z</time>
      </trkpt>
      <trkpt lat="47.80491" lon="7.04753">
        <ele>831</ele>
        <time>2017-04-30T09:20:07Z</time>
      </trkpt>
      <trkpt lat="47.80487" lon="7.04739">
        <ele>833</ele>
        <time>2017-04-30T09:20:15Z</time>
      </trkpt>
      <trkpt lat="47.80487" lon="7.04737">
        <ele>835</ele>
        <time>2017-04-30T09:20:16Z</time>
      </trkpt>
      <trkpt lat="47.80484" lon="7.04734">
        <ele>837</ele>
        <time>2017-04-30T09:20:17Z</time>
      </trkpt>
      <trkpt lat="47.80486" lon="7.04735">
        <ele>837</ele>
        <time>2017-04-30T09:20:18Z</time>
      </trkpt>
      <trkpt lat="47.80482" lon="7.04722">
        <ele>836</ele>
        <time>2017-04-30T09:20:27Z</time>
      </trkpt>
      <trkpt lat="47.80484" lon="7.04709">
        <ele>833</ele>
        <time>2017-04-30T09:20:35Z</time>
      </trkpt>
      <trkpt lat="47.80479" lon="7.04697">
        <ele>832</ele>
        <time>2017-04-30T09:20:43Z</time>
      </trkpt>
      <trkpt lat="47.80481" lon="7.04684">
        <ele>830</ele>
        <time>2017-04-30T09:20:48Z</time>
      </trkpt>
      <trkpt lat="47.80478" lon="7.04671">
        <ele>832</ele>
        <time>2017-04-30T09:21:13Z</time>
      </trkpt>
      <trkpt lat="47.80475" lon="7.04659">
        <ele>830</ele>
        <time>2017-04-30T09:21:18Z</time>
      </trkpt>
      <trkpt lat="47.80473" lon="7.04645">
        <ele>832</ele>
        <time>2017-04-30T09:21:21Z</time>
      </trkpt>
      <trkpt lat="47.80465" lon="7.04634">
        <ele>834</ele>
        <time>2017-04-30T09:21:29Z</time>
      </trkpt>
      <trkpt lat="47.80465" lon="7.04634">
        <ele>834</ele>
        <time>2017-04-30T09:21:29Z</time>
      </trkpt>
      <trkpt lat="47.80465" lon="7.04634">
        <ele>834</ele>
        <time>2017-04-30T09:21:29Z</time>
      </trkpt>
      <trkpt lat="47.80459" lon="7.04619">
        <ele>833</ele>
        <time>2017-04-30T09:21:55Z</time>
      </trkpt>
      <trkpt lat="47.80452" lon="7.04605">
        <ele>835</ele>
        <time>2017-04-30T09:22:00Z</time>
      </trkpt>
      <trkpt lat="47.80446" lon="7.04593">
        <ele>837</ele>
        <time>2017-04-30T09:22:05Z</time>
      </trkpt>
      <trkpt lat="47.80442" lon="7.04579">
        <ele>837</ele>
        <time>2017-04-30T09:22:10Z</time>
      </trkpt>
      <trkpt lat="47.80437" lon="7.04569">
        <ele>840</ele>
        <time>2017-04-30T09:22:16Z</time>
      </trkpt>
      <trkpt lat="47.80435" lon="7.04567">
        <ele>840</ele>
        <time>2017-04-30T09:22:17Z</time>
      </trkpt>
      <trkpt lat="47.80431" lon="7.04553">
        <ele>838</ele>
        <time>2017-04-30T09:22:24Z</time>
      </trkpt>
      <trkpt lat="47.80426" lon="7.0454">
        <ele>843</ele>
        <time>2017-04-30T09:22:34Z</time>
      </trkpt>
      <trkpt lat="47.80425" lon="7.04538">
        <ele>843</ele>
        <time>2017-04-30T09:22:35Z</time>
      </trkpt>
      <trkpt lat="47.80423" lon="7.04524">
        <ele>843</ele>
        <time>2017-04-30T09:22:42Z</time>
      </trkpt>
      <trkpt lat="47.80423" lon="7.04522">
        <ele>844</ele>
        <time>2017-04-30T09:22:43Z</time>
      </trkpt>
      <trkpt lat="47.80421" lon="7.04508">
        <ele>840</ele>
        <time>2017-04-30T09:22:55Z</time>
      </trkpt>
      <trkpt lat="47.80421" lon="7.04495">
        <ele>838</ele>
        <time>2017-04-30T09:23:08Z</time>
      </trkpt>
      <trkpt lat="47.80423" lon="7.04485">
        <ele>838</ele>
        <time>2017-04-30T09:23:43Z</time>
      </trkpt>
      <trkpt lat="47.80427" lon="7.04473">
        <ele>832</ele>
        <time>2017-04-30T09:23:59Z</time>
      </trkpt>
      <trkpt lat="47.80436" lon="7.04461">
        <ele>832</ele>
        <time>2017-04-30T09:24:11Z</time>
      </trkpt>
      <trkpt lat="47.80445" lon="7.04454">
        <ele>834</ele>
        <time>2017-04-30T09:24:17Z</time>
      </trkpt>
      <trkpt lat="47.80454" lon="7.04446">
        <ele>831</ele>
        <time>2017-04-30T09:24:27Z</time>
      </trkpt>
      <trkpt lat="47.80462" lon="7.04442">
        <ele>834</ele>
        <time>2017-04-30T09:24:34Z</time>
      </trkpt>
      <trkpt lat="47.8047" lon="7.04435">
        <ele>832</ele>
        <time>2017-04-30T09:24:44Z</time>
      </trkpt>
      <trkpt lat="47.80479" lon="7.0443">
        <ele>828</ele>
        <time>2017-04-30T09:24:54Z</time>
      </trkpt>
      <trkpt lat="47.80484" lon="7.04428">
        <ele>830</ele>
        <time>2017-04-30T09:26:37Z</time>
      </trkpt>
      <trkpt lat="47.80496" lon="7.04423">
        <ele>830</ele>
        <time>2017-04-30T09:26:41Z</time>
      </trkpt>
      <trkpt lat="47.80504" lon="7.04412">
        <ele>829</ele>
        <time>2017-04-30T09:26:44Z</time>
      </trkpt>
      <trkpt lat="47.80512" lon="7.04404">
        <ele>831</ele>
        <time>2017-04-30T09:26:47Z</time>
      </trkpt>
      <trkpt lat="47.80516" lon="7.04392">
        <ele>832</ele>
        <time>2017-04-30T09:26:52Z</time>
      </trkpt>
      <trkpt lat="47.80524" lon="7.04385">
        <ele>832</ele>
        <time>2017-04-30T09:27:01Z</time>
      </trkpt>
      <trkpt lat="47.80531" lon="7.04372">
        <ele>827</ele>
        <time>2017-04-30T09:27:18Z</time>
      </trkpt>
      <trkpt lat="47.8054" lon="7.04369">
        <ele>826</ele>
        <time>2017-04-30T09:27:27Z</time>
      </trkpt>
      <trkpt lat="47.80544" lon="7.04356">
        <ele>827</ele>
        <time>2017-04-30T09:27:33Z</time>
      </trkpt>
      <trkpt lat="47.80551" lon="7.04348">
        <ele>826</ele>
        <time>2017-04-30T09:27:44Z</time>
      </trkpt>
      <trkpt lat="47.8056" lon="7.04342">
        <ele>822</ele>
        <time>2017-04-30T09:27:54Z</time>
      </trkpt>
      <trkpt lat="47.80566" lon="7.04331">
        <ele>820</ele>
        <time>2017-04-30T09:28:05Z</time>
      </trkpt>
      <trkpt lat="47.80576" lon="7.04323">
        <ele>823</ele>
        <time>2017-04-30T09:28:21Z</time>
      </trkpt>
      <trkpt lat="47.80582" lon="7.04313">
        <ele>828</ele>
        <time>2017-04-30T09:28:24Z</time>
      </trkpt>
      <trkpt lat="47.80583" lon="7.04299">
        <ele>826</ele>
        <time>2017-04-30T09:28:30Z</time>
      </trkpt>
      <trkpt lat="47.80592" lon="7.04292">
        <ele>817</ele>
        <time>2017-04-30T09:28:47Z</time>
      </trkpt>
      <trkpt lat="47.80599" lon="7.04283">
        <ele>817</ele>
        <time>2017-04-30T09:28:54Z</time>
      </trkpt>
      <trkpt lat="47.80605" lon="7.0427">
        <ele>815</ele>
        <time>2017-04-30T09:29:01Z</time>
      </trkpt>
      <trkpt lat="47.80613" lon="7.04263">
        <ele>815</ele>
        <time>2017-04-30T09:29:09Z</time>
      </trkpt>
      <trkpt lat="47.80626" lon="7.0426">
        <ele>814</ele>
        <time>2017-04-30T09:29:51Z</time>
      </trkpt>
      <trkpt lat="47.80634" lon="7.04255">
        <ele>813</ele>
        <time>2017-04-30T09:29:54Z</time>
      </trkpt>
      <trkpt lat="47.80643" lon="7.04247">
        <ele>811</ele>
        <time>2017-04-30T09:29:56Z</time>
      </trkpt>
      <trkpt lat="47.80654" lon="7.04244">
        <ele>810</ele>
        <time>2017-04-30T09:30:00Z</time>
      </trkpt>
      <trkpt lat="47.80661" lon="7.04248">
        <ele>808</ele>
        <time>2017-04-30T09:30:10Z</time>
      </trkpt>
      <trkpt lat="47.80661" lon="7.04248">
        <ele>808</ele>
        <time>2017-04-30T09:30:10Z</time>
      </trkpt>
      <trkpt lat="47.80668" lon="7.04234">
        <ele>812</ele>
        <time>2017-04-30T09:35:15Z</time>
      </trkpt>
      <trkpt lat="47.80674" lon="7.04214">
        <ele>803</ele>
        <time>2017-04-30T09:35:16Z</time>
      </trkpt>
      <trkpt lat="47.80674" lon="7.042">
        <ele>803</ele>
        <time>2017-04-30T09:35:21Z</time>
      </trkpt>
      <trkpt lat="47.80679" lon="7.04187">
        <ele>799</ele>
        <time>2017-04-30T09:35:22Z</time>
      </trkpt>
      <trkpt lat="47.80685" lon="7.04174">
        <ele>799</ele>
        <time>2017-04-30T09:35:25Z</time>
      </trkpt>
      <trkpt lat="47.80692" lon="7.04165">
        <ele>801</ele>
        <time>2017-04-30T09:35:27Z</time>
      </trkpt>
      <trkpt lat="47.80703" lon="7.04151">
        <ele>806</ele>
        <time>2017-04-30T09:35:30Z</time>
      </trkpt>
      <trkpt lat="47.80715" lon="7.04135">
        <ele>805</ele>
        <time>2017-04-30T09:35:34Z</time>
      </trkpt>
      <trkpt lat="47.8079" lon="7.04058">
        <ele>805</ele>
        <time>2017-04-30T09:35:55Z</time>
      </trkpt>
      <trkpt lat="47.80797" lon="7.04048">
        <ele>806</ele>
        <time>2017-04-30T09:35:57Z</time>
      </trkpt>
      <trkpt lat="47.8081" lon="7.04025">
        <ele>804</ele>
        <time>2017-04-30T09:35:58Z</time>
      </trkpt>
      <trkpt lat="47.80818" lon="7.04039">
        <ele>827</ele>
        <time>2017-04-30T09:36:04Z</time>
      </trkpt>
      <trkpt lat="47.80827" lon="7.04034">
        <ele>838</ele>
        <time>2017-04-30T09:36:10Z</time>
      </trkpt>
      <trkpt lat="47.80819" lon="7.04042">
        <ele>839</ele>
        <time>2017-04-30T09:36:12Z</time>
      </trkpt>
      <trkpt lat="47.80835" lon="7.04019">
        <ele>826</ele>
        <time>2017-04-30T09:36:55Z</time>
      </trkpt>
      <trkpt lat="47.80837" lon="7.04016">
        <ele>826</ele>
        <time>2017-04-30T09:36:56Z</time>
      </trkpt>
      <trkpt lat="47.8084" lon="7.04002">
        <ele>826</ele>
        <time>2017-04-30T09:37:00Z</time>
      </trkpt>
      <trkpt lat="47.80932" lon="7.03754">
        <ele>861</ele>
        <time>2017-04-30T09:40:48Z</time>
      </trkpt>
      <trkpt lat="47.80932" lon="7.03754">
        <ele>861</ele>
        <time>2017-04-30T09:40:48Z</time>
      </trkpt>
      <trkpt lat="47.80927" lon="7.03767">
        <ele>859</ele>
        <time>2017-04-30T09:40:50Z</time>
      </trkpt>
      <trkpt lat="47.80922" lon="7.03773">
        <ele>859</ele>
        <time>2017-04-30T09:40:51Z</time>
      </trkpt>
      <trkpt lat="47.8093" lon="7.03767">
        <ele>856</ele>
        <time>2017-04-30T09:40:58Z</time>
      </trkpt>
      <trkpt lat="47.80944" lon="7.03761">
        <ele>863</ele>
        <time>2017-04-30T09:42:00Z</time>
      </trkpt>
      <trkpt lat="47.80954" lon="7.03759">
        <ele>866</ele>
        <time>2017-04-30T09:42:03Z</time>
      </trkpt>
      <trkpt lat="47.80965" lon="7.0376">
        <ele>870</ele>
        <time>2017-04-30T09:42:09Z</time>
      </trkpt>
      <trkpt lat="47.80967" lon="7.03763">
        <ele>872</ele>
        <time>2017-04-30T09:42:10Z</time>
      </trkpt>
      <trkpt lat="47.80967" lon="7.0376">
        <ele>875</ele>
        <time>2017-04-30T09:42:11Z</time>
      </trkpt>
      <trkpt lat="47.80969" lon="7.03759">
        <ele>875</ele>
        <time>2017-04-30T09:42:12Z</time>
      </trkpt>
      <trkpt lat="47.80981" lon="7.0376">
        <ele>871</ele>
        <time>2017-04-30T09:42:17Z</time>
      </trkpt>
      <trkpt lat="47.80988" lon="7.03767">
        <ele>875</ele>
        <time>2017-04-30T09:42:20Z</time>
      </trkpt>
      <trkpt lat="47.80997" lon="7.03762">
        <ele>880</ele>
        <time>2017-04-30T09:42:26Z</time>
      </trkpt>
      <trkpt lat="47.80997" lon="7.03762">
        <ele>881</ele>
        <time>2017-04-30T09:42:27Z</time>
      </trkpt>
      <trkpt lat="47.80999" lon="7.03764">
        <ele>880</ele>
        <time>2017-04-30T09:42:28Z</time>
      </trkpt>
      <trkpt lat="47.8101" lon="7.03768">
        <ele>879</ele>
        <time>2017-04-30T09:42:38Z</time>
      </trkpt>
      <trkpt lat="47.81012" lon="7.03758">
        <ele>880</ele>
        <time>2017-04-30T09:42:39Z</time>
      </trkpt>
      <trkpt lat="47.81019" lon="7.03768">
        <ele>888</ele>
        <time>2017-04-30T09:42:49Z</time>
      </trkpt>
      <trkpt lat="47.8102" lon="7.03769">
        <ele>889</ele>
        <time>2017-04-30T09:42:50Z</time>
      </trkpt>
      <trkpt lat="47.81023" lon="7.03767">
        <ele>889</ele>
        <time>2017-04-30T09:42:51Z</time>
      </trkpt>
      <trkpt lat="47.81059" lon="7.03703">
        <ele>877</ele>
        <time>2017-04-30T09:43:48Z</time>
      </trkpt>
      <trkpt lat="47.8107" lon="7.03713">
        <ele>889</ele>
        <time>2017-04-30T09:43:53Z</time>
      </trkpt>
      <trkpt lat="47.81062" lon="7.03698">
        <ele>900</ele>
        <time>2017-04-30T09:44:10Z</time>
      </trkpt>
      <trkpt lat="47.81063" lon="7.03698">
        <ele>899</ele>
        <time>2017-04-30T09:44:11Z</time>
      </trkpt>
      <trkpt lat="47.81072" lon="7.03698">
        <ele>903</ele>
        <time>2017-04-30T09:44:12Z</time>
      </trkpt>
      <trkpt lat="47.81072" lon="7.03684">
        <ele>899</ele>
        <time>2017-04-30T09:44:23Z</time>
      </trkpt>
      <trkpt lat="47.81078" lon="7.03674">
        <ele>903</ele>
        <time>2017-04-30T09:44:30Z</time>
      </trkpt>
      <trkpt lat="47.81089" lon="7.03671">
        <ele>906</ele>
        <time>2017-04-30T09:44:36Z</time>
      </trkpt>
      <trkpt lat="47.81088" lon="7.03668">
        <ele>906</ele>
        <time>2017-04-30T09:44:37Z</time>
      </trkpt>
      <trkpt lat="47.81091" lon="7.03654">
        <ele>910</ele>
        <time>2017-04-30T09:44:46Z</time>
      </trkpt>
      <trkpt lat="47.81099" lon="7.03656">
        <ele>910</ele>
        <time>2017-04-30T09:44:47Z</time>
      </trkpt>
      <trkpt lat="47.81095" lon="7.03644">
        <ele>913</ele>
        <time>2017-04-30T09:44:54Z</time>
      </trkpt>
      <trkpt lat="47.81098" lon="7.03643">
        <ele>913</ele>
        <time>2017-04-30T09:44:55Z</time>
      </trkpt>
      <trkpt lat="47.81094" lon="7.03631">
        <ele>912</ele>
        <time>2017-04-30T09:45:03Z</time>
      </trkpt>
      <trkpt lat="47.81095" lon="7.0363">
        <ele>913</ele>
        <time>2017-04-30T09:45:04Z</time>
      </trkpt>
      <trkpt lat="47.81101" lon="7.03616">
        <ele>911</ele>
        <time>2017-04-30T09:45:17Z</time>
      </trkpt>
      <trkpt lat="47.81115" lon="7.03615">
        <ele>916</ele>
        <time>2017-04-30T09:45:27Z</time>
      </trkpt>
      <trkpt lat="47.81117" lon="7.03611">
        <ele>916</ele>
        <time>2017-04-30T09:45:28Z</time>
      </trkpt>
      <trkpt lat="47.81121" lon="7.03598">
        <ele>914</ele>
        <time>2017-04-30T09:45:45Z</time>
      </trkpt>
      <trkpt lat="47.8112" lon="7.03598">
        <ele>915</ele>
        <time>2017-04-30T09:45:46Z</time>
      </trkpt>
      <trkpt lat="47.81129" lon="7.03593">
        <ele>916</ele>
        <time>2017-04-30T09:46:02Z</time>
      </trkpt>
      <trkpt lat="47.81139" lon="7.0359">
        <ele>921</ele>
        <time>2017-04-30T09:46:15Z</time>
      </trkpt>
      <trkpt lat="47.81136" lon="7.0359">
        <ele>921</ele>
        <time>2017-04-30T09:46:16Z</time>
      </trkpt>
      <trkpt lat="47.81144" lon="7.03581">
        <ele>915</ele>
        <time>2017-04-30T09:46:28Z</time>
      </trkpt>
      <trkpt lat="47.81142" lon="7.03566">
        <ele>914</ele>
        <time>2017-04-30T09:46:40Z</time>
      </trkpt>
      <trkpt lat="47.81146" lon="7.03552">
        <ele>913</ele>
        <time>2017-04-30T09:46:50Z</time>
      </trkpt>
      <trkpt lat="47.81155" lon="7.03548">
        <ele>914</ele>
        <time>2017-04-30T09:46:55Z</time>
      </trkpt>
      <trkpt lat="47.8115" lon="7.03534">
        <ele>915</ele>
        <time>2017-04-30T09:47:06Z</time>
      </trkpt>
      <trkpt lat="47.81146" lon="7.0352">
        <ele>916</ele>
        <time>2017-04-30T09:47:19Z</time>
      </trkpt>
      <trkpt lat="47.81154" lon="7.03514">
        <ele>913</ele>
        <time>2017-04-30T09:47:29Z</time>
      </trkpt>
      <trkpt lat="47.81159" lon="7.03501">
        <ele>915</ele>
        <time>2017-04-30T09:47:38Z</time>
      </trkpt>
      <trkpt lat="47.81157" lon="7.03488">
        <ele>911</ele>
        <time>2017-04-30T09:47:45Z</time>
      </trkpt>
      <trkpt lat="47.81158" lon="7.03473">
        <ele>911</ele>
        <time>2017-04-30T09:47:54Z</time>
      </trkpt>
      <trkpt lat="47.81156" lon="7.03458">
        <ele>909</ele>
        <time>2017-04-30T09:48:02Z</time>
      </trkpt>
      <trkpt lat="47.81162" lon="7.03448">
        <ele>908</ele>
        <time>2017-04-30T09:48:09Z</time>
      </trkpt>
      <trkpt lat="47.8117" lon="7.0344">
        <ele>907</ele>
        <time>2017-04-30T09:48:19Z</time>
      </trkpt>
      <trkpt lat="47.81169" lon="7.03423">
        <ele>913</ele>
        <time>2017-04-30T09:48:27Z</time>
      </trkpt>
      <trkpt lat="47.81171" lon="7.03408">
        <ele>916</ele>
        <time>2017-04-30T09:48:35Z</time>
      </trkpt>
      <trkpt lat="47.8117" lon="7.03394">
        <ele>916</ele>
        <time>2017-04-30T09:48:41Z</time>
      </trkpt>
      <trkpt lat="47.81178" lon="7.03399">
        <ele>918</ele>
        <time>2017-04-30T09:48:42Z</time>
      </trkpt>
      <trkpt lat="47.81178" lon="7.03385">
        <ele>922</ele>
        <time>2017-04-30T09:48:56Z</time>
      </trkpt>
      <trkpt lat="47.81176" lon="7.03383">
        <ele>922</ele>
        <time>2017-04-30T09:48:57Z</time>
      </trkpt>
      <trkpt lat="47.81168" lon="7.03373">
        <ele>922</ele>
        <time>2017-04-30T09:49:01Z</time>
      </trkpt>
      <trkpt lat="47.81176" lon="7.03366">
        <ele>924</ele>
        <time>2017-04-30T09:49:07Z</time>
      </trkpt>
      <trkpt lat="47.81168" lon="7.03359">
        <ele>922</ele>
        <time>2017-04-30T09:49:12Z</time>
      </trkpt>
      <trkpt lat="47.81167" lon="7.03356">
        <ele>920</ele>
        <time>2017-04-30T09:49:13Z</time>
      </trkpt>
      <trkpt lat="47.81165" lon="7.0334">
        <ele>919</ele>
        <time>2017-04-30T09:49:37Z</time>
      </trkpt>
      <trkpt lat="47.81165" lon="7.03345">
        <ele>914</ele>
        <time>2017-04-30T09:49:53Z</time>
      </trkpt>
      <trkpt lat="47.81165" lon="7.03342">
        <ele>915</ele>
        <time>2017-04-30T09:51:40Z</time>
      </trkpt>
      <trkpt lat="47.81167" lon="7.03337">
        <ele>915</ele>
        <time>2017-04-30T09:55:36Z</time>
      </trkpt>
      <trkpt lat="47.8117" lon="7.03324">
        <ele>915</ele>
        <time>2017-04-30T09:55:44Z</time>
      </trkpt>
      <trkpt lat="47.81171" lon="7.0331">
        <ele>921</ele>
        <time>2017-04-30T09:55:50Z</time>
      </trkpt>
      <trkpt lat="47.81178" lon="7.03298">
        <ele>922</ele>
        <time>2017-04-30T09:56:02Z</time>
      </trkpt>
      <trkpt lat="47.81189" lon="7.03293">
        <ele>924</ele>
        <time>2017-04-30T09:56:40Z</time>
      </trkpt>
      <trkpt lat="47.81194" lon="7.0329">
        <ele>922</ele>
        <time>2017-04-30T09:56:43Z</time>
      </trkpt>
      <trkpt lat="47.81194" lon="7.0329">
        <ele>922</ele>
        <time>2017-04-30T09:56:43Z</time>
      </trkpt>
      <trkpt lat="47.8121" lon="7.03282">
        <ele>924</ele>
        <time>2017-04-30T09:57:13Z</time>
      </trkpt>
      <trkpt lat="47.81219" lon="7.03277">
        <ele>927</ele>
        <time>2017-04-30T09:57:25Z</time>
      </trkpt>
      <trkpt lat="47.81218" lon="7.03276">
        <ele>926</ele>
        <time>2017-04-30T09:57:26Z</time>
      </trkpt>
      <trkpt lat="47.81228" lon="7.03273">
        <ele>930</ele>
        <time>2017-04-30T09:57:37Z</time>
      </trkpt>
      <trkpt lat="47.81235" lon="7.03273">
        <ele>932</ele>
        <time>2017-04-30T09:57:58Z</time>
      </trkpt>
      <trkpt lat="47.81238" lon="7.03274">
        <ele>930</ele>
        <time>2017-04-30T09:57:59Z</time>
      </trkpt>
      <trkpt lat="47.81248" lon="7.03277">
        <ele>926</ele>
        <time>2017-04-30T09:58:04Z</time>
      </trkpt>
      <trkpt lat="47.81261" lon="7.0327">
        <ele>931</ele>
        <time>2017-04-30T09:58:27Z</time>
      </trkpt>
      <trkpt lat="47.8127" lon="7.03273">
        <ele>925</ele>
        <time>2017-04-30T09:58:32Z</time>
      </trkpt>
      <trkpt lat="47.81287" lon="7.03275">
        <ele>932</ele>
        <time>2017-04-30T09:59:16Z</time>
      </trkpt>
      <trkpt lat="47.81296" lon="7.03279">
        <ele>931</ele>
        <time>2017-04-30T09:59:20Z</time>
      </trkpt>
      <trkpt lat="47.81304" lon="7.03283">
        <ele>933</ele>
        <time>2017-04-30T09:59:53Z</time>
      </trkpt>
      <trkpt lat="47.81304" lon="7.03285">
        <ele>934</ele>
        <time>2017-04-30T09:59:56Z</time>
      </trkpt>
      <trkpt lat="47.81304" lon="7.03285">
        <ele>934</ele>
        <time>2017-04-30T09:59:56Z</time>
      </trkpt>
      <trkpt lat="47.81322" lon="7.03299">
        <ele>939</ele>
        <time>2017-04-30T10:00:21Z</time>
      </trkpt>
      <trkpt lat="47.81322" lon="7.03299">
        <ele>939</ele>
        <time>2017-04-30T10:00:22Z</time>
      </trkpt>
      <trkpt lat="47.81329" lon="7.0331">
        <ele>940</ele>
        <time>2017-04-30T10:00:27Z</time>
      </trkpt>
      <trkpt lat="47.81331" lon="7.03311">
        <ele>940</ele>
        <time>2017-04-30T10:00:28Z</time>
      </trkpt>
      <trkpt lat="47.8134" lon="7.03318">
        <ele>941</ele>
        <time>2017-04-30T10:00:33Z</time>
      </trkpt>
      <trkpt lat="47.81352" lon="7.0332">
        <ele>946</ele>
        <time>2017-04-30T10:00:37Z</time>
      </trkpt>
      <trkpt lat="47.81357" lon="7.03319">
        <ele>944</ele>
        <time>2017-04-30T10:00:38Z</time>
      </trkpt>
      <trkpt lat="47.81359" lon="7.03327">
        <ele>955</ele>
        <time>2017-04-30T10:01:17Z</time>
      </trkpt>
      <trkpt lat="47.81364" lon="7.03339">
        <ele>958</ele>
        <time>2017-04-30T10:01:20Z</time>
      </trkpt>
      <trkpt lat="47.81363" lon="7.03336">
        <ele>960</ele>
        <time>2017-04-30T10:01:21Z</time>
      </trkpt>
      <trkpt lat="47.81369" lon="7.03335">
        <ele>961</ele>
        <time>2017-04-30T10:01:22Z</time>
      </trkpt>
      <trkpt lat="47.81372" lon="7.03337">
        <ele>962</ele>
        <time>2017-04-30T10:01:23Z</time>
      </trkpt>
      <trkpt lat="47.81371" lon="7.03337">
        <ele>964</ele>
        <time>2017-04-30T10:01:24Z</time>
      </trkpt>
      <trkpt lat="47.81374" lon="7.03337">
        <ele>965</ele>
        <time>2017-04-30T10:01:25Z</time>
      </trkpt>
      <trkpt lat="47.81375" lon="7.03336">
        <ele>965</ele>
        <time>2017-04-30T10:01:26Z</time>
      </trkpt>
      <trkpt lat="47.81385" lon="7.03352">
        <ele>970</ele>
        <time>2017-04-30T10:02:01Z</time>
      </trkpt>
      <trkpt lat="47.81386" lon="7.03354">
        <ele>968</ele>
        <time>2017-04-30T10:02:02Z</time>
      </trkpt>
      <trkpt lat="47.81396" lon="7.03365">
        <ele>967</ele>
        <time>2017-04-30T10:02:09Z</time>
      </trkpt>
      <trkpt lat="47.81399" lon="7.03367">
        <ele>967</ele>
        <time>2017-04-30T10:02:10Z</time>
      </trkpt>
      <trkpt lat="47.81408" lon="7.03364">
        <ele>970</ele>
        <time>2017-04-30T10:02:21Z</time>
      </trkpt>
      <trkpt lat="47.81409" lon="7.03365">
        <ele>970</ele>
        <time>2017-04-30T10:02:22Z</time>
      </trkpt>
      <trkpt lat="47.81418" lon="7.03362">
        <ele>972</ele>
        <time>2017-04-30T10:02:25Z</time>
      </trkpt>
      <trkpt lat="47.81424" lon="7.03359">
        <ele>975</ele>
        <time>2017-04-30T10:03:08Z</time>
      </trkpt>
      <trkpt lat="47.81427" lon="7.03359">
        <ele>975</ele>
        <time>2017-04-30T10:03:09Z</time>
      </trkpt>
      <trkpt lat="47.8144" lon="7.03359">
        <ele>965</ele>
        <time>2017-04-30T10:03:37Z</time>
      </trkpt>
      <trkpt lat="47.81451" lon="7.03355">
        <ele>966</ele>
        <time>2017-04-30T10:03:42Z</time>
      </trkpt>
      <trkpt lat="47.8147" lon="7.03356">
        <ele>977</ele>
        <time>2017-04-30T10:04:07Z</time>
      </trkpt>
      <trkpt lat="47.81471" lon="7.03356">
        <ele>977</ele>
        <time>2017-04-30T10:04:08Z</time>
      </trkpt>
      <trkpt lat="47.8148" lon="7.03352">
        <ele>973</ele>
        <time>2017-04-30T10:04:14Z</time>
      </trkpt>
      <trkpt lat="47.81493" lon="7.03354">
        <ele>971</ele>
        <time>2017-04-30T10:04:23Z</time>
      </trkpt>
      <trkpt lat="47.81503" lon="7.03354">
        <ele>969</ele>
        <time>2017-04-30T10:04:28Z</time>
      </trkpt>
      <trkpt lat="47.81511" lon="7.0335">
        <ele>980</ele>
        <time>2017-04-30T10:04:39Z</time>
      </trkpt>
      <trkpt lat="47.81511" lon="7.0335">
        <ele>980</ele>
        <time>2017-04-30T10:04:39Z</time>
      </trkpt>
      <trkpt lat="47.81511" lon="7.0335">
        <ele>980</ele>
        <time>2017-04-30T10:04:39Z</time>
      </trkpt>
      <trkpt lat="47.81524" lon="7.03354">
        <ele>976</ele>
        <time>2017-04-30T10:04:48Z</time>
      </trkpt>
      <trkpt lat="47.81534" lon="7.03355">
        <ele>977</ele>
        <time>2017-04-30T10:04:55Z</time>
      </trkpt>
      <trkpt lat="47.81545" lon="7.03354">
        <ele>974</ele>
        <time>2017-04-30T10:05:04Z</time>
      </trkpt>
      <trkpt lat="47.81554" lon="7.03352">
        <ele>976</ele>
        <time>2017-04-30T10:05:15Z</time>
      </trkpt>
      <trkpt lat="47.81566" lon="7.03353">
        <ele>977</ele>
        <time>2017-04-30T10:05:23Z</time>
      </trkpt>
      <trkpt lat="47.81575" lon="7.03347">
        <ele>979</ele>
        <time>2017-04-30T10:05:35Z</time>
      </trkpt>
      <trkpt lat="47.81581" lon="7.03337">
        <ele>984</ele>
        <time>2017-04-30T10:05:51Z</time>
      </trkpt>
      <trkpt lat="47.81582" lon="7.03334">
        <ele>984</ele>
        <time>2017-04-30T10:05:52Z</time>
      </trkpt>
      <trkpt lat="47.81578" lon="7.03331">
        <ele>985</ele>
        <time>2017-04-30T10:06:07Z</time>
      </trkpt>
      <trkpt lat="47.81578" lon="7.03331">
        <ele>985</ele>
        <time>2017-04-30T10:06:07Z</time>
      </trkpt>
      <trkpt lat="47.81595" lon="7.0332">
        <ele>983</ele>
        <time>2017-04-30T10:06:13Z</time>
      </trkpt>
      <trkpt lat="47.81604" lon="7.03316">
        <ele>984</ele>
        <time>2017-04-30T10:06:21Z</time>
      </trkpt>
      <trkpt lat="47.81614" lon="7.03312">
        <ele>988</ele>
        <time>2017-04-30T10:06:42Z</time>
      </trkpt>
      <trkpt lat="47.81613" lon="7.03312">
        <ele>988</ele>
        <time>2017-04-30T10:06:43Z</time>
      </trkpt>
      <trkpt lat="47.81625" lon="7.03315">
        <ele>994</ele>
        <time>2017-04-30T10:07:27Z</time>
      </trkpt>
      <trkpt lat="47.81626" lon="7.03315">
        <ele>994</ele>
        <time>2017-04-30T10:07:28Z</time>
      </trkpt>
      <trkpt lat="47.81636" lon="7.03316">
        <ele>993</ele>
        <time>2017-04-30T10:07:35Z</time>
      </trkpt>
      <trkpt lat="47.81637" lon="7.03317">
        <ele>994</ele>
        <time>2017-04-30T10:07:36Z</time>
      </trkpt>
      <trkpt lat="47.8164" lon="7.03319">
        <ele>990</ele>
        <time>2017-04-30T10:07:44Z</time>
      </trkpt>
      <trkpt lat="47.8164" lon="7.03319">
        <ele>990</ele>
        <time>2017-04-30T10:07:44Z</time>
      </trkpt>
      <trkpt lat="47.81656" lon="7.03321">
        <ele>991</ele>
        <time>2017-04-30T10:09:01Z</time>
      </trkpt>
      <trkpt lat="47.81675" lon="7.0332">
        <ele>1004</ele>
        <time>2017-04-30T10:09:23Z</time>
      </trkpt>
      <trkpt lat="47.81678" lon="7.03322">
        <ele>1005</ele>
        <time>2017-04-30T10:09:24Z</time>
      </trkpt>
      <trkpt lat="47.8168" lon="7.03324">
        <ele>1007</ele>
        <time>2017-04-30T10:09:25Z</time>
      </trkpt>
      <trkpt lat="47.81683" lon="7.03325">
        <ele>1007</ele>
        <time>2017-04-30T10:09:26Z</time>
      </trkpt>
      <trkpt lat="47.81695" lon="7.03329">
        <ele>1015</ele>
        <time>2017-04-30T10:09:31Z</time>
      </trkpt>
      <trkpt lat="47.81696" lon="7.03328">
        <ele>1015</ele>
        <time>2017-04-30T10:09:32Z</time>
      </trkpt>
      <trkpt lat="47.81706" lon="7.03329">
        <ele>1013</ele>
        <time>2017-04-30T10:09:51Z</time>
      </trkpt>
      <trkpt lat="47.81706" lon="7.03328">
        <ele>1013</ele>
        <time>2017-04-30T10:09:52Z</time>
      </trkpt>
      <trkpt lat="47.81715" lon="7.03332">
        <ele>1013</ele>
        <time>2017-04-30T10:09:57Z</time>
      </trkpt>
      <trkpt lat="47.81723" lon="7.03337">
        <ele>1014</ele>
        <time>2017-04-30T10:10:06Z</time>
      </trkpt>
      <trkpt lat="47.81733" lon="7.03336">
        <ele>1018</ele>
        <time>2017-04-30T10:10:14Z</time>
      </trkpt>
      <trkpt lat="47.81735" lon="7.03338">
        <ele>1016</ele>
        <time>2017-04-30T10:10:15Z</time>
      </trkpt>
      <trkpt lat="47.81743" lon="7.03342">
        <ele>1017</ele>
        <time>2017-04-30T10:10:25Z</time>
      </trkpt>
      <trkpt lat="47.81751" lon="7.03351">
        <ele>1020</ele>
        <time>2017-04-30T10:10:34Z</time>
      </trkpt>
      <trkpt lat="47.81755" lon="7.0335">
        <ele>1023</ele>
        <time>2017-04-30T10:10:35Z</time>
      </trkpt>
      <trkpt lat="47.81756" lon="7.0335">
        <ele>1023</ele>
        <time>2017-04-30T10:10:36Z</time>
      </trkpt>
      <trkpt lat="47.81765" lon="7.03351">
        <ele>1020</ele>
        <time>2017-04-30T10:10:45Z</time>
      </trkpt>
      <trkpt lat="47.81775" lon="7.03355">
        <ele>1016</ele>
        <time>2017-04-30T10:10:58Z</time>
      </trkpt>
      <trkpt lat="47.81783" lon="7.03363">
        <ele>1019</ele>
        <time>2017-04-30T10:11:13Z</time>
      </trkpt>
      <trkpt lat="47.81781" lon="7.03383">
        <ele>1027</ele>
        <time>2017-04-30T10:12:59Z</time>
      </trkpt>
      <trkpt lat="47.81783" lon="7.03381">
        <ele>1024</ele>
        <time>2017-04-30T10:13:00Z</time>
      </trkpt>
      <trkpt lat="47.81794" lon="7.03386">
        <ele>1025</ele>
        <time>2017-04-30T10:13:04Z</time>
      </trkpt>
      <trkpt lat="47.81802" lon="7.03396">
        <ele>1026</ele>
        <time>2017-04-30T10:13:07Z</time>
      </trkpt>
      <trkpt lat="47.81811" lon="7.03397">
        <ele>1025</ele>
        <time>2017-04-30T10:13:15Z</time>
      </trkpt>
      <trkpt lat="47.8182" lon="7.03404">
        <ele>1026</ele>
        <time>2017-04-30T10:13:23Z</time>
      </trkpt>
      <trkpt lat="47.8182" lon="7.03405">
        <ele>1026</ele>
        <time>2017-04-30T10:13:24Z</time>
      </trkpt>
      <trkpt lat="47.81831" lon="7.03409">
        <ele>1032</ele>
        <time>2017-04-30T10:13:33Z</time>
      </trkpt>
      <trkpt lat="47.81834" lon="7.03405">
        <ele>1034</ele>
        <time>2017-04-30T10:13:34Z</time>
      </trkpt>
      <trkpt lat="47.81834" lon="7.03406">
        <ele>1036</ele>
        <time>2017-04-30T10:13:35Z</time>
      </trkpt>
      <trkpt lat="47.81836" lon="7.03406">
        <ele>1036</ele>
        <time>2017-04-30T10:13:36Z</time>
      </trkpt>
      <trkpt lat="47.81842" lon="7.03416">
        <ele>1034</ele>
        <time>2017-04-30T10:13:51Z</time>
      </trkpt>
      <trkpt lat="47.81842" lon="7.03417">
        <ele>1033</ele>
        <time>2017-04-30T10:13:52Z</time>
      </trkpt>
      <trkpt lat="47.81849" lon="7.03426">
        <ele>1045</ele>
        <time>2017-04-30T10:14:13Z</time>
      </trkpt>
      <trkpt lat="47.8185" lon="7.03426">
        <ele>1047</ele>
        <time>2017-04-30T10:14:14Z</time>
      </trkpt>
      <trkpt lat="47.8185" lon="7.03428">
        <ele>1048</ele>
        <time>2017-04-30T10:14:15Z</time>
      </trkpt>
      <trkpt lat="47.81852" lon="7.03429">
        <ele>1048</ele>
        <time>2017-04-30T10:14:16Z</time>
      </trkpt>
      <trkpt lat="47.81862" lon="7.03426">
        <ele>1048</ele>
        <time>2017-04-30T10:14:27Z</time>
      </trkpt>
      <trkpt lat="47.81863" lon="7.03427">
        <ele>1049</ele>
        <time>2017-04-30T10:14:28Z</time>
      </trkpt>
      <trkpt lat="47.81863" lon="7.03424">
        <ele>1051</ele>
        <time>2017-04-30T10:15:07Z</time>
      </trkpt>
      <trkpt lat="47.81874" lon="7.03421">
        <ele>1049</ele>
        <time>2017-04-30T10:15:10Z</time>
      </trkpt>
      <trkpt lat="47.81883" lon="7.0342">
        <ele>1049</ele>
        <time>2017-04-30T10:15:13Z</time>
      </trkpt>
      <trkpt lat="47.81893" lon="7.03417">
        <ele>1053</ele>
        <time>2017-04-30T10:15:17Z</time>
      </trkpt>
      <trkpt lat="47.81894" lon="7.03413">
        <ele>1052</ele>
        <time>2017-04-30T10:15:18Z</time>
      </trkpt>
      <trkpt lat="47.81902" lon="7.03405">
        <ele>1054</ele>
        <time>2017-04-30T10:15:28Z</time>
      </trkpt>
      <trkpt lat="47.81902" lon="7.03401">
        <ele>1052</ele>
        <time>2017-04-30T10:15:29Z</time>
      </trkpt>
      <trkpt lat="47.81911" lon="7.03393">
        <ele>1050</ele>
        <time>2017-04-30T10:15:38Z</time>
      </trkpt>
      <trkpt lat="47.8192" lon="7.0339">
        <ele>1049</ele>
        <time>2017-04-30T10:15:46Z</time>
      </trkpt>
      <trkpt lat="47.81927" lon="7.03379">
        <ele>1053</ele>
        <time>2017-04-30T10:15:57Z</time>
      </trkpt>
      <trkpt lat="47.81936" lon="7.03375">
        <ele>1055</ele>
        <time>2017-04-30T10:16:04Z</time>
      </trkpt>
      <trkpt lat="47.81937" lon="7.03374">
        <ele>1055</ele>
        <time>2017-04-30T10:16:05Z</time>
      </trkpt>
      <trkpt lat="47.81947" lon="7.03373">
        <ele>1060</ele>
        <time>2017-04-30T10:16:14Z</time>
      </trkpt>
      <trkpt lat="47.81947" lon="7.03373">
        <ele>1060</ele>
        <time>2017-04-30T10:16:15Z</time>
      </trkpt>
      <trkpt lat="47.81955" lon="7.03363">
        <ele>1060</ele>
        <time>2017-04-30T10:16:23Z</time>
      </trkpt>
      <trkpt lat="47.81956" lon="7.03364">
        <ele>1060</ele>
        <time>2017-04-30T10:16:24Z</time>
      </trkpt>
      <trkpt lat="47.81964" lon="7.03358">
        <ele>1059</ele>
        <time>2017-04-30T10:16:34Z</time>
      </trkpt>
      <trkpt lat="47.81964" lon="7.03356">
        <ele>1058</ele>
        <time>2017-04-30T10:16:35Z</time>
      </trkpt>
      <trkpt lat="47.81971" lon="7.03345">
        <ele>1063</ele>
        <time>2017-04-30T10:16:45Z</time>
      </trkpt>
      <trkpt lat="47.81982" lon="7.03339">
        <ele>1063</ele>
        <time>2017-04-30T10:16:53Z</time>
      </trkpt>
      <trkpt lat="47.81985" lon="7.03337">
        <ele>1062</ele>
        <time>2017-04-30T10:16:54Z</time>
      </trkpt>
      <trkpt lat="47.81993" lon="7.0333">
        <ele>1061</ele>
        <time>2017-04-30T10:17:04Z</time>
      </trkpt>
      <trkpt lat="47.82" lon="7.0332">
        <ele>1062</ele>
        <time>2017-04-30T10:17:15Z</time>
      </trkpt>
      <trkpt lat="47.8201" lon="7.03313">
        <ele>1065</ele>
        <time>2017-04-30T10:17:24Z</time>
      </trkpt>
      <trkpt lat="47.82014" lon="7.033">
        <ele>1068</ele>
        <time>2017-04-30T10:17:38Z</time>
      </trkpt>
      <trkpt lat="47.82015" lon="7.03298">
        <ele>1068</ele>
        <time>2017-04-30T10:17:40Z</time>
      </trkpt>
      <trkpt lat="47.82019" lon="7.03288">
        <ele>1070</ele>
        <time>2017-04-30T10:18:14Z</time>
      </trkpt>
      <trkpt lat="47.82019" lon="7.03288">
        <ele>1070</ele>
        <time>2017-04-30T10:18:15Z</time>
      </trkpt>
      <trkpt lat="47.82023" lon="7.03275">
        <ele>1072</ele>
        <time>2017-04-30T10:18:22Z</time>
      </trkpt>
      <trkpt lat="47.82024" lon="7.03273">
        <ele>1072</ele>
        <time>2017-04-30T10:18:23Z</time>
      </trkpt>
      <trkpt lat="47.82026" lon="7.03259">
        <ele>1072</ele>
        <time>2017-04-30T10:18:31Z</time>
      </trkpt>
      <trkpt lat="47.82032" lon="7.03248">
        <ele>1073</ele>
        <time>2017-04-30T10:18:45Z</time>
      </trkpt>
      <trkpt lat="47.82032" lon="7.03248">
        <ele>1073</ele>
        <time>2017-04-30T10:18:46Z</time>
      </trkpt>
      <trkpt lat="47.82035" lon="7.03235">
        <ele>1073</ele>
        <time>2017-04-30T10:18:54Z</time>
      </trkpt>
      <trkpt lat="47.82035" lon="7.03233">
        <ele>1073</ele>
        <time>2017-04-30T10:18:55Z</time>
      </trkpt>
      <trkpt lat="47.82039" lon="7.03218">
        <ele>1074</ele>
        <time>2017-04-30T10:19:03Z</time>
      </trkpt>
      <trkpt lat="47.82044" lon="7.03204">
        <ele>1075</ele>
        <time>2017-04-30T10:19:13Z</time>
      </trkpt>
      <trkpt lat="47.82044" lon="7.03203">
        <ele>1075</ele>
        <time>2017-04-30T10:19:14Z</time>
      </trkpt>
      <trkpt lat="47.8205" lon="7.03189">
        <ele>1079</ele>
        <time>2017-04-30T10:19:24Z</time>
      </trkpt>
      <trkpt lat="47.8205" lon="7.03188">
        <ele>1080</ele>
        <time>2017-04-30T10:19:25Z</time>
      </trkpt>
      <trkpt lat="47.8205" lon="7.03187">
        <ele>1079</ele>
        <time>2017-04-30T10:19:26Z</time>
      </trkpt>
      <trkpt lat="47.82058" lon="7.03177">
        <ele>1077</ele>
        <time>2017-04-30T10:19:40Z</time>
      </trkpt>
      <trkpt lat="47.82063" lon="7.03165">
        <ele>1078</ele>
        <time>2017-04-30T10:19:53Z</time>
      </trkpt>
      <trkpt lat="47.82072" lon="7.03156">
        <ele>1077</ele>
        <time>2017-04-30T10:20:09Z</time>
      </trkpt>
      <trkpt lat="47.82077" lon="7.03146">
        <ele>1077</ele>
        <time>2017-04-30T10:20:17Z</time>
      </trkpt>
      <trkpt lat="47.82085" lon="7.03137">
        <ele>1079</ele>
        <time>2017-04-30T10:20:26Z</time>
      </trkpt>
      <trkpt lat="47.82091" lon="7.03125">
        <ele>1080</ele>
        <time>2017-04-30T10:20:36Z</time>
      </trkpt>
      <trkpt lat="47.82097" lon="7.03115">
        <ele>1080</ele>
        <time>2017-04-30T10:20:48Z</time>
      </trkpt>
      <trkpt lat="47.82104" lon="7.03105">
        <ele>1081</ele>
        <time>2017-04-30T10:20:59Z</time>
      </trkpt>
      <trkpt lat="47.82106" lon="7.03104">
        <ele>1081</ele>
        <time>2017-04-30T10:21:00Z</time>
      </trkpt>
      <trkpt lat="47.82113" lon="7.03095">
        <ele>1082</ele>
        <time>2017-04-30T10:21:08Z</time>
      </trkpt>
      <trkpt lat="47.82112" lon="7.03094">
        <ele>1081</ele>
        <time>2017-04-30T10:21:09Z</time>
      </trkpt>
      <trkpt lat="47.82121" lon="7.03088">
        <ele>1084</ele>
        <time>2017-04-30T10:21:26Z</time>
      </trkpt>
      <trkpt lat="47.82124" lon="7.03087">
        <ele>1084</ele>
        <time>2017-04-30T10:21:28Z</time>
      </trkpt>
      <trkpt lat="47.82133" lon="7.03083">
        <ele>1085</ele>
        <time>2017-04-30T10:21:36Z</time>
      </trkpt>
      <trkpt lat="47.82134" lon="7.03082">
        <ele>1084</ele>
        <time>2017-04-30T10:21:37Z</time>
      </trkpt>
      <trkpt lat="47.82144" lon="7.0308">
        <ele>1086</ele>
        <time>2017-04-30T10:21:49Z</time>
      </trkpt>
      <trkpt lat="47.82153" lon="7.03079">
        <ele>1085</ele>
        <time>2017-04-30T10:22:00Z</time>
      </trkpt>
      <trkpt lat="47.82154" lon="7.03079">
        <ele>1085</ele>
        <time>2017-04-30T10:22:01Z</time>
      </trkpt>
      <trkpt lat="47.82164" lon="7.03081">
        <ele>1092</ele>
        <time>2017-04-30T10:22:09Z</time>
      </trkpt>
      <trkpt lat="47.82165" lon="7.03081">
        <ele>1092</ele>
        <time>2017-04-30T10:22:10Z</time>
      </trkpt>
      <trkpt lat="47.82185" lon="7.03069">
        <ele>1088</ele>
        <time>2017-04-30T11:35:29Z</time>
      </trkpt>
      <trkpt lat="47.8219" lon="7.03081">
        <ele>1087</ele>
        <time>2017-04-30T11:35:38Z</time>
      </trkpt>
      <trkpt lat="47.82195" lon="7.03063">
        <ele>1081</ele>
        <time>2017-04-30T11:35:47Z</time>
      </trkpt>
      <trkpt lat="47.82203" lon="7.03057">
        <ele>1081</ele>
        <time>2017-04-30T11:35:56Z</time>
      </trkpt>
      <trkpt lat="47.82207" lon="7.03054">
        <ele>1086</ele>
        <time>2017-04-30T11:36:15Z</time>
      </trkpt>
      <trkpt lat="47.82217" lon="7.03052">
        <ele>1083</ele>
        <time>2017-04-30T11:36:25Z</time>
      </trkpt>
      <trkpt lat="47.82226" lon="7.03049">
        <ele>1086</ele>
        <time>2017-04-30T11:36:38Z</time>
      </trkpt>
      <trkpt lat="47.82235" lon="7.03047">
        <ele>1088</ele>
        <time>2017-04-30T11:36:47Z</time>
      </trkpt>
      <trkpt lat="47.82245" lon="7.03044">
        <ele>1086</ele>
        <time>2017-04-30T11:36:56Z</time>
      </trkpt>
      <trkpt lat="47.82254" lon="7.03043">
        <ele>1086</ele>
        <time>2017-04-30T11:37:05Z</time>
      </trkpt>
      <trkpt lat="47.82263" lon="7.0304">
        <ele>1085</ele>
        <time>2017-04-30T11:37:11Z</time>
      </trkpt>
      <trkpt lat="47.82273" lon="7.03037">
        <ele>1084</ele>
        <time>2017-04-30T11:37:19Z</time>
      </trkpt>
      <trkpt lat="47.82283" lon="7.03036">
        <ele>1084</ele>
        <time>2017-04-30T11:37:28Z</time>
      </trkpt>
      <trkpt lat="47.82292" lon="7.03035">
        <ele>1087</ele>
        <time>2017-04-30T11:37:35Z</time>
      </trkpt>
      <trkpt lat="47.82301" lon="7.0303">
        <ele>1090</ele>
        <time>2017-04-30T11:37:46Z</time>
      </trkpt>
      <trkpt lat="47.82312" lon="7.03028">
        <ele>1091</ele>
        <time>2017-04-30T11:37:59Z</time>
      </trkpt>
      <trkpt lat="47.82321" lon="7.03026">
        <ele>1091</ele>
        <time>2017-04-30T11:38:08Z</time>
      </trkpt>
      <trkpt lat="47.82332" lon="7.03025">
        <ele>1089</ele>
        <time>2017-04-30T11:38:19Z</time>
      </trkpt>
      <trkpt lat="47.8234" lon="7.03032">
        <ele>1094</ele>
        <time>2017-04-30T11:38:28Z</time>
      </trkpt>
      <trkpt lat="47.8234" lon="7.03032">
        <ele>1094</ele>
        <time>2017-04-30T11:38:29Z</time>
      </trkpt>
      <trkpt lat="47.8235" lon="7.03033">
        <ele>1096</ele>
        <time>2017-04-30T11:38:38Z</time>
      </trkpt>
      <trkpt lat="47.82351" lon="7.03033">
        <ele>1097</ele>
        <time>2017-04-30T11:38:39Z</time>
      </trkpt>
      <trkpt lat="47.8236" lon="7.03034">
        <ele>1100</ele>
        <time>2017-04-30T11:38:53Z</time>
      </trkpt>
      <trkpt lat="47.8236" lon="7.03035">
        <ele>1101</ele>
        <time>2017-04-30T11:38:54Z</time>
      </trkpt>
      <trkpt lat="47.82361" lon="7.03036">
        <ele>1100</ele>
        <time>2017-04-30T11:38:55Z</time>
      </trkpt>
      <trkpt lat="47.8237" lon="7.03035">
        <ele>1104</ele>
        <time>2017-04-30T11:39:04Z</time>
      </trkpt>
      <trkpt lat="47.82372" lon="7.03036">
        <ele>1105</ele>
        <time>2017-04-30T11:39:05Z</time>
      </trkpt>
      <trkpt lat="47.82373" lon="7.03036">
        <ele>1104</ele>
        <time>2017-04-30T11:39:06Z</time>
      </trkpt>
      <trkpt lat="47.82381" lon="7.03043">
        <ele>1105</ele>
        <time>2017-04-30T11:39:27Z</time>
      </trkpt>
      <trkpt lat="47.82387" lon="7.03054">
        <ele>1104</ele>
        <time>2017-04-30T11:39:41Z</time>
      </trkpt>
      <trkpt lat="47.82387" lon="7.03055">
        <ele>1104</ele>
        <time>2017-04-30T11:39:42Z</time>
      </trkpt>
      <trkpt lat="47.82397" lon="7.03056">
        <ele>1104</ele>
        <time>2017-04-30T11:40:00Z</time>
      </trkpt>
      <trkpt lat="47.82405" lon="7.03057">
        <ele>1108</ele>
        <time>2017-04-30T11:40:33Z</time>
      </trkpt>
      <trkpt lat="47.82407" lon="7.03059">
        <ele>1108</ele>
        <time>2017-04-30T11:40:34Z</time>
      </trkpt>
      <trkpt lat="47.82417" lon="7.03063">
        <ele>1104</ele>
        <time>2017-04-30T11:40:45Z</time>
      </trkpt>
      <trkpt lat="47.82426" lon="7.03063">
        <ele>1106</ele>
        <time>2017-04-30T11:40:53Z</time>
      </trkpt>
      <trkpt lat="47.82436" lon="7.03064">
        <ele>1107</ele>
        <time>2017-04-30T11:41:03Z</time>
      </trkpt>
      <trkpt lat="47.82444" lon="7.03059">
        <ele>1107</ele>
        <time>2017-04-30T11:41:12Z</time>
      </trkpt>
      <trkpt lat="47.82453" lon="7.03063">
        <ele>1108</ele>
        <time>2017-04-30T11:41:24Z</time>
      </trkpt>
      <trkpt lat="47.82453" lon="7.03063">
        <ele>1109</ele>
        <time>2017-04-30T11:41:25Z</time>
      </trkpt>
      <trkpt lat="47.82461" lon="7.03056">
        <ele>1116</ele>
        <time>2017-04-30T11:41:42Z</time>
      </trkpt>
      <trkpt lat="47.82461" lon="7.03056">
        <ele>1116</ele>
        <time>2017-04-30T11:41:43Z</time>
      </trkpt>
      <trkpt lat="47.8247" lon="7.03052">
        <ele>1118</ele>
        <time>2017-04-30T11:41:51Z</time>
      </trkpt>
      <trkpt lat="47.82467" lon="7.03052">
        <ele>1116</ele>
        <time>2017-04-30T11:41:52Z</time>
      </trkpt>
      <trkpt lat="47.8247" lon="7.03047">
        <ele>1121</ele>
        <time>2017-04-30T11:43:04Z</time>
      </trkpt>
      <trkpt lat="47.8247" lon="7.03046">
        <ele>1119</ele>
        <time>2017-04-30T11:43:05Z</time>
      </trkpt>
      <trkpt lat="47.82473" lon="7.03046">
        <ele>1123</ele>
        <time>2017-04-30T11:44:26Z</time>
      </trkpt>
      <trkpt lat="47.82474" lon="7.03046">
        <ele>1121</ele>
        <time>2017-04-30T11:44:27Z</time>
      </trkpt>
      <trkpt lat="47.82482" lon="7.03039">
        <ele>1123</ele>
        <time>2017-04-30T11:46:30Z</time>
      </trkpt>
      <trkpt lat="47.82491" lon="7.03032">
        <ele>1126</ele>
        <time>2017-04-30T11:46:41Z</time>
      </trkpt>
      <trkpt lat="47.82494" lon="7.03032">
        <ele>1127</ele>
        <time>2017-04-30T11:46:42Z</time>
      </trkpt>
      <trkpt lat="47.82495" lon="7.03031">
        <ele>1128</ele>
        <time>2017-04-30T11:46:43Z</time>
      </trkpt>
      <trkpt lat="47.82497" lon="7.0303">
        <ele>1130</ele>
        <time>2017-04-30T11:46:44Z</time>
      </trkpt>
      <trkpt lat="47.82496" lon="7.0303">
        <ele>1130</ele>
        <time>2017-04-30T11:46:45Z</time>
      </trkpt>
      <trkpt lat="47.82504" lon="7.03025">
        <ele>1137</ele>
        <time>2017-04-30T11:46:55Z</time>
      </trkpt>
      <trkpt lat="47.82504" lon="7.03023">
        <ele>1135</ele>
        <time>2017-04-30T11:46:56Z</time>
      </trkpt>
      <trkpt lat="47.82513" lon="7.03021">
        <ele>1136</ele>
        <time>2017-04-30T11:47:05Z</time>
      </trkpt>
      <trkpt lat="47.8252" lon="7.0301">
        <ele>1137</ele>
        <time>2017-04-30T11:47:17Z</time>
      </trkpt>
      <trkpt lat="47.82528" lon="7.02995">
        <ele>1135</ele>
        <time>2017-04-30T11:47:27Z</time>
      </trkpt>
      <trkpt lat="47.82529" lon="7.02991">
        <ele>1135</ele>
        <time>2017-04-30T11:47:28Z</time>
      </trkpt>
      <trkpt lat="47.82525" lon="7.02975">
        <ele>1134</ele>
        <time>2017-04-30T11:47:39Z</time>
      </trkpt>
      <trkpt lat="47.82533" lon="7.02965">
        <ele>1130</ele>
        <time>2017-04-30T11:47:52Z</time>
      </trkpt>
      <trkpt lat="47.82542" lon="7.02963">
        <ele>1131</ele>
        <time>2017-04-30T11:48:04Z</time>
      </trkpt>
      <trkpt lat="47.82547" lon="7.02948">
        <ele>1131</ele>
        <time>2017-04-30T11:48:13Z</time>
      </trkpt>
      <trkpt lat="47.82555" lon="7.02943">
        <ele>1133</ele>
        <time>2017-04-30T11:48:19Z</time>
      </trkpt>
      <trkpt lat="47.8256" lon="7.02928">
        <ele>1136</ele>
        <time>2017-04-30T11:48:32Z</time>
      </trkpt>
      <trkpt lat="47.82568" lon="7.02908">
        <ele>1144</ele>
        <time>2017-04-30T11:48:59Z</time>
      </trkpt>
      <trkpt lat="47.82567" lon="7.02901">
        <ele>1141</ele>
        <time>2017-04-30T11:49:00Z</time>
      </trkpt>
      <trkpt lat="47.82579" lon="7.02901">
        <ele>1150</ele>
        <time>2017-04-30T11:50:13Z</time>
      </trkpt>
      <trkpt lat="47.82578" lon="7.02902">
        <ele>1149</ele>
        <time>2017-04-30T11:50:14Z</time>
      </trkpt>
      <trkpt lat="47.82578" lon="7.02882">
        <ele>1148</ele>
        <time>2017-04-30T11:50:17Z</time>
      </trkpt>
      <trkpt lat="47.82576" lon="7.02877">
        <ele>1148</ele>
        <time>2017-04-30T11:50:18Z</time>
      </trkpt>
      <trkpt lat="47.82576" lon="7.02862">
        <ele>1147</ele>
        <time>2017-04-30T11:50:21Z</time>
      </trkpt>
      <trkpt lat="47.82584" lon="7.02855">
        <ele>1152</ele>
        <time>2017-04-30T11:50:25Z</time>
      </trkpt>
      <trkpt lat="47.82592" lon="7.02846">
        <ele>1147</ele>
        <time>2017-04-30T11:50:41Z</time>
      </trkpt>
      <trkpt lat="47.82593" lon="7.02833">
        <ele>1144</ele>
        <time>2017-04-30T11:50:52Z</time>
      </trkpt>
      <trkpt lat="47.82595" lon="7.02815">
        <ele>1148</ele>
        <time>2017-04-30T11:50:56Z</time>
      </trkpt>
      <trkpt lat="47.82597" lon="7.02801">
        <ele>1154</ele>
        <time>2017-04-30T11:51:07Z</time>
      </trkpt>
      <trkpt lat="47.82597" lon="7.02799">
        <ele>1154</ele>
        <time>2017-04-30T11:51:08Z</time>
      </trkpt>
      <trkpt lat="47.82602" lon="7.02787">
        <ele>1151</ele>
        <time>2017-04-30T11:51:20Z</time>
      </trkpt>
      <trkpt lat="47.82602" lon="7.02774">
        <ele>1154</ele>
        <time>2017-04-30T11:51:29Z</time>
      </trkpt>
      <trkpt lat="47.82606" lon="7.02756">
        <ele>1157</ele>
        <time>2017-04-30T11:51:40Z</time>
      </trkpt>
      <trkpt lat="47.82606" lon="7.02754">
        <ele>1156</ele>
        <time>2017-04-30T11:51:41Z</time>
      </trkpt>
      <trkpt lat="47.82613" lon="7.02745">
        <ele>1161</ele>
        <time>2017-04-30T11:51:55Z</time>
      </trkpt>
      <trkpt lat="47.82616" lon="7.02745">
        <ele>1162</ele>
        <time>2017-04-30T11:51:56Z</time>
      </trkpt>
      <trkpt lat="47.82623" lon="7.02732">
        <ele>1166</ele>
        <time>2017-04-30T11:52:13Z</time>
      </trkpt>
      <trkpt lat="47.82624" lon="7.02731">
        <ele>1167</ele>
        <time>2017-04-30T11:52:14Z</time>
      </trkpt>
      <trkpt lat="47.82624" lon="7.02729">
        <ele>1166</ele>
        <time>2017-04-30T11:52:15Z</time>
      </trkpt>
      <trkpt lat="47.82624" lon="7.02715">
        <ele>1165</ele>
        <time>2017-04-30T11:52:27Z</time>
      </trkpt>
      <trkpt lat="47.82631" lon="7.02707">
        <ele>1166</ele>
        <time>2017-04-30T11:52:34Z</time>
      </trkpt>
      <trkpt lat="47.82631" lon="7.02693">
        <ele>1162</ele>
        <time>2017-04-30T11:52:39Z</time>
      </trkpt>
      <trkpt lat="47.82637" lon="7.02681">
        <ele>1168</ele>
        <time>2017-04-30T11:52:47Z</time>
      </trkpt>
      <trkpt lat="47.82634" lon="7.02677">
        <ele>1165</ele>
        <time>2017-04-30T11:52:48Z</time>
      </trkpt>
      <trkpt lat="47.82633" lon="7.02663">
        <ele>1165</ele>
        <time>2017-04-30T11:52:55Z</time>
      </trkpt>
      <trkpt lat="47.82642" lon="7.02659">
        <ele>1167</ele>
        <time>2017-04-30T11:53:06Z</time>
      </trkpt>
      <trkpt lat="47.82643" lon="7.02657">
        <ele>1167</ele>
        <time>2017-04-30T11:53:07Z</time>
      </trkpt>
      <trkpt lat="47.82652" lon="7.02645">
        <ele>1166</ele>
        <time>2017-04-30T11:53:19Z</time>
      </trkpt>
      <trkpt lat="47.82661" lon="7.02637">
        <ele>1167</ele>
        <time>2017-04-30T11:53:26Z</time>
      </trkpt>
      <trkpt lat="47.8267" lon="7.02631">
        <ele>1167</ele>
        <time>2017-04-30T11:53:36Z</time>
      </trkpt>
      <trkpt lat="47.82678" lon="7.02623">
        <ele>1168</ele>
        <time>2017-04-30T11:53:44Z</time>
      </trkpt>
      <trkpt lat="47.82678" lon="7.02606">
        <ele>1162</ele>
        <time>2017-04-30T11:53:54Z</time>
      </trkpt>
      <trkpt lat="47.82679" lon="7.02591">
        <ele>1162</ele>
        <time>2017-04-30T11:54:00Z</time>
      </trkpt>
      <trkpt lat="47.82681" lon="7.02578">
        <ele>1161</ele>
        <time>2017-04-30T11:54:11Z</time>
      </trkpt>
      <trkpt lat="47.82679" lon="7.02563">
        <ele>1159</ele>
        <time>2017-04-30T11:54:22Z</time>
      </trkpt>
      <trkpt lat="47.82678" lon="7.02549">
        <ele>1159</ele>
        <time>2017-04-30T11:54:30Z</time>
      </trkpt>
      <trkpt lat="47.82678" lon="7.02532">
        <ele>1164</ele>
        <time>2017-04-30T11:54:35Z</time>
      </trkpt>
      <trkpt lat="47.82682" lon="7.02519">
        <ele>1162</ele>
        <time>2017-04-30T11:54:49Z</time>
      </trkpt>
      <trkpt lat="47.8268" lon="7.02506">
        <ele>1163</ele>
        <time>2017-04-30T11:54:55Z</time>
      </trkpt>
      <trkpt lat="47.82678" lon="7.02492">
        <ele>1162</ele>
        <time>2017-04-30T11:55:03Z</time>
      </trkpt>
      <trkpt lat="47.82677" lon="7.02478">
        <ele>1164</ele>
        <time>2017-04-30T11:55:12Z</time>
      </trkpt>
      <trkpt lat="47.82672" lon="7.02464">
        <ele>1160</ele>
        <time>2017-04-30T11:55:31Z</time>
      </trkpt>
      <trkpt lat="47.8267" lon="7.02448">
        <ele>1160</ele>
        <time>2017-04-30T11:55:36Z</time>
      </trkpt>
      <trkpt lat="47.82663" lon="7.02438">
        <ele>1155</ele>
        <time>2017-04-30T11:55:53Z</time>
      </trkpt>
      <trkpt lat="47.8266" lon="7.02424">
        <ele>1157</ele>
        <time>2017-04-30T11:56:09Z</time>
      </trkpt>
      <trkpt lat="47.82655" lon="7.02411">
        <ele>1156</ele>
        <time>2017-04-30T11:56:18Z</time>
      </trkpt>
      <trkpt lat="47.82652" lon="7.02398">
        <ele>1155</ele>
        <time>2017-04-30T11:56:27Z</time>
      </trkpt>
      <trkpt lat="47.82645" lon="7.02387">
        <ele>1150</ele>
        <time>2017-04-30T11:56:41Z</time>
      </trkpt>
      <trkpt lat="47.82642" lon="7.02374">
        <ele>1150</ele>
        <time>2017-04-30T11:56:50Z</time>
      </trkpt>
      <trkpt lat="47.8264" lon="7.02361">
        <ele>1150</ele>
        <time>2017-04-30T11:56:59Z</time>
      </trkpt>
      <trkpt lat="47.82634" lon="7.02342">
        <ele>1154</ele>
        <time>2017-04-30T11:58:29Z</time>
      </trkpt>
      <trkpt lat="47.82628" lon="7.02328">
        <ele>1155</ele>
        <time>2017-04-30T11:58:58Z</time>
      </trkpt>
      <trkpt lat="47.82623" lon="7.02315">
        <ele>1155</ele>
        <time>2017-04-30T11:59:04Z</time>
      </trkpt>
      <trkpt lat="47.82623" lon="7.023">
        <ele>1154</ele>
        <time>2017-04-30T11:59:13Z</time>
      </trkpt>
      <trkpt lat="47.82618" lon="7.02291">
        <ele>1150</ele>
        <time>2017-04-30T12:00:13Z</time>
      </trkpt>
      <trkpt lat="47.82615" lon="7.02277">
        <ele>1148</ele>
        <time>2017-04-30T12:00:24Z</time>
      </trkpt>
      <trkpt lat="47.82614" lon="7.02263">
        <ele>1149</ele>
        <time>2017-04-30T12:00:31Z</time>
      </trkpt>
      <trkpt lat="47.8261" lon="7.02251">
        <ele>1148</ele>
        <time>2017-04-30T12:00:41Z</time>
      </trkpt>
      <trkpt lat="47.826" lon="7.02236">
        <ele>1143</ele>
        <time>2017-04-30T12:01:05Z</time>
      </trkpt>
      <trkpt lat="47.82594" lon="7.02227">
        <ele>1139</ele>
        <time>2017-04-30T12:01:25Z</time>
      </trkpt>
      <trkpt lat="47.82593" lon="7.02219">
        <ele>1141</ele>
        <time>2017-04-30T12:01:38Z</time>
      </trkpt>
      <trkpt lat="47.8259" lon="7.02206">
        <ele>1138</ele>
        <time>2017-04-30T12:01:47Z</time>
      </trkpt>
      <trkpt lat="47.82589" lon="7.02192">
        <ele>1137</ele>
        <time>2017-04-30T12:01:56Z</time>
      </trkpt>
      <trkpt lat="47.82588" lon="7.02178">
        <ele>1137</ele>
        <time>2017-04-30T12:02:03Z</time>
      </trkpt>
      <trkpt lat="47.82587" lon="7.02165">
        <ele>1136</ele>
        <time>2017-04-30T12:02:11Z</time>
      </trkpt>
      <trkpt lat="47.82583" lon="7.02152">
        <ele>1135</ele>
        <time>2017-04-30T12:02:22Z</time>
      </trkpt>
      <trkpt lat="47.82579" lon="7.02139">
        <ele>1135</ele>
        <time>2017-04-30T12:02:29Z</time>
      </trkpt>
      <trkpt lat="47.82576" lon="7.02126">
        <ele>1135</ele>
        <time>2017-04-30T12:02:38Z</time>
      </trkpt>
      <trkpt lat="47.82573" lon="7.02113">
        <ele>1133</ele>
        <time>2017-04-30T12:02:49Z</time>
      </trkpt>
      <trkpt lat="47.82569" lon="7.021">
        <ele>1133</ele>
        <time>2017-04-30T12:02:58Z</time>
      </trkpt>
      <trkpt lat="47.82565" lon="7.02086">
        <ele>1133</ele>
        <time>2017-04-30T12:03:08Z</time>
      </trkpt>
      <trkpt lat="47.82566" lon="7.02076">
        <ele>1135</ele>
        <time>2017-04-30T12:03:22Z</time>
      </trkpt>
      <trkpt lat="47.82562" lon="7.02063">
        <ele>1135</ele>
        <time>2017-04-30T12:03:30Z</time>
      </trkpt>
      <trkpt lat="47.8256" lon="7.02049">
        <ele>1136</ele>
        <time>2017-04-30T12:03:38Z</time>
      </trkpt>
      <trkpt lat="47.82556" lon="7.02036">
        <ele>1133</ele>
        <time>2017-04-30T12:03:47Z</time>
      </trkpt>
      <trkpt lat="47.82553" lon="7.02024">
        <ele>1132</ele>
        <time>2017-04-30T12:03:56Z</time>
      </trkpt>
      <trkpt lat="47.8255" lon="7.0201">
        <ele>1131</ele>
        <time>2017-04-30T12:04:04Z</time>
      </trkpt>
      <trkpt lat="47.82549" lon="7.01996">
        <ele>1130</ele>
        <time>2017-04-30T12:04:12Z</time>
      </trkpt>
      <trkpt lat="47.82547" lon="7.01982">
        <ele>1131</ele>
        <time>2017-04-30T12:04:19Z</time>
      </trkpt>
      <trkpt lat="47.82543" lon="7.01968">
        <ele>1130</ele>
        <time>2017-04-30T12:04:28Z</time>
      </trkpt>
      <trkpt lat="47.82538" lon="7.01957">
        <ele>1129</ele>
        <time>2017-04-30T12:04:40Z</time>
      </trkpt>
      <trkpt lat="47.82532" lon="7.01947">
        <ele>1130</ele>
        <time>2017-04-30T12:04:49Z</time>
      </trkpt>
      <trkpt lat="47.8253" lon="7.01933">
        <ele>1128</ele>
        <time>2017-04-30T12:05:01Z</time>
      </trkpt>
      <trkpt lat="47.82529" lon="7.01925">
        <ele>1130</ele>
        <time>2017-04-30T12:05:14Z</time>
      </trkpt>
      <trkpt lat="47.82521" lon="7.01913">
        <ele>1129</ele>
        <time>2017-04-30T12:05:24Z</time>
      </trkpt>
      <trkpt lat="47.82515" lon="7.01903">
        <ele>1127</ele>
        <time>2017-04-30T12:05:36Z</time>
      </trkpt>
      <trkpt lat="47.82512" lon="7.01889">
        <ele>1130</ele>
        <time>2017-04-30T12:05:44Z</time>
      </trkpt>
      <trkpt lat="47.82512" lon="7.01876">
        <ele>1133</ele>
        <time>2017-04-30T12:05:52Z</time>
      </trkpt>
      <trkpt lat="47.82509" lon="7.01862">
        <ele>1133</ele>
        <time>2017-04-30T12:05:59Z</time>
      </trkpt>
      <trkpt lat="47.82504" lon="7.0185">
        <ele>1132</ele>
        <time>2017-04-30T12:06:08Z</time>
      </trkpt>
      <trkpt lat="47.82501" lon="7.01837">
        <ele>1132</ele>
        <time>2017-04-30T12:06:16Z</time>
      </trkpt>
      <trkpt lat="47.82496" lon="7.01825">
        <ele>1130</ele>
        <time>2017-04-30T12:06:28Z</time>
      </trkpt>
      <trkpt lat="47.82495" lon="7.01812">
        <ele>1132</ele>
        <time>2017-04-30T12:06:36Z</time>
      </trkpt>
      <trkpt lat="47.82493" lon="7.01798">
        <ele>1132</ele>
        <time>2017-04-30T12:06:44Z</time>
      </trkpt>
      <trkpt lat="47.82491" lon="7.01785">
        <ele>1133</ele>
        <time>2017-04-30T12:06:52Z</time>
      </trkpt>
      <trkpt lat="47.82484" lon="7.01775">
        <ele>1127</ele>
        <time>2017-04-30T12:07:05Z</time>
      </trkpt>
      <trkpt lat="47.82484" lon="7.01761">
        <ele>1132</ele>
        <time>2017-04-30T12:07:11Z</time>
      </trkpt>
      <trkpt lat="47.82479" lon="7.0175">
        <ele>1128</ele>
        <time>2017-04-30T12:07:23Z</time>
      </trkpt>
      <trkpt lat="47.82477" lon="7.01737">
        <ele>1129</ele>
        <time>2017-04-30T12:07:33Z</time>
      </trkpt>
      <trkpt lat="47.82475" lon="7.01723">
        <ele>1131</ele>
        <time>2017-04-30T12:07:41Z</time>
      </trkpt>
      <trkpt lat="47.82475" lon="7.01709">
        <ele>1130</ele>
        <time>2017-04-30T12:07:49Z</time>
      </trkpt>
      <trkpt lat="47.82472" lon="7.01695">
        <ele>1129</ele>
        <time>2017-04-30T12:07:59Z</time>
      </trkpt>
      <trkpt lat="47.8247" lon="7.01681">
        <ele>1129</ele>
        <time>2017-04-30T12:08:08Z</time>
      </trkpt>
      <trkpt lat="47.82469" lon="7.01666">
        <ele>1130</ele>
        <time>2017-04-30T12:08:16Z</time>
      </trkpt>
      <trkpt lat="47.82468" lon="7.01652">
        <ele>1132</ele>
        <time>2017-04-30T12:08:24Z</time>
      </trkpt>
      <trkpt lat="47.82471" lon="7.01638">
        <ele>1130</ele>
        <time>2017-04-30T12:08:43Z</time>
      </trkpt>
      <trkpt lat="47.82472" lon="7.01624">
        <ele>1126</ele>
        <time>2017-04-30T12:08:56Z</time>
      </trkpt>
      <trkpt lat="47.82474" lon="7.0161">
        <ele>1125</ele>
        <time>2017-04-30T12:09:09Z</time>
      </trkpt>
      <trkpt lat="47.82477" lon="7.01596">
        <ele>1123</ele>
        <time>2017-04-30T12:09:17Z</time>
      </trkpt>
      <trkpt lat="47.82479" lon="7.01582">
        <ele>1124</ele>
        <time>2017-04-30T12:09:26Z</time>
      </trkpt>
      <trkpt lat="47.82481" lon="7.01568">
        <ele>1125</ele>
        <time>2017-04-30T12:09:34Z</time>
      </trkpt>
      <trkpt lat="47.82483" lon="7.01554">
        <ele>1124</ele>
        <time>2017-04-30T12:09:42Z</time>
      </trkpt>
      <trkpt lat="47.82484" lon="7.0154">
        <ele>1123</ele>
        <time>2017-04-30T12:09:52Z</time>
      </trkpt>
      <trkpt lat="47.82487" lon="7.01527">
        <ele>1123</ele>
        <time>2017-04-30T12:10:03Z</time>
      </trkpt>
      <trkpt lat="47.82492" lon="7.01515">
        <ele>1121</ele>
        <time>2017-04-30T12:10:15Z</time>
      </trkpt>
      <trkpt lat="47.82493" lon="7.015">
        <ele>1121</ele>
        <time>2017-04-30T12:10:25Z</time>
      </trkpt>
      <trkpt lat="47.82495" lon="7.01486">
        <ele>1121</ele>
        <time>2017-04-30T12:10:34Z</time>
      </trkpt>
      <trkpt lat="47.82497" lon="7.01472">
        <ele>1122</ele>
        <time>2017-04-30T12:10:44Z</time>
      </trkpt>
      <trkpt lat="47.82498" lon="7.01457">
        <ele>1120</ele>
        <time>2017-04-30T12:10:54Z</time>
      </trkpt>
      <trkpt lat="47.82499" lon="7.01443">
        <ele>1119</ele>
        <time>2017-04-30T12:11:02Z</time>
      </trkpt>
      <trkpt lat="47.825" lon="7.01428">
        <ele>1119</ele>
        <time>2017-04-30T12:11:12Z</time>
      </trkpt>
      <trkpt lat="47.82501" lon="7.01414">
        <ele>1119</ele>
        <time>2017-04-30T12:11:20Z</time>
      </trkpt>
      <trkpt lat="47.82505" lon="7.01401">
        <ele>1119</ele>
        <time>2017-04-30T12:11:28Z</time>
      </trkpt>
      <trkpt lat="47.82509" lon="7.01388">
        <ele>1119</ele>
        <time>2017-04-30T12:11:38Z</time>
      </trkpt>
      <trkpt lat="47.82514" lon="7.01376">
        <ele>1119</ele>
        <time>2017-04-30T12:11:47Z</time>
      </trkpt>
      <trkpt lat="47.82519" lon="7.01364">
        <ele>1118</ele>
        <time>2017-04-30T12:11:55Z</time>
      </trkpt>
      <trkpt lat="47.82525" lon="7.0135">
        <ele>1121</ele>
        <time>2017-04-30T12:12:05Z</time>
      </trkpt>
      <trkpt lat="47.82528" lon="7.01336">
        <ele>1123</ele>
        <time>2017-04-30T12:12:11Z</time>
      </trkpt>
      <trkpt lat="47.82536" lon="7.01328">
        <ele>1121</ele>
        <time>2017-04-30T12:12:21Z</time>
      </trkpt>
      <trkpt lat="47.82545" lon="7.01324">
        <ele>1118</ele>
        <time>2017-04-30T12:12:32Z</time>
      </trkpt>
      <trkpt lat="47.82554" lon="7.01321">
        <ele>1117</ele>
        <time>2017-04-30T12:12:42Z</time>
      </trkpt>
      <trkpt lat="47.82564" lon="7.0132">
        <ele>1116</ele>
        <time>2017-04-30T12:12:53Z</time>
      </trkpt>
      <trkpt lat="47.82566" lon="7.01322">
        <ele>1115</ele>
        <time>2017-04-30T12:13:05Z</time>
      </trkpt>
      <trkpt lat="47.82575" lon="7.01319">
        <ele>1116</ele>
        <time>2017-04-30T12:13:13Z</time>
      </trkpt>
      <trkpt lat="47.82585" lon="7.01321">
        <ele>1116</ele>
        <time>2017-04-30T12:13:23Z</time>
      </trkpt>
      <trkpt lat="47.82594" lon="7.01321">
        <ele>1116</ele>
        <time>2017-04-30T12:13:32Z</time>
      </trkpt>
      <trkpt lat="47.82604" lon="7.01319">
        <ele>1114</ele>
        <time>2017-04-30T12:13:42Z</time>
      </trkpt>
      <trkpt lat="47.82614" lon="7.01322">
        <ele>1118</ele>
        <time>2017-04-30T12:13:54Z</time>
      </trkpt>
      <trkpt lat="47.82623" lon="7.01317">
        <ele>1115</ele>
        <time>2017-04-30T12:14:05Z</time>
      </trkpt>
      <trkpt lat="47.82632" lon="7.01318">
        <ele>1117</ele>
        <time>2017-04-30T12:14:13Z</time>
      </trkpt>
      <trkpt lat="47.82641" lon="7.01316">
        <ele>1113</ele>
        <time>2017-04-30T12:14:23Z</time>
      </trkpt>
      <trkpt lat="47.82647" lon="7.01325">
        <ele>1118</ele>
        <time>2017-04-30T12:14:28Z</time>
      </trkpt>
      <trkpt lat="47.82657" lon="7.01322">
        <ele>1117</ele>
        <time>2017-04-30T12:14:34Z</time>
      </trkpt>
      <trkpt lat="47.82665" lon="7.01332">
        <ele>1122</ele>
        <time>2017-04-30T12:14:46Z</time>
      </trkpt>
      <trkpt lat="47.82674" lon="7.01333">
        <ele>1121</ele>
        <time>2017-04-30T12:14:52Z</time>
      </trkpt>
      <trkpt lat="47.82684" lon="7.0133">
        <ele>1123</ele>
        <time>2017-04-30T12:15:00Z</time>
      </trkpt>
      <trkpt lat="47.82694" lon="7.01326">
        <ele>1125</ele>
        <time>2017-04-30T12:15:11Z</time>
      </trkpt>
      <trkpt lat="47.82702" lon="7.01317">
        <ele>1122</ele>
        <time>2017-04-30T12:15:15Z</time>
      </trkpt>
      <trkpt lat="47.8271" lon="7.01307">
        <ele>1124</ele>
        <time>2017-04-30T12:15:23Z</time>
      </trkpt>
      <trkpt lat="47.82718" lon="7.01299">
        <ele>1124</ele>
        <time>2017-04-30T12:15:28Z</time>
      </trkpt>
      <trkpt lat="47.82725" lon="7.01289">
        <ele>1126</ele>
        <time>2017-04-30T12:15:37Z</time>
      </trkpt>
      <trkpt lat="47.82728" lon="7.01276">
        <ele>1118</ele>
        <time>2017-04-30T12:15:50Z</time>
      </trkpt>
      <trkpt lat="47.82734" lon="7.01264">
        <ele>1116</ele>
        <time>2017-04-30T12:16:02Z</time>
      </trkpt>
      <trkpt lat="47.82743" lon="7.01258">
        <ele>1117</ele>
        <time>2017-04-30T12:16:09Z</time>
      </trkpt>
      <trkpt lat="47.82745" lon="7.01244">
        <ele>1115</ele>
        <time>2017-04-30T12:16:17Z</time>
      </trkpt>
      <trkpt lat="47.82751" lon="7.01234">
        <ele>1116</ele>
        <time>2017-04-30T12:16:25Z</time>
      </trkpt>
      <trkpt lat="47.82757" lon="7.01224">
        <ele>1117</ele>
        <time>2017-04-30T12:16:33Z</time>
      </trkpt>
      <trkpt lat="47.82762" lon="7.01212">
        <ele>1118</ele>
        <time>2017-04-30T12:16:43Z</time>
      </trkpt>
      <trkpt lat="47.82766" lon="7.012">
        <ele>1119</ele>
        <time>2017-04-30T12:16:50Z</time>
      </trkpt>
      <trkpt lat="47.82768" lon="7.01184">
        <ele>1119</ele>
        <time>2017-04-30T12:17:09Z</time>
      </trkpt>
      <trkpt lat="47.82773" lon="7.01173">
        <ele>1115</ele>
        <time>2017-04-30T12:17:14Z</time>
      </trkpt>
      <trkpt lat="47.82774" lon="7.01159">
        <ele>1115</ele>
        <time>2017-04-30T12:17:38Z</time>
      </trkpt>
      <trkpt lat="47.82775" lon="7.01144">
        <ele>1113</ele>
        <time>2017-04-30T12:17:46Z</time>
      </trkpt>
      <trkpt lat="47.82777" lon="7.01131">
        <ele>1114</ele>
        <time>2017-04-30T12:17:50Z</time>
      </trkpt>
      <trkpt lat="47.82776" lon="7.01117">
        <ele>1111</ele>
        <time>2017-04-30T12:17:56Z</time>
      </trkpt>
      <trkpt lat="47.82776" lon="7.01102">
        <ele>1111</ele>
        <time>2017-04-30T12:18:03Z</time>
      </trkpt>
      <trkpt lat="47.82779" lon="7.01088">
        <ele>1109</ele>
        <time>2017-04-30T12:18:12Z</time>
      </trkpt>
      <trkpt lat="47.82785" lon="7.01078">
        <ele>1111</ele>
        <time>2017-04-30T12:18:18Z</time>
      </trkpt>
      <trkpt lat="47.82792" lon="7.01067">
        <ele>1112</ele>
        <time>2017-04-30T12:18:27Z</time>
      </trkpt>
      <trkpt lat="47.82797" lon="7.01055">
        <ele>1111</ele>
        <time>2017-04-30T12:18:34Z</time>
      </trkpt>
      <trkpt lat="47.82801" lon="7.01044">
        <ele>1111</ele>
        <time>2017-04-30T12:18:43Z</time>
      </trkpt>
      <trkpt lat="47.82809" lon="7.01036">
        <ele>1109</ele>
        <time>2017-04-30T12:18:52Z</time>
      </trkpt>
      <trkpt lat="47.82816" lon="7.01027">
        <ele>1110</ele>
        <time>2017-04-30T12:19:03Z</time>
      </trkpt>
      <trkpt lat="47.82826" lon="7.0102">
        <ele>1113</ele>
        <time>2017-04-30T12:19:09Z</time>
      </trkpt>
      <trkpt lat="47.82829" lon="7.01004">
        <ele>1109</ele>
        <time>2017-04-30T12:19:29Z</time>
      </trkpt>
      <trkpt lat="47.82833" lon="7.00993">
        <ele>1110</ele>
        <time>2017-04-30T12:19:35Z</time>
      </trkpt>
      <trkpt lat="47.82839" lon="7.00981">
        <ele>1109</ele>
        <time>2017-04-30T12:19:41Z</time>
      </trkpt>
      <trkpt lat="47.82848" lon="7.00973">
        <ele>1111</ele>
        <time>2017-04-30T12:19:48Z</time>
      </trkpt>
      <trkpt lat="47.82858" lon="7.00974">
        <ele>1109</ele>
        <time>2017-04-30T12:20:00Z</time>
      </trkpt>
      <trkpt lat="47.82867" lon="7.0098">
        <ele>1104</ele>
        <time>2017-04-30T12:20:08Z</time>
      </trkpt>
      <trkpt lat="47.82877" lon="7.00978">
        <ele>1100</ele>
        <time>2017-04-30T12:20:22Z</time>
      </trkpt>
      <trkpt lat="47.82887" lon="7.00981">
        <ele>1103</ele>
        <time>2017-04-30T12:20:30Z</time>
      </trkpt>
      <trkpt lat="47.82895" lon="7.00975">
        <ele>1103</ele>
        <time>2017-04-30T12:20:40Z</time>
      </trkpt>
      <trkpt lat="47.82905" lon="7.00972">
        <ele>1102</ele>
        <time>2017-04-30T12:20:51Z</time>
      </trkpt>
      <trkpt lat="47.82907" lon="7.0097">
        <ele>1099</ele>
        <time>2017-04-30T12:21:12Z</time>
      </trkpt>
      <trkpt lat="47.82917" lon="7.00972">
        <ele>1100</ele>
        <time>2017-04-30T12:21:18Z</time>
      </trkpt>
      <trkpt lat="47.82926" lon="7.00975">
        <ele>1101</ele>
        <time>2017-04-30T12:21:23Z</time>
      </trkpt>
      <trkpt lat="47.82933" lon="7.00983">
        <ele>1102</ele>
        <time>2017-04-30T12:21:31Z</time>
      </trkpt>
      <trkpt lat="47.82941" lon="7.00989">
        <ele>1104</ele>
        <time>2017-04-30T12:21:40Z</time>
      </trkpt>
      <trkpt lat="47.82949" lon="7.00998">
        <ele>1099</ele>
        <time>2017-04-30T12:21:50Z</time>
      </trkpt>
      <trkpt lat="47.82954" lon="7.01009">
        <ele>1100</ele>
        <time>2017-04-30T12:21:55Z</time>
      </trkpt>
      <trkpt lat="47.82962" lon="7.01017">
        <ele>1101</ele>
        <time>2017-04-30T12:22:04Z</time>
      </trkpt>
      <trkpt lat="47.8297" lon="7.01023">
        <ele>1100</ele>
        <time>2017-04-30T12:22:17Z</time>
      </trkpt>
      <trkpt lat="47.82979" lon="7.0103">
        <ele>1100</ele>
        <time>2017-04-30T12:22:28Z</time>
      </trkpt>
      <trkpt lat="47.82987" lon="7.01038">
        <ele>1100</ele>
        <time>2017-04-30T12:22:38Z</time>
      </trkpt>
      <trkpt lat="47.82994" lon="7.01049">
        <ele>1102</ele>
        <time>2017-04-30T12:22:49Z</time>
      </trkpt>
      <trkpt lat="47.83" lon="7.0106">
        <ele>1102</ele>
        <time>2017-04-30T12:22:58Z</time>
      </trkpt>
      <trkpt lat="47.83009" lon="7.01067">
        <ele>1103</ele>
        <time>2017-04-30T12:23:08Z</time>
      </trkpt>
      <trkpt lat="47.83017" lon="7.01075">
        <ele>1097</ele>
        <time>2017-04-30T12:23:22Z</time>
      </trkpt>
      <trkpt lat="47.83026" lon="7.01074">
        <ele>1100</ele>
        <time>2017-04-30T12:23:29Z</time>
      </trkpt>
      <trkpt lat="47.83033" lon="7.01082">
        <ele>1100</ele>
        <time>2017-04-30T12:23:41Z</time>
      </trkpt>
      <trkpt lat="47.83047" lon="7.01091">
        <ele>1100</ele>
        <time>2017-04-30T12:24:08Z</time>
      </trkpt>
      <trkpt lat="47.83057" lon="7.01097">
        <ele>1098</ele>
        <time>2017-04-30T12:24:24Z</time>
      </trkpt>
      <trkpt lat="47.83065" lon="7.01101">
        <ele>1101</ele>
        <time>2017-04-30T12:24:35Z</time>
      </trkpt>
      <trkpt lat="47.83075" lon="7.01105">
        <ele>1104</ele>
        <time>2017-04-30T12:25:07Z</time>
      </trkpt>
      <trkpt lat="47.83084" lon="7.01106">
        <ele>1106</ele>
        <time>2017-04-30T12:25:42Z</time>
      </trkpt>
      <trkpt lat="47.83092" lon="7.01114">
        <ele>1104</ele>
        <time>2017-04-30T12:25:58Z</time>
      </trkpt>
      <trkpt lat="47.83098" lon="7.01113">
        <ele>1094</ele>
        <time>2017-04-30T12:28:06Z</time>
      </trkpt>
      <trkpt lat="47.83107" lon="7.01108">
        <ele>1097</ele>
        <time>2017-04-30T12:28:19Z</time>
      </trkpt>
      <trkpt lat="47.83117" lon="7.01105">
        <ele>1096</ele>
        <time>2017-04-30T12:28:26Z</time>
      </trkpt>
      <trkpt lat="47.83127" lon="7.01102">
        <ele>1096</ele>
        <time>2017-04-30T12:28:31Z</time>
      </trkpt>
      <trkpt lat="47.83136" lon="7.01102">
        <ele>1097</ele>
        <time>2017-04-30T12:28:38Z</time>
      </trkpt>
      <trkpt lat="47.83146" lon="7.01102">
        <ele>1095</ele>
        <time>2017-04-30T12:28:48Z</time>
      </trkpt>
      <trkpt lat="47.83155" lon="7.01104">
        <ele>1095</ele>
        <time>2017-04-30T12:28:58Z</time>
      </trkpt>
      <trkpt lat="47.83164" lon="7.01105">
        <ele>1098</ele>
        <time>2017-04-30T12:29:05Z</time>
      </trkpt>
      <trkpt lat="47.83173" lon="7.01111">
        <ele>1097</ele>
        <time>2017-04-30T12:29:13Z</time>
      </trkpt>
      <trkpt lat="47.83182" lon="7.01114">
        <ele>1098</ele>
        <time>2017-04-30T12:29:20Z</time>
      </trkpt>
      <trkpt lat="47.83191" lon="7.01117">
        <ele>1100</ele>
        <time>2017-04-30T12:29:27Z</time>
      </trkpt>
      <trkpt lat="47.83201" lon="7.01119">
        <ele>1102</ele>
        <time>2017-04-30T12:29:35Z</time>
      </trkpt>
      <trkpt lat="47.83211" lon="7.01122">
        <ele>1101</ele>
        <time>2017-04-30T12:29:44Z</time>
      </trkpt>
      <trkpt lat="47.8322" lon="7.01127">
        <ele>1102</ele>
        <time>2017-04-30T12:29:52Z</time>
      </trkpt>
      <trkpt lat="47.83228" lon="7.01132">
        <ele>1103</ele>
        <time>2017-04-30T12:29:59Z</time>
      </trkpt>
      <trkpt lat="47.83237" lon="7.01138">
        <ele>1103</ele>
        <time>2017-04-30T12:30:07Z</time>
      </trkpt>
      <trkpt lat="47.83247" lon="7.01141">
        <ele>1102</ele>
        <time>2017-04-30T12:30:16Z</time>
      </trkpt>
      <trkpt lat="47.83256" lon="7.01145">
        <ele>1101</ele>
        <time>2017-04-30T12:30:24Z</time>
      </trkpt>
      <trkpt lat="47.83265" lon="7.01148">
        <ele>1102</ele>
        <time>2017-04-30T12:30:32Z</time>
      </trkpt>
      <trkpt lat="47.83273" lon="7.01155">
        <ele>1102</ele>
        <time>2017-04-30T12:30:44Z</time>
      </trkpt>
      <trkpt lat="47.83282" lon="7.0116">
        <ele>1103</ele>
        <time>2017-04-30T12:30:53Z</time>
      </trkpt>
      <trkpt lat="47.8329" lon="7.01166">
        <ele>1103</ele>
        <time>2017-04-30T12:31:03Z</time>
      </trkpt>
      <trkpt lat="47.83299" lon="7.01169">
        <ele>1101</ele>
        <time>2017-04-30T12:31:14Z</time>
      </trkpt>
      <trkpt lat="47.83312" lon="7.01172">
        <ele>1103</ele>
        <time>2017-04-30T12:31:23Z</time>
      </trkpt>
      <trkpt lat="47.8332" lon="7.01176">
        <ele>1106</ele>
        <time>2017-04-30T12:31:32Z</time>
      </trkpt>
      <trkpt lat="47.8333" lon="7.01173">
        <ele>1107</ele>
        <time>2017-04-30T12:31:43Z</time>
      </trkpt>
      <trkpt lat="47.8334" lon="7.01173">
        <ele>1108</ele>
        <time>2017-04-30T12:31:55Z</time>
      </trkpt>
      <trkpt lat="47.83342" lon="7.01176">
        <ele>1107</ele>
        <time>2017-04-30T12:32:44Z</time>
      </trkpt>
      <trkpt lat="47.83352" lon="7.01176">
        <ele>1107</ele>
        <time>2017-04-30T12:32:56Z</time>
      </trkpt>
      <trkpt lat="47.83361" lon="7.0117">
        <ele>1105</ele>
        <time>2017-04-30T12:33:06Z</time>
      </trkpt>
      <trkpt lat="47.8337" lon="7.01166">
        <ele>1106</ele>
        <time>2017-04-30T12:33:12Z</time>
      </trkpt>
      <trkpt lat="47.8338" lon="7.01163">
        <ele>1108</ele>
        <time>2017-04-30T12:33:21Z</time>
      </trkpt>
      <trkpt lat="47.83383" lon="7.01147">
        <ele>1101</ele>
        <time>2017-04-30T12:33:29Z</time>
      </trkpt>
      <trkpt lat="47.8339" lon="7.01138">
        <ele>1102</ele>
        <time>2017-04-30T12:33:37Z</time>
      </trkpt>
      <trkpt lat="47.83402" lon="7.01129">
        <ele>1105</ele>
        <time>2017-04-30T12:33:43Z</time>
      </trkpt>
      <trkpt lat="47.83409" lon="7.0112">
        <ele>1105</ele>
        <time>2017-04-30T12:33:50Z</time>
      </trkpt>
      <trkpt lat="47.83413" lon="7.01107">
        <ele>1100</ele>
        <time>2017-04-30T12:34:01Z</time>
      </trkpt>
      <trkpt lat="47.83415" lon="7.01094">
        <ele>1100</ele>
        <time>2017-04-30T12:34:10Z</time>
      </trkpt>
      <trkpt lat="47.83416" lon="7.01077">
        <ele>1103</ele>
        <time>2017-04-30T12:34:30Z</time>
      </trkpt>
      <trkpt lat="47.83416" lon="7.01064">
        <ele>1104</ele>
        <time>2017-04-30T12:34:35Z</time>
      </trkpt>
      <trkpt lat="47.83414" lon="7.0105">
        <ele>1107</ele>
        <time>2017-04-30T12:34:42Z</time>
      </trkpt>
      <trkpt lat="47.83415" lon="7.01031">
        <ele>1106</ele>
        <time>2017-04-30T12:35:01Z</time>
      </trkpt>
      <trkpt lat="47.83416" lon="7.01017">
        <ele>1110</ele>
        <time>2017-04-30T12:35:14Z</time>
      </trkpt>
      <trkpt lat="47.8341" lon="7.00988">
        <ele>1110</ele>
        <time>2017-04-30T12:38:22Z</time>
      </trkpt>
      <trkpt lat="47.83412" lon="7.00972">
        <ele>1115</ele>
        <time>2017-04-30T12:38:34Z</time>
      </trkpt>
      <trkpt lat="47.83414" lon="7.00959">
        <ele>1114</ele>
        <time>2017-04-30T12:38:40Z</time>
      </trkpt>
      <trkpt lat="47.83414" lon="7.00944">
        <ele>1118</ele>
        <time>2017-04-30T12:38:48Z</time>
      </trkpt>
      <trkpt lat="47.83415" lon="7.0093">
        <ele>1118</ele>
        <time>2017-04-30T12:38:57Z</time>
      </trkpt>
      <trkpt lat="47.83415" lon="7.00915">
        <ele>1122</ele>
        <time>2017-04-30T12:39:10Z</time>
      </trkpt>
      <trkpt lat="47.83416" lon="7.00901">
        <ele>1124</ele>
        <time>2017-04-30T12:39:34Z</time>
      </trkpt>
      <trkpt lat="47.83418" lon="7.00888">
        <ele>1128</ele>
        <time>2017-04-30T12:39:43Z</time>
      </trkpt>
      <trkpt lat="47.83419" lon="7.00873">
        <ele>1129</ele>
        <time>2017-04-30T12:39:50Z</time>
      </trkpt>
      <trkpt lat="47.83419" lon="7.0086">
        <ele>1132</ele>
        <time>2017-04-30T12:40:00Z</time>
      </trkpt>
      <trkpt lat="47.83422" lon="7.00846">
        <ele>1136</ele>
        <time>2017-04-30T12:40:14Z</time>
      </trkpt>
      <trkpt lat="47.83421" lon="7.00832">
        <ele>1135</ele>
        <time>2017-04-30T12:40:26Z</time>
      </trkpt>
      <trkpt lat="47.83421" lon="7.00819">
        <ele>1136</ele>
        <time>2017-04-30T12:40:34Z</time>
      </trkpt>
      <trkpt lat="47.83416" lon="7.00806">
        <ele>1133</ele>
        <time>2017-04-30T12:40:44Z</time>
      </trkpt>
      <trkpt lat="47.83412" lon="7.00793">
        <ele>1130</ele>
        <time>2017-04-30T12:41:08Z</time>
      </trkpt>
      <trkpt lat="47.8341" lon="7.00779">
        <ele>1134</ele>
        <time>2017-04-30T12:41:15Z</time>
      </trkpt>
      <trkpt lat="47.83403" lon="7.00768">
        <ele>1126</ele>
        <time>2017-04-30T12:41:19Z</time>
      </trkpt>
      <trkpt lat="47.83397" lon="7.00755">
        <ele>1123</ele>
        <time>2017-04-30T12:41:28Z</time>
      </trkpt>
      <trkpt lat="47.83389" lon="7.00747">
        <ele>1127</ele>
        <time>2017-04-30T12:41:38Z</time>
      </trkpt>
      <trkpt lat="47.83382" lon="7.00738">
        <ele>1131</ele>
        <time>2017-04-30T12:41:48Z</time>
      </trkpt>
      <trkpt lat="47.83373" lon="7.00729">
        <ele>1130</ele>
        <time>2017-04-30T12:41:59Z</time>
      </trkpt>
      <trkpt lat="47.83364" lon="7.00723">
        <ele>1127</ele>
        <time>2017-04-30T12:42:06Z</time>
      </trkpt>
      <trkpt lat="47.83357" lon="7.00715">
        <ele>1128</ele>
        <time>2017-04-30T12:42:20Z</time>
      </trkpt>
      <trkpt lat="47.83349" lon="7.00709">
        <ele>1131</ele>
        <time>2017-04-30T12:42:29Z</time>
      </trkpt>
      <trkpt lat="47.83339" lon="7.00706">
        <ele>1134</ele>
        <time>2017-04-30T12:42:41Z</time>
      </trkpt>
      <trkpt lat="47.83329" lon="7.00703">
        <ele>1135</ele>
        <time>2017-04-30T12:42:53Z</time>
      </trkpt>
      <trkpt lat="47.83321" lon="7.00697">
        <ele>1134</ele>
        <time>2017-04-30T12:43:07Z</time>
      </trkpt>
      <trkpt lat="47.83311" lon="7.00696">
        <ele>1136</ele>
        <time>2017-04-30T12:43:17Z</time>
      </trkpt>
      <trkpt lat="47.83302" lon="7.0069">
        <ele>1131</ele>
        <time>2017-04-30T12:43:27Z</time>
      </trkpt>
      <trkpt lat="47.83292" lon="7.00688">
        <ele>1131</ele>
        <time>2017-04-30T12:43:37Z</time>
      </trkpt>
      <trkpt lat="47.83283" lon="7.00687">
        <ele>1136</ele>
        <time>2017-04-30T12:43:48Z</time>
      </trkpt>
      <trkpt lat="47.83274" lon="7.00682">
        <ele>1135</ele>
        <time>2017-04-30T12:43:59Z</time>
      </trkpt>
      <trkpt lat="47.83265" lon="7.00674">
        <ele>1140</ele>
        <time>2017-04-30T12:44:17Z</time>
      </trkpt>
      <trkpt lat="47.83255" lon="7.0067">
        <ele>1139</ele>
        <time>2017-04-30T12:44:25Z</time>
      </trkpt>
      <trkpt lat="47.8325" lon="7.00667">
        <ele>1139</ele>
        <time>2017-04-30T12:44:33Z</time>
      </trkpt>
      <trkpt lat="47.8325" lon="7.00667">
        <ele>1139</ele>
        <time>2017-04-30T12:44:33Z</time>
      </trkpt>
      <trkpt lat="47.83241" lon="7.00671">
        <ele>1140</ele>
        <time>2017-04-30T12:44:42Z</time>
      </trkpt>
      <trkpt lat="47.83231" lon="7.00671">
        <ele>1142</ele>
        <time>2017-04-30T12:44:57Z</time>
      </trkpt>
      <trkpt lat="47.83221" lon="7.00664">
        <ele>1138</ele>
        <time>2017-04-30T12:45:11Z</time>
      </trkpt>
      <trkpt lat="47.83211" lon="7.00659">
        <ele>1140</ele>
        <time>2017-04-30T12:45:18Z</time>
      </trkpt>
      <trkpt lat="47.83202" lon="7.00651">
        <ele>1143</ele>
        <time>2017-04-30T12:45:26Z</time>
      </trkpt>
      <trkpt lat="47.83194" lon="7.00643">
        <ele>1149</ele>
        <time>2017-04-30T12:45:35Z</time>
      </trkpt>
      <trkpt lat="47.83187" lon="7.00632">
        <ele>1153</ele>
        <time>2017-04-30T12:46:03Z</time>
      </trkpt>
      <trkpt lat="47.83181" lon="7.00621">
        <ele>1159</ele>
        <time>2017-04-30T12:46:13Z</time>
      </trkpt>
      <trkpt lat="47.83176" lon="7.0061">
        <ele>1166</ele>
        <time>2017-04-30T12:46:23Z</time>
      </trkpt>
      <trkpt lat="47.83166" lon="7.00604">
        <ele>1166</ele>
        <time>2017-04-30T12:46:32Z</time>
      </trkpt>
      <trkpt lat="47.83161" lon="7.00591">
        <ele>1175</ele>
        <time>2017-04-30T12:46:48Z</time>
      </trkpt>
      <trkpt lat="47.83159" lon="7.00594">
        <ele>1174</ele>
        <time>2017-04-30T12:46:49Z</time>
      </trkpt>
      <trkpt lat="47.83154" lon="7.00581">
        <ele>1181</ele>
        <time>2017-04-30T12:47:02Z</time>
      </trkpt>
      <trkpt lat="47.83155" lon="7.00581">
        <ele>1182</ele>
        <time>2017-04-30T12:47:03Z</time>
      </trkpt>
      <trkpt lat="47.83157" lon="7.00582">
        <ele>1183</ele>
        <time>2017-04-30T12:47:04Z</time>
      </trkpt>
      <trkpt lat="47.83156" lon="7.00578">
        <ele>1188</ele>
        <time>2017-04-30T12:47:11Z</time>
      </trkpt>
      <trkpt lat="47.83154" lon="7.00576">
        <ele>1187</ele>
        <time>2017-04-30T12:47:12Z</time>
      </trkpt>
      <trkpt lat="47.83151" lon="7.00562">
        <ele>1190</ele>
        <time>2017-04-30T12:47:24Z</time>
      </trkpt>
      <trkpt lat="47.83151" lon="7.00561">
        <ele>1192</ele>
        <time>2017-04-30T12:47:25Z</time>
      </trkpt>
      <trkpt lat="47.83144" lon="7.00557">
        <ele>1190</ele>
        <time>2017-04-30T12:47:50Z</time>
      </trkpt>
      <trkpt lat="47.83136" lon="7.00545">
        <ele>1190</ele>
        <time>2017-04-30T12:48:03Z</time>
      </trkpt>
      <trkpt lat="47.83133" lon="7.00532">
        <ele>1189</ele>
        <time>2017-04-30T12:48:10Z</time>
      </trkpt>
      <trkpt lat="47.83123" lon="7.00528">
        <ele>1190</ele>
        <time>2017-04-30T12:48:22Z</time>
      </trkpt>
      <trkpt lat="47.83117" lon="7.00518">
        <ele>1190</ele>
        <time>2017-04-30T12:48:26Z</time>
      </trkpt>
      <trkpt lat="47.83106" lon="7.00494">
        <ele>1201</ele>
        <time>2017-04-30T12:50:20Z</time>
      </trkpt>
      <trkpt lat="47.83104" lon="7.00491">
        <ele>1200</ele>
        <time>2017-04-30T12:50:21Z</time>
      </trkpt>
      <trkpt lat="47.83094" lon="7.00488">
        <ele>1196</ele>
        <time>2017-04-30T12:50:23Z</time>
      </trkpt>
      <trkpt lat="47.83087" lon="7.00497">
        <ele>1194</ele>
        <time>2017-04-30T12:50:32Z</time>
      </trkpt>
      <trkpt lat="47.83079" lon="7.00477">
        <ele>1195</ele>
        <time>2017-04-30T12:50:35Z</time>
      </trkpt>
      <trkpt lat="47.83072" lon="7.00465">
        <ele>1194</ele>
        <time>2017-04-30T12:50:43Z</time>
      </trkpt>
      <trkpt lat="47.8307" lon="7.00461">
        <ele>1195</ele>
        <time>2017-04-30T12:51:33Z</time>
      </trkpt>
      <trkpt lat="47.83055" lon="7.00442">
        <ele>1197</ele>
        <time>2017-04-30T12:52:01Z</time>
      </trkpt>
      <trkpt lat="47.83049" lon="7.00432">
        <ele>1200</ele>
        <time>2017-04-30T12:52:09Z</time>
      </trkpt>
      <trkpt lat="47.8304" lon="7.0042">
        <ele>1200</ele>
        <time>2017-04-30T12:52:30Z</time>
      </trkpt>
      <trkpt lat="47.83039" lon="7.0042">
        <ele>1199</ele>
        <time>2017-04-30T12:52:31Z</time>
      </trkpt>
      <trkpt lat="47.83027" lon="7.00395">
        <ele>1199</ele>
        <time>2017-04-30T12:53:07Z</time>
      </trkpt>
      <trkpt lat="47.83028" lon="7.00381">
        <ele>1202</ele>
        <time>2017-04-30T12:53:12Z</time>
      </trkpt>
      <trkpt lat="47.83022" lon="7.00368">
        <ele>1204</ele>
        <time>2017-04-30T12:53:19Z</time>
      </trkpt>
      <trkpt lat="47.8302" lon="7.00366">
        <ele>1203</ele>
        <time>2017-04-30T12:53:20Z</time>
      </trkpt>
      <trkpt lat="47.83018" lon="7.00357">
        <ele>1193</ele>
        <time>2017-04-30T12:54:57Z</time>
      </trkpt>
      <trkpt lat="47.83026" lon="7.00346">
        <ele>1196</ele>
        <time>2017-04-30T12:55:02Z</time>
      </trkpt>
      <trkpt lat="47.83025" lon="7.00333">
        <ele>1199</ele>
        <time>2017-04-30T12:55:19Z</time>
      </trkpt>
      <trkpt lat="47.83027" lon="7.00327">
        <ele>1206</ele>
        <time>2017-04-30T12:55:29Z</time>
      </trkpt>
      <trkpt lat="47.83027" lon="7.00327">
        <ele>1206</ele>
        <time>2017-04-30T12:55:29Z</time>
      </trkpt>
      <trkpt lat="47.83034" lon="7.00319">
        <ele>1207</ele>
        <time>2017-04-30T12:56:31Z</time>
      </trkpt>
      <trkpt lat="47.8304" lon="7.00299">
        <ele>1207</ele>
        <time>2017-04-30T12:56:40Z</time>
      </trkpt>
      <trkpt lat="47.83042" lon="7.00284">
        <ele>1206</ele>
        <time>2017-04-30T12:56:47Z</time>
      </trkpt>
      <trkpt lat="47.83043" lon="7.0027">
        <ele>1205</ele>
        <time>2017-04-30T12:56:59Z</time>
      </trkpt>
      <trkpt lat="47.83039" lon="7.00257">
        <ele>1207</ele>
        <time>2017-04-30T12:57:13Z</time>
      </trkpt>
      <trkpt lat="47.83039" lon="7.00257">
        <ele>1207</ele>
        <time>2017-04-30T12:57:13Z</time>
      </trkpt>
      <trkpt lat="47.83039" lon="7.0025">
        <ele>1209</ele>
        <time>2017-04-30T12:57:42Z</time>
      </trkpt>
      <trkpt lat="47.83039" lon="7.00237">
        <ele>1208</ele>
        <time>2017-04-30T12:57:50Z</time>
      </trkpt>
      <trkpt lat="47.83041" lon="7.00236">
        <ele>1206</ele>
        <time>2017-04-30T12:57:51Z</time>
      </trkpt>
      <trkpt lat="47.83043" lon="7.0022">
        <ele>1210</ele>
        <time>2017-04-30T12:58:30Z</time>
      </trkpt>
      <trkpt lat="47.83044" lon="7.00205">
        <ele>1210</ele>
        <time>2017-04-30T12:58:35Z</time>
      </trkpt>
      <trkpt lat="47.83043" lon="7.00188">
        <ele>1213</ele>
        <time>2017-04-30T12:59:11Z</time>
      </trkpt>
      <trkpt lat="47.8304" lon="7.00183">
        <ele>1212</ele>
        <time>2017-04-30T12:59:12Z</time>
      </trkpt>
      <trkpt lat="47.83037" lon="7.00166">
        <ele>1213</ele>
        <time>2017-04-30T12:59:37Z</time>
      </trkpt>
      <trkpt lat="47.83038" lon="7.00163">
        <ele>1215</ele>
        <time>2017-04-30T12:59:38Z</time>
      </trkpt>
      <trkpt lat="47.83039" lon="7.00149">
        <ele>1217</ele>
        <time>2017-04-30T12:59:45Z</time>
      </trkpt>
      <trkpt lat="47.8304" lon="7.0015">
        <ele>1218</ele>
        <time>2017-04-30T12:59:46Z</time>
      </trkpt>
      <trkpt lat="47.8304" lon="7.00149">
        <ele>1219</ele>
        <time>2017-04-30T12:59:47Z</time>
      </trkpt>
      <trkpt lat="47.83039" lon="7.00148">
        <ele>1217</ele>
        <time>2017-04-30T12:59:48Z</time>
      </trkpt>
      <trkpt lat="47.83037" lon="7.00139">
        <ele>1216</ele>
        <time>2017-04-30T13:02:03Z</time>
      </trkpt>
      <trkpt lat="47.83034" lon="7.00152">
        <ele>1216</ele>
        <time>2017-04-30T13:02:08Z</time>
      </trkpt>
      <trkpt lat="47.83034" lon="7.00157">
        <ele>1216</ele>
        <time>2017-04-30T13:02:09Z</time>
      </trkpt>
      <trkpt lat="47.83033" lon="7.00172">
        <ele>1214</ele>
        <time>2017-04-30T13:02:15Z</time>
      </trkpt>
      <trkpt lat="47.83024" lon="7.00177">
        <ele>1216</ele>
        <time>2017-04-30T13:02:21Z</time>
      </trkpt>
      <trkpt lat="47.83019" lon="7.0019">
        <ele>1221</ele>
        <time>2017-04-30T13:02:28Z</time>
      </trkpt>
      <trkpt lat="47.83019" lon="7.00191">
        <ele>1222</ele>
        <time>2017-04-30T13:02:29Z</time>
      </trkpt>
      <trkpt lat="47.83014" lon="7.00201">
        <ele>1224</ele>
        <time>2017-04-30T13:02:43Z</time>
      </trkpt>
      <trkpt lat="47.83012" lon="7.00203">
        <ele>1225</ele>
        <time>2017-04-30T13:02:44Z</time>
      </trkpt>
      <trkpt lat="47.83004" lon="7.00213">
        <ele>1226</ele>
        <time>2017-04-30T13:02:54Z</time>
      </trkpt>
      <trkpt lat="47.83004" lon="7.00214">
        <ele>1226</ele>
        <time>2017-04-30T13:02:55Z</time>
      </trkpt>
      <trkpt lat="47.82996" lon="7.00223">
        <ele>1227</ele>
        <time>2017-04-30T13:03:06Z</time>
      </trkpt>
      <trkpt lat="47.82996" lon="7.00224">
        <ele>1227</ele>
        <time>2017-04-30T13:03:07Z</time>
      </trkpt>
      <trkpt lat="47.82988" lon="7.00236">
        <ele>1225</ele>
        <time>2017-04-30T13:03:17Z</time>
      </trkpt>
      <trkpt lat="47.82982" lon="7.00247">
        <ele>1227</ele>
        <time>2017-04-30T13:03:28Z</time>
      </trkpt>
      <trkpt lat="47.82976" lon="7.00258">
        <ele>1226</ele>
        <time>2017-04-30T13:03:35Z</time>
      </trkpt>
      <trkpt lat="47.82971" lon="7.0027">
        <ele>1226</ele>
        <time>2017-04-30T13:03:43Z</time>
      </trkpt>
      <trkpt lat="47.82966" lon="7.00283">
        <ele>1228</ele>
        <time>2017-04-30T13:03:51Z</time>
      </trkpt>
      <trkpt lat="47.82962" lon="7.00296">
        <ele>1227</ele>
        <time>2017-04-30T13:04:00Z</time>
      </trkpt>
      <trkpt lat="47.82959" lon="7.00308">
        <ele>1230</ele>
        <time>2017-04-30T13:04:08Z</time>
      </trkpt>
      <trkpt lat="47.82958" lon="7.0031">
        <ele>1230</ele>
        <time>2017-04-30T13:04:09Z</time>
      </trkpt>
      <trkpt lat="47.82956" lon="7.00323">
        <ele>1230</ele>
        <time>2017-04-30T13:04:21Z</time>
      </trkpt>
      <trkpt lat="47.82955" lon="7.00325">
        <ele>1230</ele>
        <time>2017-04-30T13:04:22Z</time>
      </trkpt>
      <trkpt lat="47.82951" lon="7.00339">
        <ele>1231</ele>
        <time>2017-04-30T13:04:35Z</time>
      </trkpt>
      <trkpt lat="47.82948" lon="7.00352">
        <ele>1232</ele>
        <time>2017-04-30T13:04:44Z</time>
      </trkpt>
      <trkpt lat="47.82947" lon="7.00352">
        <ele>1232</ele>
        <time>2017-04-30T13:04:45Z</time>
      </trkpt>
      <trkpt lat="47.82943" lon="7.00365">
        <ele>1229</ele>
        <time>2017-04-30T13:04:55Z</time>
      </trkpt>
      <trkpt lat="47.82939" lon="7.00378">
        <ele>1230</ele>
        <time>2017-04-30T13:05:06Z</time>
      </trkpt>
      <trkpt lat="47.82937" lon="7.00392">
        <ele>1233</ele>
        <time>2017-04-30T13:05:17Z</time>
      </trkpt>
      <trkpt lat="47.82937" lon="7.00392">
        <ele>1233</ele>
        <time>2017-04-30T13:05:17Z</time>
      </trkpt>
      <trkpt lat="47.82933" lon="7.00405">
        <ele>1236</ele>
        <time>2017-04-30T13:05:28Z</time>
      </trkpt>
      <trkpt lat="47.82933" lon="7.00406">
        <ele>1235</ele>
        <time>2017-04-30T13:05:29Z</time>
      </trkpt>
      <trkpt lat="47.8293" lon="7.00418">
        <ele>1235</ele>
        <time>2017-04-30T13:05:41Z</time>
      </trkpt>
      <trkpt lat="47.82927" lon="7.00432">
        <ele>1237</ele>
        <time>2017-04-30T13:05:52Z</time>
      </trkpt>
      <trkpt lat="47.82927" lon="7.00433">
        <ele>1237</ele>
        <time>2017-04-30T13:05:53Z</time>
      </trkpt>
      <trkpt lat="47.82925" lon="7.00449">
        <ele>1237</ele>
        <time>2017-04-30T13:06:06Z</time>
      </trkpt>
      <trkpt lat="47.82925" lon="7.00451">
        <ele>1237</ele>
        <time>2017-04-30T13:06:07Z</time>
      </trkpt>
      <trkpt lat="47.82922" lon="7.00465">
        <ele>1239</ele>
        <time>2017-04-30T13:06:20Z</time>
      </trkpt>
      <trkpt lat="47.82922" lon="7.00466">
        <ele>1239</ele>
        <time>2017-04-30T13:06:21Z</time>
      </trkpt>
      <trkpt lat="47.82917" lon="7.00478">
        <ele>1240</ele>
        <time>2017-04-30T13:06:32Z</time>
      </trkpt>
      <trkpt lat="47.82917" lon="7.00477">
        <ele>1241</ele>
        <time>2017-04-30T13:06:33Z</time>
      </trkpt>
      <trkpt lat="47.82917" lon="7.00479">
        <ele>1241</ele>
        <time>2017-04-30T13:06:34Z</time>
      </trkpt>
      <trkpt lat="47.8291" lon="7.00488">
        <ele>1241</ele>
        <time>2017-04-30T13:06:44Z</time>
      </trkpt>
      <trkpt lat="47.82902" lon="7.00497">
        <ele>1241</ele>
        <time>2017-04-30T13:06:52Z</time>
      </trkpt>
      <trkpt lat="47.82895" lon="7.00505">
        <ele>1240</ele>
        <time>2017-04-30T13:06:57Z</time>
      </trkpt>
      <trkpt lat="47.82887" lon="7.0051">
        <ele>1238</ele>
        <time>2017-04-30T13:07:08Z</time>
      </trkpt>
      <trkpt lat="47.82877" lon="7.00513">
        <ele>1240</ele>
        <time>2017-04-30T13:07:16Z</time>
      </trkpt>
      <trkpt lat="47.82868" lon="7.00518">
        <ele>1238</ele>
        <time>2017-04-30T13:07:24Z</time>
      </trkpt>
      <trkpt lat="47.82859" lon="7.0052">
        <ele>1236</ele>
        <time>2017-04-30T13:07:35Z</time>
      </trkpt>
      <trkpt lat="47.82849" lon="7.00522">
        <ele>1238</ele>
        <time>2017-04-30T13:07:43Z</time>
      </trkpt>
      <trkpt lat="47.8284" lon="7.00524">
        <ele>1238</ele>
        <time>2017-04-30T13:07:51Z</time>
      </trkpt>
      <trkpt lat="47.8283" lon="7.00527">
        <ele>1237</ele>
        <time>2017-04-30T13:07:59Z</time>
      </trkpt>
      <trkpt lat="47.82819" lon="7.0053">
        <ele>1234</ele>
        <time>2017-04-30T13:08:09Z</time>
      </trkpt>
      <trkpt lat="47.82809" lon="7.00537">
        <ele>1235</ele>
        <time>2017-04-30T13:08:18Z</time>
      </trkpt>
      <trkpt lat="47.82799" lon="7.0054">
        <ele>1236</ele>
        <time>2017-04-30T13:08:27Z</time>
      </trkpt>
      <trkpt lat="47.8279" lon="7.00548">
        <ele>1234</ele>
        <time>2017-04-30T13:08:35Z</time>
      </trkpt>
      <trkpt lat="47.82782" lon="7.00554">
        <ele>1234</ele>
        <time>2017-04-30T13:08:40Z</time>
      </trkpt>
      <trkpt lat="47.82774" lon="7.00564">
        <ele>1237</ele>
        <time>2017-04-30T13:08:52Z</time>
      </trkpt>
      <trkpt lat="47.82766" lon="7.00573">
        <ele>1233</ele>
        <time>2017-04-30T13:09:01Z</time>
      </trkpt>
      <trkpt lat="47.82758" lon="7.0058">
        <ele>1235</ele>
        <time>2017-04-30T13:09:15Z</time>
      </trkpt>
      <trkpt lat="47.8275" lon="7.0059">
        <ele>1236</ele>
        <time>2017-04-30T13:09:21Z</time>
      </trkpt>
      <trkpt lat="47.82742" lon="7.00599">
        <ele>1233</ele>
        <time>2017-04-30T13:09:30Z</time>
      </trkpt>
      <trkpt lat="47.82731" lon="7.00604">
        <ele>1234</ele>
        <time>2017-04-30T13:09:37Z</time>
      </trkpt>
      <trkpt lat="47.82722" lon="7.0061">
        <ele>1237</ele>
        <time>2017-04-30T13:09:47Z</time>
      </trkpt>
      <trkpt lat="47.82713" lon="7.00616">
        <ele>1236</ele>
        <time>2017-04-30T13:09:56Z</time>
      </trkpt>
      <trkpt lat="47.82704" lon="7.0062">
        <ele>1231</ele>
        <time>2017-04-30T13:10:07Z</time>
      </trkpt>
      <trkpt lat="47.82695" lon="7.00623">
        <ele>1231</ele>
        <time>2017-04-30T13:10:14Z</time>
      </trkpt>
      <trkpt lat="47.82684" lon="7.00624">
        <ele>1232</ele>
        <time>2017-04-30T13:10:22Z</time>
      </trkpt>
      <trkpt lat="47.82674" lon="7.00637">
        <ele>1226</ele>
        <time>2017-04-30T13:10:40Z</time>
      </trkpt>
      <trkpt lat="47.82667" lon="7.00647">
        <ele>1223</ele>
        <time>2017-04-30T13:10:50Z</time>
      </trkpt>
      <trkpt lat="47.8266" lon="7.00654">
        <ele>1221</ele>
        <time>2017-04-30T13:10:56Z</time>
      </trkpt>
      <trkpt lat="47.82652" lon="7.00663">
        <ele>1227</ele>
        <time>2017-04-30T13:11:05Z</time>
      </trkpt>
      <trkpt lat="47.82644" lon="7.00673">
        <ele>1224</ele>
        <time>2017-04-30T13:11:13Z</time>
      </trkpt>
      <trkpt lat="47.82637" lon="7.00682">
        <ele>1225</ele>
        <time>2017-04-30T13:11:24Z</time>
      </trkpt>
      <trkpt lat="47.82631" lon="7.00693">
        <ele>1225</ele>
        <time>2017-04-30T13:11:35Z</time>
      </trkpt>
      <trkpt lat="47.82624" lon="7.00703">
        <ele>1221</ele>
        <time>2017-04-30T13:11:44Z</time>
      </trkpt>
      <trkpt lat="47.82615" lon="7.00706">
        <ele>1222</ele>
        <time>2017-04-30T13:11:54Z</time>
      </trkpt>
      <trkpt lat="47.82607" lon="7.00714">
        <ele>1224</ele>
        <time>2017-04-30T13:12:02Z</time>
      </trkpt>
      <trkpt lat="47.82599" lon="7.00727">
        <ele>1223</ele>
        <time>2017-04-30T13:12:10Z</time>
      </trkpt>
      <trkpt lat="47.82592" lon="7.00735">
        <ele>1222</ele>
        <time>2017-04-30T13:12:23Z</time>
      </trkpt>
      <trkpt lat="47.82586" lon="7.00746">
        <ele>1220</ele>
        <time>2017-04-30T13:12:30Z</time>
      </trkpt>
      <trkpt lat="47.82579" lon="7.00757">
        <ele>1216</ele>
        <time>2017-04-30T13:12:40Z</time>
      </trkpt>
      <trkpt lat="47.82572" lon="7.00767">
        <ele>1217</ele>
        <time>2017-04-30T13:12:47Z</time>
      </trkpt>
      <trkpt lat="47.82565" lon="7.00777">
        <ele>1215</ele>
        <time>2017-04-30T13:12:54Z</time>
      </trkpt>
      <trkpt lat="47.82558" lon="7.00788">
        <ele>1213</ele>
        <time>2017-04-30T13:13:04Z</time>
      </trkpt>
      <trkpt lat="47.82552" lon="7.00798">
        <ele>1214</ele>
        <time>2017-04-30T13:13:18Z</time>
      </trkpt>
      <trkpt lat="47.82544" lon="7.00809">
        <ele>1214</ele>
        <time>2017-04-30T13:13:26Z</time>
      </trkpt>
      <trkpt lat="47.82536" lon="7.00817">
        <ele>1215</ele>
        <time>2017-04-30T13:13:35Z</time>
      </trkpt>
      <trkpt lat="47.82528" lon="7.00828">
        <ele>1215</ele>
        <time>2017-04-30T13:13:45Z</time>
      </trkpt>
      <trkpt lat="47.82521" lon="7.00835">
        <ele>1215</ele>
        <time>2017-04-30T13:13:54Z</time>
      </trkpt>
      <trkpt lat="47.82512" lon="7.00844">
        <ele>1213</ele>
        <time>2017-04-30T13:14:03Z</time>
      </trkpt>
      <trkpt lat="47.82503" lon="7.00851">
        <ele>1214</ele>
        <time>2017-04-30T13:14:08Z</time>
      </trkpt>
      <trkpt lat="47.82496" lon="7.00859">
        <ele>1219</ele>
        <time>2017-04-30T13:14:17Z</time>
      </trkpt>
      <trkpt lat="47.82488" lon="7.00868">
        <ele>1219</ele>
        <time>2017-04-30T13:14:24Z</time>
      </trkpt>
      <trkpt lat="47.82481" lon="7.00877">
        <ele>1213</ele>
        <time>2017-04-30T13:14:33Z</time>
      </trkpt>
      <trkpt lat="47.82476" lon="7.00889">
        <ele>1214</ele>
        <time>2017-04-30T13:14:40Z</time>
      </trkpt>
      <trkpt lat="47.82468" lon="7.00897">
        <ele>1215</ele>
        <time>2017-04-30T13:14:50Z</time>
      </trkpt>
      <trkpt lat="47.8246" lon="7.00908">
        <ele>1213</ele>
        <time>2017-04-30T13:14:58Z</time>
      </trkpt>
      <trkpt lat="47.82452" lon="7.00918">
        <ele>1212</ele>
        <time>2017-04-30T13:15:06Z</time>
      </trkpt>
      <trkpt lat="47.82446" lon="7.0093">
        <ele>1213</ele>
        <time>2017-04-30T13:15:15Z</time>
      </trkpt>
      <trkpt lat="47.82439" lon="7.00937">
        <ele>1213</ele>
        <time>2017-04-30T13:15:28Z</time>
      </trkpt>
      <trkpt lat="47.82433" lon="7.00947">
        <ele>1208</ele>
        <time>2017-04-30T13:15:35Z</time>
      </trkpt>
      <trkpt lat="47.82426" lon="7.00958">
        <ele>1210</ele>
        <time>2017-04-30T13:15:42Z</time>
      </trkpt>
      <trkpt lat="47.82418" lon="7.00966">
        <ele>1210</ele>
        <time>2017-04-30T13:15:51Z</time>
      </trkpt>
      <trkpt lat="47.82413" lon="7.00979">
        <ele>1210</ele>
        <time>2017-04-30T13:16:00Z</time>
      </trkpt>
      <trkpt lat="47.82406" lon="7.00991">
        <ele>1205</ele>
        <time>2017-04-30T13:16:09Z</time>
      </trkpt>
      <trkpt lat="47.82401" lon="7.01002">
        <ele>1205</ele>
        <time>2017-04-30T13:16:17Z</time>
      </trkpt>
      <trkpt lat="47.82395" lon="7.01014">
        <ele>1205</ele>
        <time>2017-04-30T13:16:26Z</time>
      </trkpt>
      <trkpt lat="47.8239" lon="7.01025">
        <ele>1202</ele>
        <time>2017-04-30T13:16:34Z</time>
      </trkpt>
      <trkpt lat="47.82383" lon="7.01035">
        <ele>1202</ele>
        <time>2017-04-30T13:16:42Z</time>
      </trkpt>
      <trkpt lat="47.82378" lon="7.01047">
        <ele>1204</ele>
        <time>2017-04-30T13:16:51Z</time>
      </trkpt>
      <trkpt lat="47.8237" lon="7.01063">
        <ele>1208</ele>
        <time>2017-04-30T13:17:19Z</time>
      </trkpt>
      <trkpt lat="47.82368" lon="7.01076">
        <ele>1208</ele>
        <time>2017-04-30T13:17:22Z</time>
      </trkpt>
      <trkpt lat="47.82362" lon="7.0109">
        <ele>1205</ele>
        <time>2017-04-30T13:17:27Z</time>
      </trkpt>
      <trkpt lat="47.82358" lon="7.01105">
        <ele>1204</ele>
        <time>2017-04-30T13:17:35Z</time>
      </trkpt>
      <trkpt lat="47.82353" lon="7.01117">
        <ele>1202</ele>
        <time>2017-04-30T13:17:45Z</time>
      </trkpt>
      <trkpt lat="47.82348" lon="7.01129">
        <ele>1204</ele>
        <time>2017-04-30T13:17:52Z</time>
      </trkpt>
      <trkpt lat="47.82344" lon="7.01143">
        <ele>1208</ele>
        <time>2017-04-30T13:18:00Z</time>
      </trkpt>
      <trkpt lat="47.82338" lon="7.01155">
        <ele>1206</ele>
        <time>2017-04-30T13:18:09Z</time>
      </trkpt>
      <trkpt lat="47.82335" lon="7.01168">
        <ele>1207</ele>
        <time>2017-04-30T13:18:17Z</time>
      </trkpt>
      <trkpt lat="47.8233" lon="7.01182">
        <ele>1203</ele>
        <time>2017-04-30T13:18:26Z</time>
      </trkpt>
      <trkpt lat="47.82325" lon="7.01194">
        <ele>1203</ele>
        <time>2017-04-30T13:18:45Z</time>
      </trkpt>
      <trkpt lat="47.82319" lon="7.01208">
        <ele>1204</ele>
        <time>2017-04-30T13:18:55Z</time>
      </trkpt>
      <trkpt lat="47.82317" lon="7.01221">
        <ele>1201</ele>
        <time>2017-04-30T13:19:01Z</time>
      </trkpt>
      <trkpt lat="47.82313" lon="7.01236">
        <ele>1207</ele>
        <time>2017-04-30T13:19:08Z</time>
      </trkpt>
      <trkpt lat="47.82309" lon="7.01249">
        <ele>1207</ele>
        <time>2017-04-30T13:19:12Z</time>
      </trkpt>
      <trkpt lat="47.82304" lon="7.0126">
        <ele>1206</ele>
        <time>2017-04-30T13:19:15Z</time>
      </trkpt>
      <trkpt lat="47.82301" lon="7.01275">
        <ele>1204</ele>
        <time>2017-04-30T13:19:25Z</time>
      </trkpt>
      <trkpt lat="47.82298" lon="7.01289">
        <ele>1204</ele>
        <time>2017-04-30T13:19:34Z</time>
      </trkpt>
      <trkpt lat="47.82295" lon="7.01303">
        <ele>1199</ele>
        <time>2017-04-30T13:19:43Z</time>
      </trkpt>
      <trkpt lat="47.82289" lon="7.01315">
        <ele>1200</ele>
        <time>2017-04-30T13:19:53Z</time>
      </trkpt>
      <trkpt lat="47.82285" lon="7.01327">
        <ele>1200</ele>
        <time>2017-04-30T13:20:02Z</time>
      </trkpt>
      <trkpt lat="47.82283" lon="7.0134">
        <ele>1199</ele>
        <time>2017-04-30T13:20:09Z</time>
      </trkpt>
      <trkpt lat="47.82282" lon="7.01355">
        <ele>1201</ele>
        <time>2017-04-30T13:20:16Z</time>
      </trkpt>
      <trkpt lat="47.8228" lon="7.01371">
        <ele>1200</ele>
        <time>2017-04-30T13:20:26Z</time>
      </trkpt>
      <trkpt lat="47.82278" lon="7.01384">
        <ele>1201</ele>
        <time>2017-04-30T13:20:32Z</time>
      </trkpt>
      <trkpt lat="47.82277" lon="7.01381">
        <ele>1189</ele>
        <time>2017-04-30T13:21:09Z</time>
      </trkpt>
      <trkpt lat="47.82275" lon="7.01395">
        <ele>1193</ele>
        <time>2017-04-30T13:21:20Z</time>
      </trkpt>
      <trkpt lat="47.82268" lon="7.01403">
        <ele>1195</ele>
        <time>2017-04-30T13:21:29Z</time>
      </trkpt>
      <trkpt lat="47.82261" lon="7.01414">
        <ele>1189</ele>
        <time>2017-04-30T13:21:39Z</time>
      </trkpt>
      <trkpt lat="47.82259" lon="7.01428">
        <ele>1188</ele>
        <time>2017-04-30T13:21:47Z</time>
      </trkpt>
      <trkpt lat="47.82253" lon="7.01439">
        <ele>1187</ele>
        <time>2017-04-30T13:21:57Z</time>
      </trkpt>
      <trkpt lat="47.82248" lon="7.01451">
        <ele>1186</ele>
        <time>2017-04-30T13:22:07Z</time>
      </trkpt>
      <trkpt lat="47.82242" lon="7.01464">
        <ele>1183</ele>
        <time>2017-04-30T13:22:18Z</time>
      </trkpt>
      <trkpt lat="47.82236" lon="7.01476">
        <ele>1181</ele>
        <time>2017-04-30T13:22:38Z</time>
      </trkpt>
      <trkpt lat="47.82232" lon="7.01489">
        <ele>1181</ele>
        <time>2017-04-30T13:22:48Z</time>
      </trkpt>
      <trkpt lat="47.82231" lon="7.01503">
        <ele>1179</ele>
        <time>2017-04-30T13:23:00Z</time>
      </trkpt>
      <trkpt lat="47.82231" lon="7.01518">
        <ele>1180</ele>
        <time>2017-04-30T13:23:08Z</time>
      </trkpt>
      <trkpt lat="47.8223" lon="7.01533">
        <ele>1179</ele>
        <time>2017-04-30T13:23:17Z</time>
      </trkpt>
      <trkpt lat="47.8223" lon="7.01546">
        <ele>1177</ele>
        <time>2017-04-30T13:23:23Z</time>
      </trkpt>
      <trkpt lat="47.82229" lon="7.0156">
        <ele>1176</ele>
        <time>2017-04-30T13:23:36Z</time>
      </trkpt>
      <trkpt lat="47.82229" lon="7.01574">
        <ele>1174</ele>
        <time>2017-04-30T13:23:44Z</time>
      </trkpt>
      <trkpt lat="47.82231" lon="7.01589">
        <ele>1173</ele>
        <time>2017-04-30T13:23:52Z</time>
      </trkpt>
      <trkpt lat="47.8223" lon="7.01603">
        <ele>1174</ele>
        <time>2017-04-30T13:24:00Z</time>
      </trkpt>
      <trkpt lat="47.8223" lon="7.01618">
        <ele>1174</ele>
        <time>2017-04-30T13:24:08Z</time>
      </trkpt>
      <trkpt lat="47.82232" lon="7.01634">
        <ele>1174</ele>
        <time>2017-04-30T13:24:15Z</time>
      </trkpt>
      <trkpt lat="47.82232" lon="7.01648">
        <ele>1174</ele>
        <time>2017-04-30T13:24:23Z</time>
      </trkpt>
      <trkpt lat="47.82232" lon="7.01662">
        <ele>1174</ele>
        <time>2017-04-30T13:24:31Z</time>
      </trkpt>
      <trkpt lat="47.82232" lon="7.01677">
        <ele>1174</ele>
        <time>2017-04-30T13:24:39Z</time>
      </trkpt>
      <trkpt lat="47.82231" lon="7.0169">
        <ele>1173</ele>
        <time>2017-04-30T13:24:47Z</time>
      </trkpt>
      <trkpt lat="47.82233" lon="7.01704">
        <ele>1174</ele>
        <time>2017-04-30T13:24:55Z</time>
      </trkpt>
      <trkpt lat="47.82234" lon="7.01719">
        <ele>1175</ele>
        <time>2017-04-30T13:25:04Z</time>
      </trkpt>
      <trkpt lat="47.82235" lon="7.01733">
        <ele>1174</ele>
        <time>2017-04-30T13:25:18Z</time>
      </trkpt>
      <trkpt lat="47.82235" lon="7.01751">
        <ele>1180</ele>
        <time>2017-04-30T13:32:19Z</time>
      </trkpt>
      <trkpt lat="47.82239" lon="7.01763">
        <ele>1178</ele>
        <time>2017-04-30T13:32:35Z</time>
      </trkpt>
      <trkpt lat="47.82241" lon="7.01777">
        <ele>1177</ele>
        <time>2017-04-30T13:32:52Z</time>
      </trkpt>
      <trkpt lat="47.82244" lon="7.01791">
        <ele>1177</ele>
        <time>2017-04-30T13:33:04Z</time>
      </trkpt>
      <trkpt lat="47.82246" lon="7.01805">
        <ele>1178</ele>
        <time>2017-04-30T13:33:17Z</time>
      </trkpt>
      <trkpt lat="47.82249" lon="7.01818">
        <ele>1175</ele>
        <time>2017-04-30T13:33:29Z</time>
      </trkpt>
      <trkpt lat="47.82251" lon="7.01832">
        <ele>1174</ele>
        <time>2017-04-30T13:33:39Z</time>
      </trkpt>
      <trkpt lat="47.82253" lon="7.01846">
        <ele>1173</ele>
        <time>2017-04-30T13:33:49Z</time>
      </trkpt>
      <trkpt lat="47.82253" lon="7.01859">
        <ele>1174</ele>
        <time>2017-04-30T13:33:57Z</time>
      </trkpt>
      <trkpt lat="47.82254" lon="7.01874">
        <ele>1173</ele>
        <time>2017-04-30T13:34:10Z</time>
      </trkpt>
      <trkpt lat="47.82256" lon="7.01888">
        <ele>1173</ele>
        <time>2017-04-30T13:34:19Z</time>
      </trkpt>
      <trkpt lat="47.82257" lon="7.01902">
        <ele>1174</ele>
        <time>2017-04-30T13:34:29Z</time>
      </trkpt>
      <trkpt lat="47.82259" lon="7.01915">
        <ele>1174</ele>
        <time>2017-04-30T13:34:40Z</time>
      </trkpt>
      <trkpt lat="47.82261" lon="7.01929">
        <ele>1173</ele>
        <time>2017-04-30T13:34:50Z</time>
      </trkpt>
      <trkpt lat="47.82267" lon="7.01939">
        <ele>1170</ele>
        <time>2017-04-30T13:35:06Z</time>
      </trkpt>
      <trkpt lat="47.82264" lon="7.01952">
        <ele>1168</ele>
        <time>2017-04-30T13:35:19Z</time>
      </trkpt>
      <trkpt lat="47.82262" lon="7.01959">
        <ele>1171</ele>
        <time>2017-04-30T13:35:28Z</time>
      </trkpt>
      <trkpt lat="47.82262" lon="7.01959">
        <ele>1171</ele>
        <time>2017-04-30T13:35:28Z</time>
      </trkpt>
      <trkpt lat="47.82257" lon="7.01977">
        <ele>1182</ele>
        <time>2017-04-30T13:36:13Z</time>
      </trkpt>
      <trkpt lat="47.8225" lon="7.01977">
        <ele>1177</ele>
        <time>2017-04-30T13:41:32Z</time>
      </trkpt>
      <trkpt lat="47.82246" lon="7.01978">
        <ele>1175</ele>
        <time>2017-04-30T13:41:37Z</time>
      </trkpt>
      <trkpt lat="47.82246" lon="7.01978">
        <ele>1175</ele>
        <time>2017-04-30T13:41:37Z</time>
      </trkpt>
      <trkpt lat="47.82257" lon="7.01968">
        <ele>1175</ele>
        <time>2017-04-30T13:44:00Z</time>
      </trkpt>
      <trkpt lat="47.82257" lon="7.01968">
        <ele>1174</ele>
        <time>2017-04-30T13:44:04Z</time>
      </trkpt>
      <trkpt lat="47.82257" lon="7.01968">
        <ele>1174</ele>
        <time>2017-04-30T13:44:04Z</time>
      </trkpt>
      <trkpt lat="47.82252" lon="7.01981">
        <ele>1170</ele>
        <time>2017-04-30T13:47:54Z</time>
      </trkpt>
      <trkpt lat="47.82248" lon="7.01994">
        <ele>1169</ele>
        <time>2017-04-30T13:48:04Z</time>
      </trkpt>
      <trkpt lat="47.82247" lon="7.02009">
        <ele>1173</ele>
        <time>2017-04-30T13:48:11Z</time>
      </trkpt>
      <trkpt lat="47.82245" lon="7.02024">
        <ele>1175</ele>
        <time>2017-04-30T13:48:22Z</time>
      </trkpt>
      <trkpt lat="47.82238" lon="7.02032">
        <ele>1173</ele>
        <time>2017-04-30T13:48:30Z</time>
      </trkpt>
      <trkpt lat="47.82228" lon="7.0204">
        <ele>1170</ele>
        <time>2017-04-30T13:48:38Z</time>
      </trkpt>
      <trkpt lat="47.82223" lon="7.02052">
        <ele>1168</ele>
        <time>2017-04-30T13:48:48Z</time>
      </trkpt>
      <trkpt lat="47.82216" lon="7.02064">
        <ele>1169</ele>
        <time>2017-04-30T13:48:56Z</time>
      </trkpt>
      <trkpt lat="47.82211" lon="7.02075">
        <ele>1167</ele>
        <time>2017-04-30T13:49:05Z</time>
      </trkpt>
      <trkpt lat="47.82207" lon="7.02087">
        <ele>1165</ele>
        <time>2017-04-30T13:49:14Z</time>
      </trkpt>
      <trkpt lat="47.822" lon="7.02101">
        <ele>1167</ele>
        <time>2017-04-30T13:49:21Z</time>
      </trkpt>
      <trkpt lat="47.82198" lon="7.02114">
        <ele>1169</ele>
        <time>2017-04-30T13:49:27Z</time>
      </trkpt>
      <trkpt lat="47.8219" lon="7.02122">
        <ele>1165</ele>
        <time>2017-04-30T13:49:38Z</time>
      </trkpt>
      <trkpt lat="47.82186" lon="7.02136">
        <ele>1156</ele>
        <time>2017-04-30T13:49:48Z</time>
      </trkpt>
      <trkpt lat="47.8218" lon="7.02149">
        <ele>1156</ele>
        <time>2017-04-30T13:49:57Z</time>
      </trkpt>
      <trkpt lat="47.82175" lon="7.02162">
        <ele>1153</ele>
        <time>2017-04-30T13:50:06Z</time>
      </trkpt>
      <trkpt lat="47.8217" lon="7.02174">
        <ele>1154</ele>
        <time>2017-04-30T13:50:15Z</time>
      </trkpt>
      <trkpt lat="47.82166" lon="7.02187">
        <ele>1156</ele>
        <time>2017-04-30T13:50:23Z</time>
      </trkpt>
      <trkpt lat="47.8216" lon="7.022">
        <ele>1155</ele>
        <time>2017-04-30T13:50:55Z</time>
      </trkpt>
      <trkpt lat="47.82158" lon="7.02214">
        <ele>1149</ele>
        <time>2017-04-30T13:51:07Z</time>
      </trkpt>
      <trkpt lat="47.82153" lon="7.02225">
        <ele>1152</ele>
        <time>2017-04-30T13:51:14Z</time>
      </trkpt>
      <trkpt lat="47.82148" lon="7.02237">
        <ele>1154</ele>
        <time>2017-04-30T13:51:21Z</time>
      </trkpt>
      <trkpt lat="47.82141" lon="7.02247">
        <ele>1153</ele>
        <time>2017-04-30T13:51:29Z</time>
      </trkpt>
      <trkpt lat="47.82135" lon="7.02259">
        <ele>1158</ele>
        <time>2017-04-30T13:51:36Z</time>
      </trkpt>
      <trkpt lat="47.82129" lon="7.02271">
        <ele>1155</ele>
        <time>2017-04-30T13:51:45Z</time>
      </trkpt>
      <trkpt lat="47.82121" lon="7.02281">
        <ele>1156</ele>
        <time>2017-04-30T13:51:53Z</time>
      </trkpt>
      <trkpt lat="47.82114" lon="7.02292">
        <ele>1160</ele>
        <time>2017-04-30T13:52:01Z</time>
      </trkpt>
      <trkpt lat="47.82108" lon="7.02304">
        <ele>1155</ele>
        <time>2017-04-30T13:52:11Z</time>
      </trkpt>
      <trkpt lat="47.821" lon="7.02314">
        <ele>1153</ele>
        <time>2017-04-30T13:52:21Z</time>
      </trkpt>
      <trkpt lat="47.82093" lon="7.02326">
        <ele>1153</ele>
        <time>2017-04-30T13:52:30Z</time>
      </trkpt>
      <trkpt lat="47.82087" lon="7.02335">
        <ele>1149</ele>
        <time>2017-04-30T13:52:38Z</time>
      </trkpt>
      <trkpt lat="47.82081" lon="7.02345">
        <ele>1147</ele>
        <time>2017-04-30T13:52:46Z</time>
      </trkpt>
      <trkpt lat="47.82074" lon="7.02357">
        <ele>1150</ele>
        <time>2017-04-30T13:52:53Z</time>
      </trkpt>
      <trkpt lat="47.82067" lon="7.02366">
        <ele>1154</ele>
        <time>2017-04-30T13:53:00Z</time>
      </trkpt>
      <trkpt lat="47.8206" lon="7.02375">
        <ele>1154</ele>
        <time>2017-04-30T13:53:09Z</time>
      </trkpt>
      <trkpt lat="47.82052" lon="7.02384">
        <ele>1158</ele>
        <time>2017-04-30T13:53:15Z</time>
      </trkpt>
      <trkpt lat="47.82046" lon="7.02396">
        <ele>1159</ele>
        <time>2017-04-30T13:53:23Z</time>
      </trkpt>
      <trkpt lat="47.82039" lon="7.02405">
        <ele>1165</ele>
        <time>2017-04-30T13:53:30Z</time>
      </trkpt>
      <trkpt lat="47.82032" lon="7.02414">
        <ele>1160</ele>
        <time>2017-04-30T13:53:38Z</time>
      </trkpt>
      <trkpt lat="47.82023" lon="7.0242">
        <ele>1157</ele>
        <time>2017-04-30T13:53:45Z</time>
      </trkpt>
      <trkpt lat="47.82015" lon="7.02429">
        <ele>1156</ele>
        <time>2017-04-30T13:53:51Z</time>
      </trkpt>
      <trkpt lat="47.82007" lon="7.02438">
        <ele>1161</ele>
        <time>2017-04-30T13:54:00Z</time>
      </trkpt>
      <trkpt lat="47.81998" lon="7.02444">
        <ele>1166</ele>
        <time>2017-04-30T13:54:06Z</time>
      </trkpt>
      <trkpt lat="47.81988" lon="7.02444">
        <ele>1161</ele>
        <time>2017-04-30T13:54:13Z</time>
      </trkpt>
      <trkpt lat="47.81981" lon="7.02451">
        <ele>1160</ele>
        <time>2017-04-30T13:54:23Z</time>
      </trkpt>
      <trkpt lat="47.81971" lon="7.02456">
        <ele>1161</ele>
        <time>2017-04-30T13:54:30Z</time>
      </trkpt>
      <trkpt lat="47.81961" lon="7.02461">
        <ele>1160</ele>
        <time>2017-04-30T13:54:39Z</time>
      </trkpt>
      <trkpt lat="47.81952" lon="7.02465">
        <ele>1157</ele>
        <time>2017-04-30T13:54:47Z</time>
      </trkpt>
      <trkpt lat="47.81942" lon="7.02469">
        <ele>1153</ele>
        <time>2017-04-30T13:54:58Z</time>
      </trkpt>
      <trkpt lat="47.81933" lon="7.02474">
        <ele>1152</ele>
        <time>2017-04-30T13:55:04Z</time>
      </trkpt>
      <trkpt lat="47.81924" lon="7.02481">
        <ele>1154</ele>
        <time>2017-04-30T13:55:09Z</time>
      </trkpt>
      <trkpt lat="47.81923" lon="7.02472">
        <ele>1140</ele>
        <time>2017-04-30T13:56:51Z</time>
      </trkpt>
      <trkpt lat="47.81913" lon="7.02472">
        <ele>1139</ele>
        <time>2017-04-30T13:56:56Z</time>
      </trkpt>
      <trkpt lat="47.81902" lon="7.02471">
        <ele>1138</ele>
        <time>2017-04-30T13:57:00Z</time>
      </trkpt>
      <trkpt lat="47.81887" lon="7.02463">
        <ele>1133</ele>
        <time>2017-04-30T13:57:19Z</time>
      </trkpt>
      <trkpt lat="47.81876" lon="7.02461">
        <ele>1134</ele>
        <time>2017-04-30T13:57:28Z</time>
      </trkpt>
      <trkpt lat="47.81867" lon="7.02458">
        <ele>1134</ele>
        <time>2017-04-30T13:57:51Z</time>
      </trkpt>
      <trkpt lat="47.81854" lon="7.02459">
        <ele>1133</ele>
        <time>2017-04-30T13:57:56Z</time>
      </trkpt>
      <trkpt lat="47.81844" lon="7.02456">
        <ele>1129</ele>
        <time>2017-04-30T13:58:08Z</time>
      </trkpt>
      <trkpt lat="47.81833" lon="7.02461">
        <ele>1127</ele>
        <time>2017-04-30T13:58:18Z</time>
      </trkpt>
      <trkpt lat="47.81824" lon="7.02451">
        <ele>1127</ele>
        <time>2017-04-30T13:58:23Z</time>
      </trkpt>
      <trkpt lat="47.8181" lon="7.02448">
        <ele>1121</ele>
        <time>2017-04-30T13:58:48Z</time>
      </trkpt>
      <trkpt lat="47.81801" lon="7.02444">
        <ele>1119</ele>
        <time>2017-04-30T13:58:56Z</time>
      </trkpt>
      <trkpt lat="47.8179" lon="7.02446">
        <ele>1111</ele>
        <time>2017-04-30T13:59:26Z</time>
      </trkpt>
      <trkpt lat="47.8178" lon="7.02448">
        <ele>1113</ele>
        <time>2017-04-30T13:59:34Z</time>
      </trkpt>
      <trkpt lat="47.81771" lon="7.02445">
        <ele>1112</ele>
        <time>2017-04-30T13:59:40Z</time>
      </trkpt>
      <trkpt lat="47.8176" lon="7.02448">
        <ele>1108</ele>
        <time>2017-04-30T13:59:55Z</time>
      </trkpt>
      <trkpt lat="47.81751" lon="7.02449">
        <ele>1110</ele>
        <time>2017-04-30T14:00:24Z</time>
      </trkpt>
      <trkpt lat="47.81738" lon="7.02454">
        <ele>1101</ele>
        <time>2017-04-30T14:00:36Z</time>
      </trkpt>
      <trkpt lat="47.81728" lon="7.02455">
        <ele>1105</ele>
        <time>2017-04-30T14:00:42Z</time>
      </trkpt>
      <trkpt lat="47.8171" lon="7.02457">
        <ele>1103</ele>
        <time>2017-04-30T14:01:03Z</time>
      </trkpt>
      <trkpt lat="47.81697" lon="7.02458">
        <ele>1096</ele>
        <time>2017-04-30T14:01:08Z</time>
      </trkpt>
      <trkpt lat="47.81687" lon="7.0246">
        <ele>1091</ele>
        <time>2017-04-30T14:01:14Z</time>
      </trkpt>
      <trkpt lat="47.81677" lon="7.02461">
        <ele>1089</ele>
        <time>2017-04-30T14:01:20Z</time>
      </trkpt>
      <trkpt lat="47.81666" lon="7.02459">
        <ele>1090</ele>
        <time>2017-04-30T14:02:20Z</time>
      </trkpt>
      <trkpt lat="47.81657" lon="7.02465">
        <ele>1087</ele>
        <time>2017-04-30T14:02:29Z</time>
      </trkpt>
      <trkpt lat="47.81647" lon="7.02473">
        <ele>1082</ele>
        <time>2017-04-30T14:02:38Z</time>
      </trkpt>
      <trkpt lat="47.81638" lon="7.0248">
        <ele>1084</ele>
        <time>2017-04-30T14:02:42Z</time>
      </trkpt>
      <trkpt lat="47.81629" lon="7.02479">
        <ele>1084</ele>
        <time>2017-04-30T14:02:49Z</time>
      </trkpt>
      <trkpt lat="47.8162" lon="7.02483">
        <ele>1082</ele>
        <time>2017-04-30T14:03:01Z</time>
      </trkpt>
      <trkpt lat="47.81612" lon="7.02491">
        <ele>1075</ele>
        <time>2017-04-30T14:03:11Z</time>
      </trkpt>
      <trkpt lat="47.81608" lon="7.02504">
        <ele>1074</ele>
        <time>2017-04-30T14:03:20Z</time>
      </trkpt>
      <trkpt lat="47.81602" lon="7.02515">
        <ele>1075</ele>
        <time>2017-04-30T14:03:26Z</time>
      </trkpt>
      <trkpt lat="47.81591" lon="7.0252">
        <ele>1075</ele>
        <time>2017-04-30T14:03:35Z</time>
      </trkpt>
      <trkpt lat="47.81582" lon="7.02525">
        <ele>1072</ele>
        <time>2017-04-30T14:03:44Z</time>
      </trkpt>
      <trkpt lat="47.81571" lon="7.02531">
        <ele>1070</ele>
        <time>2017-04-30T14:03:58Z</time>
      </trkpt>
      <trkpt lat="47.81567" lon="7.02545">
        <ele>1066</ele>
        <time>2017-04-30T14:04:11Z</time>
      </trkpt>
      <trkpt lat="47.81558" lon="7.02549">
        <ele>1066</ele>
        <time>2017-04-30T14:04:17Z</time>
      </trkpt>
      <trkpt lat="47.81552" lon="7.02559">
        <ele>1071</ele>
        <time>2017-04-30T14:04:22Z</time>
      </trkpt>
      <trkpt lat="47.81546" lon="7.0257">
        <ele>1072</ele>
        <time>2017-04-30T14:04:32Z</time>
      </trkpt>
      <trkpt lat="47.81537" lon="7.02575">
        <ele>1065</ele>
        <time>2017-04-30T14:04:50Z</time>
      </trkpt>
      <trkpt lat="47.81527" lon="7.02584">
        <ele>1061</ele>
        <time>2017-04-30T14:05:11Z</time>
      </trkpt>
      <trkpt lat="47.81521" lon="7.02595">
        <ele>1060</ele>
        <time>2017-04-30T14:05:17Z</time>
      </trkpt>
      <trkpt lat="47.81514" lon="7.02604">
        <ele>1062</ele>
        <time>2017-04-30T14:05:24Z</time>
      </trkpt>
      <trkpt lat="47.81507" lon="7.02613">
        <ele>1061</ele>
        <time>2017-04-30T14:05:30Z</time>
      </trkpt>
      <trkpt lat="47.81498" lon="7.02622">
        <ele>1062</ele>
        <time>2017-04-30T14:05:37Z</time>
      </trkpt>
      <trkpt lat="47.81498" lon="7.02622">
        <ele>1062</ele>
        <time>2017-04-30T14:05:37Z</time>
      </trkpt>
      <trkpt lat="47.81498" lon="7.02622">
        <ele>1062</ele>
        <time>2017-04-30T14:05:37Z</time>
      </trkpt>
      <trkpt lat="47.81496" lon="7.02636">
        <ele>1061</ele>
        <time>2017-04-30T14:06:09Z</time>
      </trkpt>
      <trkpt lat="47.81488" lon="7.02647">
        <ele>1062</ele>
        <time>2017-04-30T14:06:17Z</time>
      </trkpt>
      <trkpt lat="47.8149" lon="7.0266">
        <ele>1063</ele>
        <time>2017-04-30T14:06:28Z</time>
      </trkpt>
      <trkpt lat="47.81489" lon="7.02675">
        <ele>1057</ele>
        <time>2017-04-30T14:06:50Z</time>
      </trkpt>
      <trkpt lat="47.8149" lon="7.02689">
        <ele>1053</ele>
        <time>2017-04-30T14:07:01Z</time>
      </trkpt>
      <trkpt lat="47.81492" lon="7.02702">
        <ele>1054</ele>
        <time>2017-04-30T14:07:09Z</time>
      </trkpt>
      <trkpt lat="47.81494" lon="7.02716">
        <ele>1055</ele>
        <time>2017-04-30T14:07:16Z</time>
      </trkpt>
      <trkpt lat="47.81503" lon="7.0272">
        <ele>1048</ele>
        <time>2017-04-30T14:07:23Z</time>
      </trkpt>
      <trkpt lat="47.81506" lon="7.02733">
        <ele>1048</ele>
        <time>2017-04-30T14:07:29Z</time>
      </trkpt>
      <trkpt lat="47.81513" lon="7.02745">
        <ele>1046</ele>
        <time>2017-04-30T14:07:37Z</time>
      </trkpt>
      <trkpt lat="47.81514" lon="7.02751">
        <ele>1044</ele>
        <time>2017-04-30T14:07:54Z</time>
      </trkpt>
      <trkpt lat="47.81521" lon="7.02761">
        <ele>1035</ele>
        <time>2017-04-30T14:08:11Z</time>
      </trkpt>
      <trkpt lat="47.81522" lon="7.02775">
        <ele>1035</ele>
        <time>2017-04-30T14:08:23Z</time>
      </trkpt>
      <trkpt lat="47.81525" lon="7.02788">
        <ele>1038</ele>
        <time>2017-04-30T14:08:31Z</time>
      </trkpt>
      <trkpt lat="47.81534" lon="7.0279">
        <ele>1039</ele>
        <time>2017-04-30T14:08:34Z</time>
      </trkpt>
      <trkpt lat="47.8154" lon="7.028">
        <ele>1038</ele>
        <time>2017-04-30T14:08:41Z</time>
      </trkpt>
      <trkpt lat="47.81548" lon="7.02807">
        <ele>1038</ele>
        <time>2017-04-30T14:08:54Z</time>
      </trkpt>
      <trkpt lat="47.81552" lon="7.0282">
        <ele>1038</ele>
        <time>2017-04-30T14:09:05Z</time>
      </trkpt>
      <trkpt lat="47.81557" lon="7.02834">
        <ele>1040</ele>
        <time>2017-04-30T14:09:17Z</time>
      </trkpt>
      <trkpt lat="47.81565" lon="7.02841">
        <ele>1040</ele>
        <time>2017-04-30T14:09:24Z</time>
      </trkpt>
      <trkpt lat="47.81571" lon="7.02851">
        <ele>1041</ele>
        <time>2017-04-30T14:09:34Z</time>
      </trkpt>
      <trkpt lat="47.81579" lon="7.02857">
        <ele>1041</ele>
        <time>2017-04-30T14:09:42Z</time>
      </trkpt>
      <trkpt lat="47.81587" lon="7.02868">
        <ele>1042</ele>
        <time>2017-04-30T14:09:51Z</time>
      </trkpt>
      <trkpt lat="47.81593" lon="7.02878">
        <ele>1041</ele>
        <time>2017-04-30T14:10:01Z</time>
      </trkpt>
      <trkpt lat="47.81603" lon="7.02908">
        <ele>1038</ele>
        <time>2017-04-30T14:23:57Z</time>
      </trkpt>
      <trkpt lat="47.81611" lon="7.02908">
        <ele>1029</ele>
        <time>2017-04-30T14:24:25Z</time>
      </trkpt>
      <trkpt lat="47.8162" lon="7.02913">
        <ele>1029</ele>
        <time>2017-04-30T14:24:27Z</time>
      </trkpt>
      <trkpt lat="47.81617" lon="7.02928">
        <ele>1030</ele>
        <time>2017-04-30T14:24:31Z</time>
      </trkpt>
      <trkpt lat="47.81619" lon="7.02943">
        <ele>1031</ele>
        <time>2017-04-30T14:24:36Z</time>
      </trkpt>
      <trkpt lat="47.81617" lon="7.02957">
        <ele>1034</ele>
        <time>2017-04-30T14:24:39Z</time>
      </trkpt>
      <trkpt lat="47.81614" lon="7.0297">
        <ele>1036</ele>
        <time>2017-04-30T14:24:53Z</time>
      </trkpt>
      <trkpt lat="47.8161" lon="7.02987">
        <ele>1028</ele>
        <time>2017-04-30T14:25:10Z</time>
      </trkpt>
      <trkpt lat="47.81612" lon="7.03">
        <ele>1020</ele>
        <time>2017-04-30T14:25:23Z</time>
      </trkpt>
      <trkpt lat="47.81604" lon="7.03017">
        <ele>1023</ele>
        <time>2017-04-30T14:25:30Z</time>
      </trkpt>
      <trkpt lat="47.81607" lon="7.03032">
        <ele>1018</ele>
        <time>2017-04-30T14:25:40Z</time>
      </trkpt>
      <trkpt lat="47.81602" lon="7.03046">
        <ele>1016</ele>
        <time>2017-04-30T14:25:44Z</time>
      </trkpt>
      <trkpt lat="47.81595" lon="7.03058">
        <ele>1017</ele>
        <time>2017-04-30T14:25:53Z</time>
      </trkpt>
      <trkpt lat="47.8159" lon="7.03072">
        <ele>1018</ele>
        <time>2017-04-30T14:26:02Z</time>
      </trkpt>
      <trkpt lat="47.81581" lon="7.03079">
        <ele>1013</ele>
        <time>2017-04-30T14:26:12Z</time>
      </trkpt>
      <trkpt lat="47.81592" lon="7.03061">
        <ele>1002</ele>
        <time>2017-04-30T14:26:24Z</time>
      </trkpt>
      <trkpt lat="47.81601" lon="7.0306">
        <ele>999</ele>
        <time>2017-04-30T14:26:29Z</time>
      </trkpt>
      <trkpt lat="47.81592" lon="7.03062">
        <ele>993</ele>
        <time>2017-04-30T14:26:33Z</time>
      </trkpt>
      <trkpt lat="47.8159" lon="7.03077">
        <ele>988</ele>
        <time>2017-04-30T14:26:38Z</time>
      </trkpt>
      <trkpt lat="47.81594" lon="7.03091">
        <ele>985</ele>
        <time>2017-04-30T14:26:48Z</time>
      </trkpt>
      <trkpt lat="47.81587" lon="7.03099">
        <ele>987</ele>
        <time>2017-04-30T14:26:53Z</time>
      </trkpt>
      <trkpt lat="47.8158" lon="7.03111">
        <ele>986</ele>
        <time>2017-04-30T14:27:02Z</time>
      </trkpt>
      <trkpt lat="47.81575" lon="7.03121">
        <ele>981</ele>
        <time>2017-04-30T14:27:15Z</time>
      </trkpt>
      <trkpt lat="47.81568" lon="7.03131">
        <ele>983</ele>
        <time>2017-04-30T14:27:22Z</time>
      </trkpt>
      <trkpt lat="47.81566" lon="7.03145">
        <ele>986</ele>
        <time>2017-04-30T14:27:29Z</time>
      </trkpt>
      <trkpt lat="47.8156" lon="7.03155">
        <ele>982</ele>
        <time>2017-04-30T14:27:40Z</time>
      </trkpt>
      <trkpt lat="47.81551" lon="7.03165">
        <ele>981</ele>
        <time>2017-04-30T14:27:46Z</time>
      </trkpt>
      <trkpt lat="47.81545" lon="7.03174">
        <ele>983</ele>
        <time>2017-04-30T14:27:55Z</time>
      </trkpt>
      <trkpt lat="47.81536" lon="7.03179">
        <ele>975</ele>
        <time>2017-04-30T14:28:09Z</time>
      </trkpt>
      <trkpt lat="47.81532" lon="7.03182">
        <ele>968</ele>
        <time>2017-04-30T14:28:17Z</time>
      </trkpt>
      <trkpt lat="47.81532" lon="7.03182">
        <ele>968</ele>
        <time>2017-04-30T14:28:17Z</time>
      </trkpt>
      <trkpt lat="47.81524" lon="7.03199">
        <ele>966</ele>
        <time>2017-04-30T14:30:40Z</time>
      </trkpt>
      <trkpt lat="47.81517" lon="7.03208">
        <ele>963</ele>
        <time>2017-04-30T14:30:45Z</time>
      </trkpt>
      <trkpt lat="47.81513" lon="7.03225">
        <ele>962</ele>
        <time>2017-04-30T14:30:50Z</time>
      </trkpt>
      <trkpt lat="47.81504" lon="7.03223">
        <ele>963</ele>
        <time>2017-04-30T14:30:54Z</time>
      </trkpt>
      <trkpt lat="47.81495" lon="7.03226">
        <ele>960</ele>
        <time>2017-04-30T14:30:58Z</time>
      </trkpt>
      <trkpt lat="47.81486" lon="7.03231">
        <ele>959</ele>
        <time>2017-04-30T14:31:03Z</time>
      </trkpt>
      <trkpt lat="47.81475" lon="7.03232">
        <ele>960</ele>
        <time>2017-04-30T14:31:09Z</time>
      </trkpt>
      <trkpt lat="47.81464" lon="7.03233">
        <ele>960</ele>
        <time>2017-04-30T14:31:17Z</time>
      </trkpt>
      <trkpt lat="47.81454" lon="7.03225">
        <ele>961</ele>
        <time>2017-04-30T14:31:21Z</time>
      </trkpt>
      <trkpt lat="47.81449" lon="7.03236">
        <ele>960</ele>
        <time>2017-04-30T14:31:37Z</time>
      </trkpt>
      <trkpt lat="47.81438" lon="7.03233">
        <ele>958</ele>
        <time>2017-04-30T14:31:42Z</time>
      </trkpt>
      <trkpt lat="47.81425" lon="7.03238">
        <ele>955</ele>
        <time>2017-04-30T14:31:52Z</time>
      </trkpt>
      <trkpt lat="47.81415" lon="7.03237">
        <ele>954</ele>
        <time>2017-04-30T14:32:02Z</time>
      </trkpt>
      <trkpt lat="47.81404" lon="7.03239">
        <ele>956</ele>
        <time>2017-04-30T14:32:13Z</time>
      </trkpt>
      <trkpt lat="47.81395" lon="7.03241">
        <ele>952</ele>
        <time>2017-04-30T14:32:23Z</time>
      </trkpt>
      <trkpt lat="47.81386" lon="7.03244">
        <ele>945</ele>
        <time>2017-04-30T14:32:33Z</time>
      </trkpt>
      <trkpt lat="47.81376" lon="7.03243">
        <ele>945</ele>
        <time>2017-04-30T14:32:44Z</time>
      </trkpt>
      <trkpt lat="47.81367" lon="7.03242">
        <ele>942</ele>
        <time>2017-04-30T14:32:52Z</time>
      </trkpt>
      <trkpt lat="47.81357" lon="7.0324">
        <ele>947</ele>
        <time>2017-04-30T14:33:03Z</time>
      </trkpt>
      <trkpt lat="47.81346" lon="7.03248">
        <ele>946</ele>
        <time>2017-04-30T14:33:07Z</time>
      </trkpt>
      <trkpt lat="47.81337" lon="7.03252">
        <ele>943</ele>
        <time>2017-04-30T14:33:12Z</time>
      </trkpt>
      <trkpt lat="47.81337" lon="7.03236">
        <ele>945</ele>
        <time>2017-04-30T14:33:20Z</time>
      </trkpt>
      <trkpt lat="47.81327" lon="7.03238">
        <ele>945</ele>
        <time>2017-04-30T14:33:26Z</time>
      </trkpt>
      <trkpt lat="47.81319" lon="7.03246">
        <ele>944</ele>
        <time>2017-04-30T14:33:34Z</time>
      </trkpt>
      <trkpt lat="47.81308" lon="7.03251">
        <ele>938</ele>
        <time>2017-04-30T14:33:43Z</time>
      </trkpt>
      <trkpt lat="47.81298" lon="7.0325">
        <ele>935</ele>
        <time>2017-04-30T14:33:50Z</time>
      </trkpt>
      <trkpt lat="47.81287" lon="7.03247">
        <ele>935</ele>
        <time>2017-04-30T14:34:01Z</time>
      </trkpt>
      <trkpt lat="47.81279" lon="7.03239">
        <ele>937</ele>
        <time>2017-04-30T14:34:09Z</time>
      </trkpt>
      <trkpt lat="47.81267" lon="7.03238">
        <ele>935</ele>
        <time>2017-04-30T14:34:26Z</time>
      </trkpt>
      <trkpt lat="47.81253" lon="7.03242">
        <ele>933</ele>
        <time>2017-04-30T14:34:35Z</time>
      </trkpt>
      <trkpt lat="47.81245" lon="7.03248">
        <ele>931</ele>
        <time>2017-04-30T14:34:44Z</time>
      </trkpt>
      <trkpt lat="47.81234" lon="7.03249">
        <ele>927</ele>
        <time>2017-04-30T14:34:55Z</time>
      </trkpt>
      <trkpt lat="47.81223" lon="7.03252">
        <ele>928</ele>
        <time>2017-04-30T14:35:04Z</time>
      </trkpt>
      <trkpt lat="47.81209" lon="7.03257">
        <ele>931</ele>
        <time>2017-04-30T14:35:35Z</time>
      </trkpt>
      <trkpt lat="47.81197" lon="7.03268">
        <ele>930</ele>
        <time>2017-04-30T14:35:36Z</time>
      </trkpt>
      <trkpt lat="47.81181" lon="7.03263">
        <ele>927</ele>
        <time>2017-04-30T14:35:42Z</time>
      </trkpt>
      <trkpt lat="47.81189" lon="7.0327">
        <ele>925</ele>
        <time>2017-04-30T14:35:52Z</time>
      </trkpt>
      <trkpt lat="47.81181" lon="7.03279">
        <ele>925</ele>
        <time>2017-04-30T14:36:01Z</time>
      </trkpt>
      <trkpt lat="47.81177" lon="7.03295">
        <ele>926</ele>
        <time>2017-04-30T14:36:11Z</time>
      </trkpt>
      <trkpt lat="47.81165" lon="7.03306">
        <ele>936</ele>
        <time>2017-04-30T14:36:40Z</time>
      </trkpt>
      <trkpt lat="47.81156" lon="7.03316">
        <ele>935</ele>
        <time>2017-04-30T14:36:51Z</time>
      </trkpt>
      <trkpt lat="47.81147" lon="7.03317">
        <ele>930</ele>
        <time>2017-04-30T14:37:03Z</time>
      </trkpt>
      <trkpt lat="47.81137" lon="7.03319">
        <ele>924</ele>
        <time>2017-04-30T14:37:15Z</time>
      </trkpt>
      <trkpt lat="47.81126" lon="7.03322">
        <ele>922</ele>
        <time>2017-04-30T14:37:27Z</time>
      </trkpt>
      <trkpt lat="47.81116" lon="7.03324">
        <ele>922</ele>
        <time>2017-04-30T14:37:34Z</time>
      </trkpt>
      <trkpt lat="47.81106" lon="7.03326">
        <ele>922</ele>
        <time>2017-04-30T14:37:42Z</time>
      </trkpt>
      <trkpt lat="47.81094" lon="7.03329">
        <ele>917</ele>
        <time>2017-04-30T14:38:17Z</time>
      </trkpt>
      <trkpt lat="47.81084" lon="7.0333">
        <ele>914</ele>
        <time>2017-04-30T14:38:28Z</time>
      </trkpt>
      <trkpt lat="47.81075" lon="7.03331">
        <ele>915</ele>
        <time>2017-04-30T14:38:35Z</time>
      </trkpt>
      <trkpt lat="47.81064" lon="7.03335">
        <ele>911</ele>
        <time>2017-04-30T14:38:51Z</time>
      </trkpt>
      <trkpt lat="47.81056" lon="7.03331">
        <ele>912</ele>
        <time>2017-04-30T14:39:00Z</time>
      </trkpt>
      <trkpt lat="47.81048" lon="7.03343">
        <ele>913</ele>
        <time>2017-04-30T14:39:25Z</time>
      </trkpt>
      <trkpt lat="47.81041" lon="7.03354">
        <ele>915</ele>
        <time>2017-04-30T14:39:33Z</time>
      </trkpt>
      <trkpt lat="47.81038" lon="7.03354">
        <ele>910</ele>
        <time>2017-04-30T14:59:16Z</time>
      </trkpt>
      <trkpt lat="47.81031" lon="7.03348">
        <ele>910</ele>
        <time>2017-04-30T14:59:39Z</time>
      </trkpt>
      <trkpt lat="47.81028" lon="7.03349">
        <ele>906</ele>
        <time>2017-04-30T15:00:05Z</time>
      </trkpt>
      <trkpt lat="47.81019" lon="7.03347">
        <ele>904</ele>
        <time>2017-04-30T15:00:17Z</time>
      </trkpt>
      <trkpt lat="47.81012" lon="7.03355">
        <ele>901</ele>
        <time>2017-04-30T15:00:39Z</time>
      </trkpt>
      <trkpt lat="47.81002" lon="7.03362">
        <ele>900</ele>
        <time>2017-04-30T15:00:58Z</time>
      </trkpt>
      <trkpt lat="47.80992" lon="7.03367">
        <ele>894</ele>
        <time>2017-04-30T15:01:56Z</time>
      </trkpt>
      <trkpt lat="47.80982" lon="7.03378">
        <ele>896</ele>
        <time>2017-04-30T15:02:00Z</time>
      </trkpt>
      <trkpt lat="47.80974" lon="7.03386">
        <ele>895</ele>
        <time>2017-04-30T15:02:13Z</time>
      </trkpt>
      <trkpt lat="47.80967" lon="7.03396">
        <ele>895</ele>
        <time>2017-04-30T15:02:28Z</time>
      </trkpt>
      <trkpt lat="47.80967" lon="7.03393">
        <ele>888</ele>
        <time>2017-04-30T15:02:51Z</time>
      </trkpt>
      <trkpt lat="47.80958" lon="7.03399">
        <ele>893</ele>
        <time>2017-04-30T15:02:57Z</time>
      </trkpt>
      <trkpt lat="47.80951" lon="7.03389">
        <ele>890</ele>
        <time>2017-04-30T15:03:16Z</time>
      </trkpt>
      <trkpt lat="47.80946" lon="7.03377">
        <ele>888</ele>
        <time>2017-04-30T15:03:33Z</time>
      </trkpt>
      <trkpt lat="47.80937" lon="7.03369">
        <ele>885</ele>
        <time>2017-04-30T15:03:46Z</time>
      </trkpt>
      <trkpt lat="47.8093" lon="7.0336">
        <ele>883</ele>
        <time>2017-04-30T15:03:56Z</time>
      </trkpt>
      <trkpt lat="47.80924" lon="7.0335">
        <ele>882</ele>
        <time>2017-04-30T15:04:07Z</time>
      </trkpt>
      <trkpt lat="47.80917" lon="7.03339">
        <ele>880</ele>
        <time>2017-04-30T15:04:17Z</time>
      </trkpt>
      <trkpt lat="47.80911" lon="7.03329">
        <ele>877</ele>
        <time>2017-04-30T15:04:28Z</time>
      </trkpt>
      <trkpt lat="47.80904" lon="7.03318">
        <ele>874</ele>
        <time>2017-04-30T15:04:39Z</time>
      </trkpt>
      <trkpt lat="47.809" lon="7.03312">
        <ele>872</ele>
        <time>2017-04-30T15:04:58Z</time>
      </trkpt>
      <trkpt lat="47.80892" lon="7.03305">
        <ele>872</ele>
        <time>2017-04-30T15:05:09Z</time>
      </trkpt>
      <trkpt lat="47.80884" lon="7.03299">
        <ele>870</ele>
        <time>2017-04-30T15:05:23Z</time>
      </trkpt>
      <trkpt lat="47.80874" lon="7.03289">
        <ele>867</ele>
        <time>2017-04-30T15:05:49Z</time>
      </trkpt>
      <trkpt lat="47.80864" lon="7.03287">
        <ele>866</ele>
        <time>2017-04-30T15:06:00Z</time>
      </trkpt>
      <trkpt lat="47.80856" lon="7.0328">
        <ele>866</ele>
        <time>2017-04-30T15:06:08Z</time>
      </trkpt>
      <trkpt lat="47.80848" lon="7.03273">
        <ele>865</ele>
        <time>2017-04-30T15:06:16Z</time>
      </trkpt>
      <trkpt lat="47.80839" lon="7.03267">
        <ele>861</ele>
        <time>2017-04-30T15:06:29Z</time>
      </trkpt>
      <trkpt lat="47.80831" lon="7.03262">
        <ele>859</ele>
        <time>2017-04-30T15:06:39Z</time>
      </trkpt>
      <trkpt lat="47.80822" lon="7.03258">
        <ele>859</ele>
        <time>2017-04-30T15:06:49Z</time>
      </trkpt>
      <trkpt lat="47.80813" lon="7.03251">
        <ele>858</ele>
        <time>2017-04-30T15:06:58Z</time>
      </trkpt>
      <trkpt lat="47.80806" lon="7.03241">
        <ele>856</ele>
        <time>2017-04-30T15:07:09Z</time>
      </trkpt>
      <trkpt lat="47.80796" lon="7.03236">
        <ele>854</ele>
        <time>2017-04-30T15:07:18Z</time>
      </trkpt>
      <trkpt lat="47.80795" lon="7.03252">
        <ele>854</ele>
        <time>2017-04-30T15:07:26Z</time>
      </trkpt>
      <trkpt lat="47.80798" lon="7.03264">
        <ele>851</ele>
        <time>2017-04-30T15:07:34Z</time>
      </trkpt>
      <trkpt lat="47.80803" lon="7.03276">
        <ele>849</ele>
        <time>2017-04-30T15:07:45Z</time>
      </trkpt>
      <trkpt lat="47.80813" lon="7.03285">
        <ele>847</ele>
        <time>2017-04-30T15:07:55Z</time>
      </trkpt>
      <trkpt lat="47.8082" lon="7.03295">
        <ele>845</ele>
        <time>2017-04-30T15:08:03Z</time>
      </trkpt>
      <trkpt lat="47.80827" lon="7.03303">
        <ele>846</ele>
        <time>2017-04-30T15:08:10Z</time>
      </trkpt>
      <trkpt lat="47.80836" lon="7.0331">
        <ele>847</ele>
        <time>2017-04-30T15:08:18Z</time>
      </trkpt>
      <trkpt lat="47.80842" lon="7.03322">
        <ele>844</ele>
        <time>2017-04-30T15:08:27Z</time>
      </trkpt>
      <trkpt lat="47.80849" lon="7.03332">
        <ele>842</ele>
        <time>2017-04-30T15:08:35Z</time>
      </trkpt>
      <trkpt lat="47.80854" lon="7.03344">
        <ele>841</ele>
        <time>2017-04-30T15:08:42Z</time>
      </trkpt>
      <trkpt lat="47.80858" lon="7.03356">
        <ele>842</ele>
        <time>2017-04-30T15:08:49Z</time>
      </trkpt>
      <trkpt lat="47.80863" lon="7.03368">
        <ele>842</ele>
        <time>2017-04-30T15:08:57Z</time>
      </trkpt>
      <trkpt lat="47.80863" lon="7.03383">
        <ele>841</ele>
        <time>2017-04-30T15:09:07Z</time>
      </trkpt>
      <trkpt lat="47.80857" lon="7.03396">
        <ele>840</ele>
        <time>2017-04-30T15:09:16Z</time>
      </trkpt>
      <trkpt lat="47.80852" lon="7.03407">
        <ele>841</ele>
        <time>2017-04-30T15:09:24Z</time>
      </trkpt>
      <trkpt lat="47.80844" lon="7.03416">
        <ele>842</ele>
        <time>2017-04-30T15:09:30Z</time>
      </trkpt>
      <trkpt lat="47.80837" lon="7.03426">
        <ele>841</ele>
        <time>2017-04-30T15:09:40Z</time>
      </trkpt>
      <trkpt lat="47.8083" lon="7.03436">
        <ele>841</ele>
        <time>2017-04-30T15:09:52Z</time>
      </trkpt>
      <trkpt lat="47.80823" lon="7.03445">
        <ele>843</ele>
        <time>2017-04-30T15:09:58Z</time>
      </trkpt>
      <trkpt lat="47.80818" lon="7.03457">
        <ele>841</ele>
        <time>2017-04-30T15:10:07Z</time>
      </trkpt>
      <trkpt lat="47.80814" lon="7.03469">
        <ele>842</ele>
        <time>2017-04-30T15:10:14Z</time>
      </trkpt>
      <trkpt lat="47.80811" lon="7.03482">
        <ele>842</ele>
        <time>2017-04-30T15:10:21Z</time>
      </trkpt>
      <trkpt lat="47.80805" lon="7.03498">
        <ele>841</ele>
        <time>2017-04-30T15:10:31Z</time>
      </trkpt>
      <trkpt lat="47.80801" lon="7.0351">
        <ele>841</ele>
        <time>2017-04-30T15:10:38Z</time>
      </trkpt>
      <trkpt lat="47.80795" lon="7.03524">
        <ele>840</ele>
        <time>2017-04-30T15:10:48Z</time>
      </trkpt>
      <trkpt lat="47.80792" lon="7.03537">
        <ele>837</ele>
        <time>2017-04-30T15:10:56Z</time>
      </trkpt>
      <trkpt lat="47.8079" lon="7.03551">
        <ele>834</ele>
        <time>2017-04-30T15:11:05Z</time>
      </trkpt>
      <trkpt lat="47.80787" lon="7.03565">
        <ele>830</ele>
        <time>2017-04-30T15:11:15Z</time>
      </trkpt>
      <trkpt lat="47.80783" lon="7.03578">
        <ele>833</ele>
        <time>2017-04-30T15:11:21Z</time>
      </trkpt>
      <trkpt lat="47.80778" lon="7.03591">
        <ele>836</ele>
        <time>2017-04-30T15:11:28Z</time>
      </trkpt>
      <trkpt lat="47.80771" lon="7.03601">
        <ele>840</ele>
        <time>2017-04-30T15:11:34Z</time>
      </trkpt>
      <trkpt lat="47.80763" lon="7.03609">
        <ele>841</ele>
        <time>2017-04-30T15:11:40Z</time>
      </trkpt>
      <trkpt lat="47.80754" lon="7.03614">
        <ele>840</ele>
        <time>2017-04-30T15:11:48Z</time>
      </trkpt>
      <trkpt lat="47.80746" lon="7.03621">
        <ele>843</ele>
        <time>2017-04-30T15:11:54Z</time>
      </trkpt>
      <trkpt lat="47.80737" lon="7.03627">
        <ele>843</ele>
        <time>2017-04-30T15:12:02Z</time>
      </trkpt>
      <trkpt lat="47.80728" lon="7.03631">
        <ele>846</ele>
        <time>2017-04-30T15:12:07Z</time>
      </trkpt>
      <trkpt lat="47.80718" lon="7.03636">
        <ele>843</ele>
        <time>2017-04-30T15:12:21Z</time>
      </trkpt>
      <trkpt lat="47.8071" lon="7.03644">
        <ele>845</ele>
        <time>2017-04-30T15:12:27Z</time>
      </trkpt>
      <trkpt lat="47.80703" lon="7.03653">
        <ele>843</ele>
        <time>2017-04-30T15:12:35Z</time>
      </trkpt>
      <trkpt lat="47.80695" lon="7.03664">
        <ele>836</ele>
        <time>2017-04-30T15:12:46Z</time>
      </trkpt>
      <trkpt lat="47.80687" lon="7.03671">
        <ele>835</ele>
        <time>2017-04-30T15:12:52Z</time>
      </trkpt>
      <trkpt lat="47.80679" lon="7.03677">
        <ele>838</ele>
        <time>2017-04-30T15:12:59Z</time>
      </trkpt>
      <trkpt lat="47.80671" lon="7.03685">
        <ele>838</ele>
        <time>2017-04-30T15:13:05Z</time>
      </trkpt>
      <trkpt lat="47.80663" lon="7.03692">
        <ele>839</ele>
        <time>2017-04-30T15:13:11Z</time>
      </trkpt>
      <trkpt lat="47.80654" lon="7.037">
        <ele>839</ele>
        <time>2017-04-30T15:13:19Z</time>
      </trkpt>
      <trkpt lat="47.80645" lon="7.03704">
        <ele>841</ele>
        <time>2017-04-30T15:13:27Z</time>
      </trkpt>
      <trkpt lat="47.80636" lon="7.03707">
        <ele>844</ele>
        <time>2017-04-30T15:13:33Z</time>
      </trkpt>
      <trkpt lat="47.80626" lon="7.03711">
        <ele>845</ele>
        <time>2017-04-30T15:13:40Z</time>
      </trkpt>
      <trkpt lat="47.80617" lon="7.03714">
        <ele>846</ele>
        <time>2017-04-30T15:13:48Z</time>
      </trkpt>
      <trkpt lat="47.80608" lon="7.03718">
        <ele>845</ele>
        <time>2017-04-30T15:13:55Z</time>
      </trkpt>
      <trkpt lat="47.806" lon="7.03724">
        <ele>844</ele>
        <time>2017-04-30T15:14:03Z</time>
      </trkpt>
      <trkpt lat="47.8059" lon="7.03729">
        <ele>845</ele>
        <time>2017-04-30T15:14:13Z</time>
      </trkpt>
      <trkpt lat="47.80581" lon="7.0373">
        <ele>844</ele>
        <time>2017-04-30T15:14:22Z</time>
      </trkpt>
      <trkpt lat="47.80571" lon="7.03737">
        <ele>848</ele>
        <time>2017-04-30T15:14:28Z</time>
      </trkpt>
      <trkpt lat="47.80563" lon="7.03743">
        <ele>846</ele>
        <time>2017-04-30T15:14:37Z</time>
      </trkpt>
      <trkpt lat="47.80555" lon="7.03753">
        <ele>846</ele>
        <time>2017-04-30T15:14:43Z</time>
      </trkpt>
      <trkpt lat="47.80548" lon="7.03763">
        <ele>840</ele>
        <time>2017-04-30T15:14:53Z</time>
      </trkpt>
      <trkpt lat="47.80541" lon="7.03772">
        <ele>842</ele>
        <time>2017-04-30T15:14:58Z</time>
      </trkpt>
      <trkpt lat="47.80532" lon="7.03779">
        <ele>843</ele>
        <time>2017-04-30T15:15:09Z</time>
      </trkpt>
      <trkpt lat="47.80528" lon="7.03792">
        <ele>839</ele>
        <time>2017-04-30T15:15:18Z</time>
      </trkpt>
      <trkpt lat="47.80521" lon="7.03802">
        <ele>838</ele>
        <time>2017-04-30T15:15:25Z</time>
      </trkpt>
      <trkpt lat="47.80513" lon="7.03811">
        <ele>839</ele>
        <time>2017-04-30T15:15:30Z</time>
      </trkpt>
      <trkpt lat="47.80515" lon="7.03826">
        <ele>839</ele>
        <time>2017-04-30T15:15:39Z</time>
      </trkpt>
      <trkpt lat="47.8051" lon="7.03839">
        <ele>840</ele>
        <time>2017-04-30T15:15:46Z</time>
      </trkpt>
      <trkpt lat="47.80517" lon="7.03849">
        <ele>838</ele>
        <time>2017-04-30T15:15:51Z</time>
      </trkpt>
      <trkpt lat="47.80519" lon="7.03864">
        <ele>827</ele>
        <time>2017-04-30T15:16:07Z</time>
      </trkpt>
      <trkpt lat="47.80525" lon="7.03869">
        <ele>827</ele>
        <time>2017-04-30T15:16:30Z</time>
      </trkpt>
      <trkpt lat="47.80529" lon="7.0389">
        <ele>824</ele>
        <time>2017-04-30T15:16:50Z</time>
      </trkpt>
      <trkpt lat="47.80533" lon="7.03905">
        <ele>825</ele>
        <time>2017-04-30T15:16:57Z</time>
      </trkpt>
      <trkpt lat="47.80539" lon="7.03916">
        <ele>822</ele>
        <time>2017-04-30T15:17:06Z</time>
      </trkpt>
      <trkpt lat="47.80544" lon="7.03928">
        <ele>821</ele>
        <time>2017-04-30T15:17:15Z</time>
      </trkpt>
      <trkpt lat="47.80549" lon="7.0394">
        <ele>821</ele>
        <time>2017-04-30T15:17:23Z</time>
      </trkpt>
      <trkpt lat="47.80554" lon="7.03952">
        <ele>820</ele>
        <time>2017-04-30T15:17:33Z</time>
      </trkpt>
      <trkpt lat="47.8056" lon="7.03963">
        <ele>818</ele>
        <time>2017-04-30T15:17:41Z</time>
      </trkpt>
      <trkpt lat="47.80567" lon="7.03975">
        <ele>816</ele>
        <time>2017-04-30T15:17:51Z</time>
      </trkpt>
      <trkpt lat="47.80571" lon="7.03989">
        <ele>818</ele>
        <time>2017-04-30T15:17:57Z</time>
      </trkpt>
      <trkpt lat="47.80577" lon="7.04001">
        <ele>819</ele>
        <time>2017-04-30T15:18:04Z</time>
      </trkpt>
      <trkpt lat="47.8058" lon="7.04015">
        <ele>820</ele>
        <time>2017-04-30T15:18:12Z</time>
      </trkpt>
      <trkpt lat="47.80584" lon="7.04028">
        <ele>820</ele>
        <time>2017-04-30T15:18:20Z</time>
      </trkpt>
      <trkpt lat="47.80587" lon="7.04041">
        <ele>821</ele>
        <time>2017-04-30T15:18:26Z</time>
      </trkpt>
      <trkpt lat="47.80587" lon="7.04055">
        <ele>819</ele>
        <time>2017-04-30T15:18:33Z</time>
      </trkpt>
      <trkpt lat="47.80591" lon="7.0407">
        <ele>817</ele>
        <time>2017-04-30T15:18:41Z</time>
      </trkpt>
      <trkpt lat="47.80594" lon="7.04083">
        <ele>817</ele>
        <time>2017-04-30T15:18:49Z</time>
      </trkpt>
      <trkpt lat="47.80597" lon="7.04097">
        <ele>813</ele>
        <time>2017-04-30T15:19:00Z</time>
      </trkpt>
      <trkpt lat="47.806" lon="7.04111">
        <ele>816</ele>
        <time>2017-04-30T15:19:05Z</time>
      </trkpt>
      <trkpt lat="47.80603" lon="7.04126">
        <ele>820</ele>
        <time>2017-04-30T15:19:11Z</time>
      </trkpt>
      <trkpt lat="47.80605" lon="7.0414">
        <ele>813</ele>
        <time>2017-04-30T15:19:23Z</time>
      </trkpt>
      <trkpt lat="47.80609" lon="7.04155">
        <ele>814</ele>
        <time>2017-04-30T15:19:29Z</time>
      </trkpt>
      <trkpt lat="47.80611" lon="7.0417">
        <ele>809</ele>
        <time>2017-04-30T15:19:39Z</time>
      </trkpt>
      <trkpt lat="47.80616" lon="7.04183">
        <ele>810</ele>
        <time>2017-04-30T15:19:46Z</time>
      </trkpt>
      <trkpt lat="47.8062" lon="7.04195">
        <ele>807</ele>
        <time>2017-04-30T15:19:55Z</time>
      </trkpt>
      <trkpt lat="47.80626" lon="7.04207">
        <ele>806</ele>
        <time>2017-04-30T15:20:03Z</time>
      </trkpt>
      <trkpt lat="47.80632" lon="7.04218">
        <ele>802</ele>
        <time>2017-04-30T15:20:11Z</time>
      </trkpt>
      <trkpt lat="47.80637" lon="7.04229">
        <ele>803</ele>
        <time>2017-04-30T15:20:17Z</time>
      </trkpt>
      <trkpt lat="47.80644" lon="7.04238">
        <ele>805</ele>
        <time>2017-04-30T15:20:24Z</time>
      </trkpt>
      <trkpt lat="47.80649" lon="7.04251">
        <ele>803</ele>
        <time>2017-04-30T15:20:32Z</time>
      </trkpt>
      <trkpt lat="47.80647" lon="7.04265">
        <ele>800</ele>
        <time>2017-04-30T15:20:45Z</time>
      </trkpt>
      <trkpt lat="47.80651" lon="7.04279">
        <ele>796</ele>
        <time>2017-04-30T15:20:56Z</time>
      </trkpt>
      <trkpt lat="47.80649" lon="7.04293">
        <ele>796</ele>
        <time>2017-04-30T15:21:04Z</time>
      </trkpt>
      <trkpt lat="47.80653" lon="7.04306">
        <ele>792</ele>
        <time>2017-04-30T15:21:15Z</time>
      </trkpt>
      <trkpt lat="47.8066" lon="7.04316">
        <ele>792</ele>
        <time>2017-04-30T15:21:24Z</time>
      </trkpt>
      <trkpt lat="47.80666" lon="7.04328">
        <ele>795</ele>
        <time>2017-04-30T15:21:35Z</time>
      </trkpt>
      <trkpt lat="47.80661" lon="7.04344">
        <ele>792</ele>
        <time>2017-04-30T15:21:43Z</time>
      </trkpt>
      <trkpt lat="47.80664" lon="7.04358">
        <ele>797</ele>
        <time>2017-04-30T15:21:57Z</time>
      </trkpt>
      <trkpt lat="47.80673" lon="7.04364">
        <ele>798</ele>
        <time>2017-04-30T15:22:05Z</time>
      </trkpt>
      <trkpt lat="47.8068" lon="7.04372">
        <ele>804</ele>
        <time>2017-04-30T15:22:10Z</time>
      </trkpt>
      <trkpt lat="47.80687" lon="7.04384">
        <ele>805</ele>
        <time>2017-04-30T15:22:20Z</time>
      </trkpt>
      <trkpt lat="47.80688" lon="7.044">
        <ele>807</ele>
        <time>2017-04-30T15:22:27Z</time>
      </trkpt>
      <trkpt lat="47.80692" lon="7.04412">
        <ele>811</ele>
        <time>2017-04-30T15:22:35Z</time>
      </trkpt>
      <trkpt lat="47.807" lon="7.04422">
        <ele>814</ele>
        <time>2017-04-30T15:22:45Z</time>
      </trkpt>
      <trkpt lat="47.80706" lon="7.04435">
        <ele>813</ele>
        <time>2017-04-30T15:22:56Z</time>
      </trkpt>
      <trkpt lat="47.80714" lon="7.04444">
        <ele>813</ele>
        <time>2017-04-30T15:23:08Z</time>
      </trkpt>
      <trkpt lat="47.80718" lon="7.04458">
        <ele>814</ele>
        <time>2017-04-30T15:23:16Z</time>
      </trkpt>
      <trkpt lat="47.80723" lon="7.04473">
        <ele>817</ele>
        <time>2017-04-30T15:23:26Z</time>
      </trkpt>
      <trkpt lat="47.80732" lon="7.04479">
        <ele>819</ele>
        <time>2017-04-30T15:23:29Z</time>
      </trkpt>
      <trkpt lat="47.80733" lon="7.04493">
        <ele>818</ele>
        <time>2017-04-30T15:23:43Z</time>
      </trkpt>
      <trkpt lat="47.80732" lon="7.04508">
        <ele>807</ele>
        <time>2017-04-30T15:23:53Z</time>
      </trkpt>
      <trkpt lat="47.80736" lon="7.0452">
        <ele>807</ele>
        <time>2017-04-30T15:24:00Z</time>
      </trkpt>
      <trkpt lat="47.80741" lon="7.04532">
        <ele>807</ele>
        <time>2017-04-30T15:24:08Z</time>
      </trkpt>
      <trkpt lat="47.8075" lon="7.0454">
        <ele>806</ele>
        <time>2017-04-30T15:24:20Z</time>
      </trkpt>
      <trkpt lat="47.80754" lon="7.04554">
        <ele>804</ele>
        <time>2017-04-30T15:24:31Z</time>
      </trkpt>
      <trkpt lat="47.80755" lon="7.04568">
        <ele>804</ele>
        <time>2017-04-30T15:24:42Z</time>
      </trkpt>
      <trkpt lat="47.80756" lon="7.04582">
        <ele>807</ele>
        <time>2017-04-30T15:24:50Z</time>
      </trkpt>
      <trkpt lat="47.80763" lon="7.04591">
        <ele>811</ele>
        <time>2017-04-30T15:24:58Z</time>
      </trkpt>
      <trkpt lat="47.80773" lon="7.04598">
        <ele>806</ele>
        <time>2017-04-30T15:25:13Z</time>
      </trkpt>
      <trkpt lat="47.80783" lon="7.046">
        <ele>805</ele>
        <time>2017-04-30T15:25:29Z</time>
      </trkpt>
      <trkpt lat="47.80792" lon="7.04596">
        <ele>804</ele>
        <time>2017-04-30T15:25:35Z</time>
      </trkpt>
      <trkpt lat="47.80801" lon="7.04602">
        <ele>806</ele>
        <time>2017-04-30T15:25:41Z</time>
      </trkpt>
      <trkpt lat="47.80806" lon="7.04605">
        <ele>804</ele>
        <time>2017-04-30T15:25:47Z</time>
      </trkpt>
      <trkpt lat="47.80806" lon="7.04605">
        <ele>804</ele>
        <time>2017-04-30T15:25:47Z</time>
      </trkpt>
      <trkpt lat="47.80815" lon="7.04618">
        <ele>812</ele>
        <time>2017-04-30T15:26:22Z</time>
      </trkpt>
      <trkpt lat="47.80824" lon="7.04617">
        <ele>809</ele>
        <time>2017-04-30T15:26:31Z</time>
      </trkpt>
      <trkpt lat="47.80833" lon="7.04612">
        <ele>811</ele>
        <time>2017-04-30T15:26:50Z</time>
      </trkpt>
      <trkpt lat="47.80843" lon="7.04617">
        <ele>813</ele>
        <time>2017-04-30T15:27:05Z</time>
      </trkpt>
      <trkpt lat="47.80846" lon="7.04631">
        <ele>813</ele>
        <time>2017-04-30T15:27:13Z</time>
      </trkpt>
      <trkpt lat="47.80853" lon="7.04639">
        <ele>814</ele>
        <time>2017-04-30T15:27:27Z</time>
      </trkpt>
      <trkpt lat="47.80864" lon="7.0465">
        <ele>815</ele>
        <time>2017-04-30T15:27:35Z</time>
      </trkpt>
      <trkpt lat="47.80872" lon="7.04654">
        <ele>813</ele>
        <time>2017-04-30T15:27:45Z</time>
      </trkpt>
      <trkpt lat="47.80882" lon="7.04661">
        <ele>812</ele>
        <time>2017-04-30T15:27:50Z</time>
      </trkpt>
      <trkpt lat="47.80884" lon="7.04674">
        <ele>814</ele>
        <time>2017-04-30T15:28:02Z</time>
      </trkpt>
      <trkpt lat="47.80893" lon="7.04676">
        <ele>812</ele>
        <time>2017-04-30T15:28:12Z</time>
      </trkpt>
      <trkpt lat="47.80906" lon="7.04684">
        <ele>812</ele>
        <time>2017-04-30T15:28:19Z</time>
      </trkpt>
      <trkpt lat="47.80907" lon="7.04697">
        <ele>810</ele>
        <time>2017-04-30T15:28:23Z</time>
      </trkpt>
      <trkpt lat="47.80916" lon="7.04706">
        <ele>811</ele>
        <time>2017-04-30T15:28:28Z</time>
      </trkpt>
      <trkpt lat="47.80927" lon="7.04705">
        <ele>812</ele>
        <time>2017-04-30T15:28:32Z</time>
      </trkpt>
      <trkpt lat="47.8092" lon="7.04717">
        <ele>811</ele>
        <time>2017-04-30T15:28:41Z</time>
      </trkpt>
      <trkpt lat="47.80915" lon="7.0473">
        <ele>809</ele>
        <time>2017-04-30T15:28:49Z</time>
      </trkpt>
      <trkpt lat="47.80918" lon="7.04744">
        <ele>806</ele>
        <time>2017-04-30T15:28:59Z</time>
      </trkpt>
      <trkpt lat="47.80914" lon="7.04756">
        <ele>806</ele>
        <time>2017-04-30T15:29:04Z</time>
      </trkpt>
      <trkpt lat="47.80909" lon="7.04769">
        <ele>802</ele>
        <time>2017-04-30T15:29:09Z</time>
      </trkpt>
      <trkpt lat="47.80919" lon="7.04767">
        <ele>800</ele>
        <time>2017-04-30T15:29:14Z</time>
      </trkpt>
      <trkpt lat="47.80919" lon="7.04781">
        <ele>801</ele>
        <time>2017-04-30T15:29:20Z</time>
      </trkpt>
      <trkpt lat="47.80919" lon="7.04795">
        <ele>798</ele>
        <time>2017-04-30T15:29:29Z</time>
      </trkpt>
      <trkpt lat="47.80923" lon="7.0481">
        <ele>797</ele>
        <time>2017-04-30T15:29:38Z</time>
      </trkpt>
      <trkpt lat="47.80927" lon="7.04823">
        <ele>796</ele>
        <time>2017-04-30T15:29:45Z</time>
      </trkpt>
      <trkpt lat="47.80936" lon="7.04826">
        <ele>797</ele>
        <time>2017-04-30T15:29:50Z</time>
      </trkpt>
      <trkpt lat="47.80927" lon="7.04834">
        <ele>796</ele>
        <time>2017-04-30T15:30:02Z</time>
      </trkpt>
      <trkpt lat="47.80936" lon="7.0484">
        <ele>793</ele>
        <time>2017-04-30T15:30:18Z</time>
      </trkpt>
      <trkpt lat="47.80943" lon="7.04852">
        <ele>797</ele>
        <time>2017-04-30T15:30:36Z</time>
      </trkpt>
      <trkpt lat="47.80953" lon="7.04848">
        <ele>797</ele>
        <time>2017-04-30T15:30:42Z</time>
      </trkpt>
      <trkpt lat="47.8096" lon="7.04857">
        <ele>798</ele>
        <time>2017-04-30T15:30:52Z</time>
      </trkpt>
      <trkpt lat="47.80972" lon="7.04862">
        <ele>803</ele>
        <time>2017-04-30T15:31:05Z</time>
      </trkpt>
      <trkpt lat="47.80983" lon="7.04869">
        <ele>804</ele>
        <time>2017-04-30T15:31:14Z</time>
      </trkpt>
      <trkpt lat="47.80994" lon="7.04869">
        <ele>803</ele>
        <time>2017-04-30T15:31:23Z</time>
      </trkpt>
      <trkpt lat="47.81006" lon="7.04872">
        <ele>805</ele>
        <time>2017-04-30T15:32:03Z</time>
      </trkpt>
      <trkpt lat="47.81012" lon="7.04886">
        <ele>803</ele>
        <time>2017-04-30T15:32:09Z</time>
      </trkpt>
      <trkpt lat="47.81023" lon="7.04884">
        <ele>803</ele>
        <time>2017-04-30T15:32:12Z</time>
      </trkpt>
      <trkpt lat="47.81035" lon="7.04883">
        <ele>809</ele>
        <time>2017-04-30T15:32:17Z</time>
      </trkpt>
      <trkpt lat="47.81038" lon="7.04896">
        <ele>807</ele>
        <time>2017-04-30T15:32:23Z</time>
      </trkpt>
      <trkpt lat="47.81048" lon="7.04901">
        <ele>810</ele>
        <time>2017-04-30T15:32:29Z</time>
      </trkpt>
      <trkpt lat="47.81062" lon="7.04913">
        <ele>810</ele>
        <time>2017-04-30T15:33:06Z</time>
      </trkpt>
      <trkpt lat="47.81071" lon="7.04916">
        <ele>811</ele>
        <time>2017-04-30T15:33:09Z</time>
      </trkpt>
      <trkpt lat="47.81078" lon="7.04927">
        <ele>810</ele>
        <time>2017-04-30T15:33:14Z</time>
      </trkpt>
      <trkpt lat="47.81092" lon="7.04935">
        <ele>807</ele>
        <time>2017-04-30T15:33:18Z</time>
      </trkpt>
      <trkpt lat="47.81103" lon="7.04947">
        <ele>808</ele>
        <time>2017-04-30T15:33:22Z</time>
      </trkpt>
      <trkpt lat="47.81098" lon="7.04961">
        <ele>802</ele>
        <time>2017-04-30T15:33:26Z</time>
      </trkpt>
      <trkpt lat="47.81103" lon="7.04973">
        <ele>802</ele>
        <time>2017-04-30T15:33:31Z</time>
      </trkpt>
      <trkpt lat="47.81105" lon="7.04986">
        <ele>802</ele>
        <time>2017-04-30T15:33:39Z</time>
      </trkpt>
      <trkpt lat="47.81115" lon="7.0499">
        <ele>806</ele>
        <time>2017-04-30T15:33:45Z</time>
      </trkpt>
      <trkpt lat="47.81117" lon="7.05004">
        <ele>803</ele>
        <time>2017-04-30T15:33:50Z</time>
      </trkpt>
      <trkpt lat="47.81113" lon="7.05019">
        <ele>800</ele>
        <time>2017-04-30T15:33:59Z</time>
      </trkpt>
      <trkpt lat="47.81123" lon="7.05033">
        <ele>798</ele>
        <time>2017-04-30T15:34:03Z</time>
      </trkpt>
      <trkpt lat="47.81132" lon="7.05035">
        <ele>799</ele>
        <time>2017-04-30T15:34:08Z</time>
      </trkpt>
      <trkpt lat="47.81142" lon="7.05036">
        <ele>798</ele>
        <time>2017-04-30T15:34:14Z</time>
      </trkpt>
      <trkpt lat="47.81152" lon="7.05045">
        <ele>796</ele>
        <time>2017-04-30T15:34:24Z</time>
      </trkpt>
      <trkpt lat="47.81161" lon="7.05051">
        <ele>797</ele>
        <time>2017-04-30T15:34:28Z</time>
      </trkpt>
      <trkpt lat="47.81167" lon="7.05062">
        <ele>799</ele>
        <time>2017-04-30T15:34:34Z</time>
      </trkpt>
      <trkpt lat="47.81184" lon="7.05076">
        <ele>799</ele>
        <time>2017-04-30T15:35:15Z</time>
      </trkpt>
      <trkpt lat="47.81182" lon="7.05092">
        <ele>800</ele>
        <time>2017-04-30T15:35:20Z</time>
      </trkpt>
      <trkpt lat="47.81187" lon="7.05106">
        <ele>798</ele>
        <time>2017-04-30T15:35:29Z</time>
      </trkpt>
      <trkpt lat="47.81195" lon="7.05116">
        <ele>803</ele>
        <time>2017-04-30T15:35:36Z</time>
      </trkpt>
      <trkpt lat="47.81202" lon="7.05125">
        <ele>805</ele>
        <time>2017-04-30T15:35:42Z</time>
      </trkpt>
      <trkpt lat="47.81211" lon="7.05129">
        <ele>809</ele>
        <time>2017-04-30T15:35:47Z</time>
      </trkpt>
      <trkpt lat="47.81228" lon="7.05135">
        <ele>813</ele>
        <time>2017-04-30T15:36:41Z</time>
      </trkpt>
      <trkpt lat="47.8122" lon="7.05142">
        <ele>805</ele>
        <time>2017-04-30T15:36:45Z</time>
      </trkpt>
      <trkpt lat="47.81221" lon="7.05139">
        <ele>807</ele>
        <time>2017-04-30T15:36:48Z</time>
      </trkpt>
      <trkpt lat="47.81221" lon="7.05139">
        <ele>807</ele>
        <time>2017-04-30T15:36:48Z</time>
      </trkpt>
      <trkpt lat="47.81231" lon="7.05158">
        <ele>814</ele>
        <time>2017-04-30T15:37:41Z</time>
      </trkpt>
      <trkpt lat="47.81241" lon="7.0518">
        <ele>813</ele>
        <time>2017-04-30T15:38:25Z</time>
      </trkpt>
      <trkpt lat="47.8125" lon="7.05188">
        <ele>814</ele>
        <time>2017-04-30T15:38:26Z</time>
      </trkpt>
      <trkpt lat="47.81257" lon="7.05197">
        <ele>815</ele>
        <time>2017-04-30T15:38:29Z</time>
      </trkpt>
      <trkpt lat="47.81259" lon="7.05211">
        <ele>817</ele>
        <time>2017-04-30T15:38:31Z</time>
      </trkpt>
      <trkpt lat="47.81257" lon="7.05232">
        <ele>806</ele>
        <time>2017-04-30T15:38:37Z</time>
      </trkpt>
      <trkpt lat="47.81264" lon="7.05242">
        <ele>806</ele>
        <time>2017-04-30T15:38:47Z</time>
      </trkpt>
      <trkpt lat="47.81269" lon="7.05254">
        <ele>802</ele>
        <time>2017-04-30T15:39:01Z</time>
      </trkpt>
      <trkpt lat="47.81274" lon="7.05269">
        <ele>797</ele>
        <time>2017-04-30T15:39:05Z</time>
      </trkpt>
      <trkpt lat="47.81278" lon="7.05284">
        <ele>792</ele>
        <time>2017-04-30T15:39:16Z</time>
      </trkpt>
      <trkpt lat="47.81286" lon="7.05292">
        <ele>792</ele>
        <time>2017-04-30T15:39:18Z</time>
      </trkpt>
      <trkpt lat="47.81284" lon="7.05306">
        <ele>788</ele>
        <time>2017-04-30T15:39:29Z</time>
      </trkpt>
      <trkpt lat="47.81291" lon="7.05315">
        <ele>790</ele>
        <time>2017-04-30T15:39:35Z</time>
      </trkpt>
      <trkpt lat="47.81285" lon="7.05336">
        <ele>776</ele>
        <time>2017-04-30T15:41:24Z</time>
      </trkpt>
      <trkpt lat="47.8129" lon="7.05348">
        <ele>774</ele>
        <time>2017-04-30T15:41:29Z</time>
      </trkpt>
      <trkpt lat="47.813" lon="7.05367">
        <ele>777</ele>
        <time>2017-04-30T15:41:37Z</time>
      </trkpt>
      <trkpt lat="47.81309" lon="7.05374">
        <ele>776</ele>
        <time>2017-04-30T15:41:58Z</time>
      </trkpt>
      <trkpt lat="47.81303" lon="7.05382">
        <ele>771</ele>
        <time>2017-04-30T15:42:32Z</time>
      </trkpt>
      <trkpt lat="47.81308" lon="7.05396">
        <ele>770</ele>
        <time>2017-04-30T15:42:35Z</time>
      </trkpt>
      <trkpt lat="47.81313" lon="7.0541">
        <ele>768</ele>
        <time>2017-04-30T15:42:45Z</time>
      </trkpt>
      <trkpt lat="47.8132" lon="7.05421">
        <ele>769</ele>
        <time>2017-04-30T15:42:52Z</time>
      </trkpt>
      <trkpt lat="47.81326" lon="7.05432">
        <ele>768</ele>
        <time>2017-04-30T15:42:55Z</time>
      </trkpt>
      <trkpt lat="47.81331" lon="7.05443">
        <ele>770</ele>
        <time>2017-04-30T15:43:05Z</time>
      </trkpt>
      <trkpt lat="47.81318" lon="7.05441">
        <ele>763</ele>
        <time>2017-04-30T15:43:10Z</time>
      </trkpt>
      <trkpt lat="47.81327" lon="7.05449">
        <ele>761</ele>
        <time>2017-04-30T15:43:15Z</time>
      </trkpt>
      <trkpt lat="47.81336" lon="7.0546">
        <ele>763</ele>
        <time>2017-04-30T15:43:23Z</time>
      </trkpt>
      <trkpt lat="47.81342" lon="7.05472">
        <ele>761</ele>
        <time>2017-04-30T15:43:33Z</time>
      </trkpt>
      <trkpt lat="47.81352" lon="7.05482">
        <ele>765</ele>
        <time>2017-04-30T15:43:43Z</time>
      </trkpt>
      <trkpt lat="47.8136" lon="7.05493">
        <ele>766</ele>
        <time>2017-04-30T15:43:48Z</time>
      </trkpt>
      <trkpt lat="47.81367" lon="7.05502">
        <ele>760</ele>
        <time>2017-04-30T15:44:00Z</time>
      </trkpt>
      <trkpt lat="47.81372" lon="7.05514">
        <ele>761</ele>
        <time>2017-04-30T15:44:12Z</time>
      </trkpt>
      <trkpt lat="47.81379" lon="7.05526">
        <ele>756</ele>
        <time>2017-04-30T15:44:21Z</time>
      </trkpt>
      <trkpt lat="47.81377" lon="7.0554">
        <ele>751</ele>
        <time>2017-04-30T15:44:35Z</time>
      </trkpt>
      <trkpt lat="47.81368" lon="7.0555">
        <ele>750</ele>
        <time>2017-04-30T15:44:49Z</time>
      </trkpt>
      <trkpt lat="47.81374" lon="7.05561">
        <ele>747</ele>
        <time>2017-04-30T15:44:53Z</time>
      </trkpt>
      <trkpt lat="47.81364" lon="7.05564">
        <ele>745</ele>
        <time>2017-04-30T15:44:58Z</time>
      </trkpt>
      <trkpt lat="47.81365" lon="7.05578">
        <ele>747</ele>
        <time>2017-04-30T15:45:05Z</time>
      </trkpt>
      <trkpt lat="47.8136" lon="7.05591">
        <ele>749</ele>
        <time>2017-04-30T15:45:18Z</time>
      </trkpt>
      <trkpt lat="47.81362" lon="7.05606">
        <ele>740</ele>
        <time>2017-04-30T15:45:26Z</time>
      </trkpt>
      <trkpt lat="47.81364" lon="7.0562">
        <ele>742</ele>
        <time>2017-04-30T15:45:37Z</time>
      </trkpt>
      <trkpt lat="47.81356" lon="7.05629">
        <ele>741</ele>
        <time>2017-04-30T15:45:47Z</time>
      </trkpt>
      <trkpt lat="47.81355" lon="7.05642">
        <ele>740</ele>
        <time>2017-04-30T15:46:02Z</time>
      </trkpt>
      <trkpt lat="47.81349" lon="7.05652">
        <ele>738</ele>
        <time>2017-04-30T15:46:09Z</time>
      </trkpt>
      <trkpt lat="47.81342" lon="7.05662">
        <ele>738</ele>
        <time>2017-04-30T15:46:17Z</time>
      </trkpt>
      <trkpt lat="47.81342" lon="7.05676">
        <ele>736</ele>
        <time>2017-04-30T15:46:25Z</time>
      </trkpt>
      <trkpt lat="47.81336" lon="7.05687">
        <ele>736</ele>
        <time>2017-04-30T15:46:34Z</time>
      </trkpt>
      <trkpt lat="47.8133" lon="7.057">
        <ele>734</ele>
        <time>2017-04-30T15:46:43Z</time>
      </trkpt>
      <trkpt lat="47.81328" lon="7.05714">
        <ele>736</ele>
        <time>2017-04-30T15:46:48Z</time>
      </trkpt>
      <trkpt lat="47.81319" lon="7.05718">
        <ele>731</ele>
        <time>2017-04-30T15:47:02Z</time>
      </trkpt>
      <trkpt lat="47.81317" lon="7.05731">
        <ele>730</ele>
        <time>2017-04-30T15:47:10Z</time>
      </trkpt>
      <trkpt lat="47.81312" lon="7.05744">
        <ele>726</ele>
        <time>2017-04-30T15:47:19Z</time>
      </trkpt>
      <trkpt lat="47.81311" lon="7.05758">
        <ele>728</ele>
        <time>2017-04-30T15:47:26Z</time>
      </trkpt>
      <trkpt lat="47.81304" lon="7.05767">
        <ele>724</ele>
        <time>2017-04-30T15:47:40Z</time>
      </trkpt>
      <trkpt lat="47.81303" lon="7.05781">
        <ele>726</ele>
        <time>2017-04-30T15:47:48Z</time>
      </trkpt>
      <trkpt lat="47.81298" lon="7.05792">
        <ele>724</ele>
        <time>2017-04-30T15:47:56Z</time>
      </trkpt>
      <trkpt lat="47.81297" lon="7.05807">
        <ele>724</ele>
        <time>2017-04-30T15:48:03Z</time>
      </trkpt>
      <trkpt lat="47.81299" lon="7.05823">
        <ele>721</ele>
        <time>2017-04-30T15:48:10Z</time>
      </trkpt>
      <trkpt lat="47.81305" lon="7.05813">
        <ele>718</ele>
        <time>2017-04-30T15:48:15Z</time>
      </trkpt>
      <trkpt lat="47.81311" lon="7.05802">
        <ele>713</ele>
        <time>2017-04-30T15:48:24Z</time>
      </trkpt>
      <trkpt lat="47.81326" lon="7.05794">
        <ele>714</ele>
        <time>2017-04-30T15:49:06Z</time>
      </trkpt>
      <trkpt lat="47.81337" lon="7.05783">
        <ele>708</ele>
        <time>2017-04-30T15:49:08Z</time>
      </trkpt>
      <trkpt lat="47.81347" lon="7.05777">
        <ele>707</ele>
        <time>2017-04-30T15:49:11Z</time>
      </trkpt>
      <trkpt lat="47.81359" lon="7.05778">
        <ele>709</ele>
        <time>2017-04-30T15:49:17Z</time>
      </trkpt>
      <trkpt lat="47.81368" lon="7.0578">
        <ele>708</ele>
        <time>2017-04-30T15:49:21Z</time>
      </trkpt>
      <trkpt lat="47.81377" lon="7.05785">
        <ele>710</ele>
        <time>2017-04-30T15:49:25Z</time>
      </trkpt>
      <trkpt lat="47.81385" lon="7.05797">
        <ele>707</ele>
        <time>2017-04-30T15:49:35Z</time>
      </trkpt>
      <trkpt lat="47.81395" lon="7.05793">
        <ele>703</ele>
        <time>2017-04-30T15:49:51Z</time>
      </trkpt>
      <trkpt lat="47.81386" lon="7.05786">
        <ele>701</ele>
        <time>2017-04-30T15:50:02Z</time>
      </trkpt>
      <trkpt lat="47.8139" lon="7.058">
        <ele>698</ele>
        <time>2017-04-30T15:50:07Z</time>
      </trkpt>
      <trkpt lat="47.81396" lon="7.05811">
        <ele>696</ele>
        <time>2017-04-30T15:50:12Z</time>
      </trkpt>
      <trkpt lat="47.81388" lon="7.05821">
        <ele>692</ele>
        <time>2017-04-30T15:50:23Z</time>
      </trkpt>
      <trkpt lat="47.81396" lon="7.05833">
        <ele>691</ele>
        <time>2017-04-30T15:50:42Z</time>
      </trkpt>
      <trkpt lat="47.81407" lon="7.05841">
        <ele>691</ele>
        <time>2017-04-30T15:50:45Z</time>
      </trkpt>
      <trkpt lat="47.81416" lon="7.05837">
        <ele>690</ele>
        <time>2017-04-30T15:50:52Z</time>
      </trkpt>
      <trkpt lat="47.81354" lon="7.05875">
        <ele>688</ele>
        <time>2017-04-30T15:52:45Z</time>
      </trkpt>
      <trkpt lat="47.81339" lon="7.05886">
        <ele>685</ele>
        <time>2017-04-30T15:52:47Z</time>
      </trkpt>
      <trkpt lat="47.81328" lon="7.05893">
        <ele>686</ele>
        <time>2017-04-30T15:52:48Z</time>
      </trkpt>
      <trkpt lat="47.8132" lon="7.059">
        <ele>686</ele>
        <time>2017-04-30T15:52:49Z</time>
      </trkpt>
      <trkpt lat="47.81313" lon="7.05908">
        <ele>686</ele>
        <time>2017-04-30T15:52:50Z</time>
      </trkpt>
      <trkpt lat="47.81301" lon="7.05914">
        <ele>685</ele>
        <time>2017-04-30T15:52:51Z</time>
      </trkpt>
      <trkpt lat="47.81286" lon="7.0593">
        <ele>686</ele>
        <time>2017-04-30T15:52:53Z</time>
      </trkpt>
      <trkpt lat="47.81277" lon="7.05935">
        <ele>687</ele>
        <time>2017-04-30T15:52:54Z</time>
      </trkpt>
      <trkpt lat="47.81268" lon="7.05943">
        <ele>686</ele>
        <time>2017-04-30T15:52:55Z</time>
      </trkpt>
      <trkpt lat="47.8126" lon="7.0595">
        <ele>687</ele>
        <time>2017-04-30T15:52:56Z</time>
      </trkpt>
      <trkpt lat="47.81241" lon="7.05964">
        <ele>686</ele>
        <time>2017-04-30T15:52:58Z</time>
      </trkpt>
      <trkpt lat="47.8123" lon="7.05971">
        <ele>686</ele>
        <time>2017-04-30T15:52:59Z</time>
      </trkpt>
      <trkpt lat="47.8122" lon="7.05976">
        <ele>686</ele>
        <time>2017-04-30T15:53:00Z</time>
      </trkpt>
      <trkpt lat="47.81201" lon="7.05977">
        <ele>688</ele>
        <time>2017-04-30T15:53:02Z</time>
      </trkpt>
      <trkpt lat="47.81181" lon="7.05978">
        <ele>687</ele>
        <time>2017-04-30T15:53:04Z</time>
      </trkpt>
      <trkpt lat="47.81171" lon="7.05978">
        <ele>687</ele>
        <time>2017-04-30T15:53:05Z</time>
      </trkpt>
      <trkpt lat="47.8116" lon="7.05977">
        <ele>688</ele>
        <time>2017-04-30T15:53:06Z</time>
      </trkpt>
      <trkpt lat="47.81142" lon="7.05975">
        <ele>686</ele>
        <time>2017-04-30T15:53:08Z</time>
      </trkpt>
      <trkpt lat="47.8113" lon="7.05969">
        <ele>686</ele>
        <time>2017-04-30T15:53:10Z</time>
      </trkpt>
      <trkpt lat="47.8112" lon="7.05964">
        <ele>686</ele>
        <time>2017-04-30T15:53:12Z</time>
      </trkpt>
      <trkpt lat="47.81104" lon="7.05963">
        <ele>686</ele>
        <time>2017-04-30T15:53:13Z</time>
      </trkpt>
      <trkpt lat="47.81095" lon="7.0596">
        <ele>687</ele>
        <time>2017-04-30T15:53:14Z</time>
      </trkpt>
      <trkpt lat="47.81089" lon="7.0597">
        <ele>687</ele>
        <time>2017-04-30T15:53:15Z</time>
      </trkpt>
      <trkpt lat="47.81077" lon="7.05989">
        <ele>687</ele>
        <time>2017-04-30T15:53:17Z</time>
      </trkpt>
      <trkpt lat="47.8108" lon="7.06011">
        <ele>687</ele>
        <time>2017-04-30T15:53:19Z</time>
      </trkpt>
      <trkpt lat="47.8109" lon="7.06028">
        <ele>684</ele>
        <time>2017-04-30T15:53:21Z</time>
      </trkpt>
      <trkpt lat="47.81096" lon="7.06053">
        <ele>684</ele>
        <time>2017-04-30T15:53:23Z</time>
      </trkpt>
      <trkpt lat="47.81102" lon="7.06063">
        <ele>684</ele>
        <time>2017-04-30T15:53:24Z</time>
      </trkpt>
      <trkpt lat="47.81109" lon="7.06076">
        <ele>684</ele>
        <time>2017-04-30T15:53:25Z</time>
      </trkpt>
      <trkpt lat="47.81108" lon="7.06093">
        <ele>682</ele>
        <time>2017-04-30T15:53:26Z</time>
      </trkpt>
      <trkpt lat="47.81112" lon="7.06105">
        <ele>682</ele>
        <time>2017-04-30T15:53:27Z</time>
      </trkpt>
      <trkpt lat="47.8112" lon="7.06129">
        <ele>680</ele>
        <time>2017-04-30T15:53:29Z</time>
      </trkpt>
      <trkpt lat="47.81127" lon="7.0614">
        <ele>681</ele>
        <time>2017-04-30T15:53:30Z</time>
      </trkpt>
      <trkpt lat="47.8113" lon="7.06158">
        <ele>679</ele>
        <time>2017-04-30T15:53:31Z</time>
      </trkpt>
      <trkpt lat="47.81136" lon="7.0618">
        <ele>678</ele>
        <time>2017-04-30T15:53:33Z</time>
      </trkpt>
      <trkpt lat="47.81146" lon="7.06208">
        <ele>671</ele>
        <time>2017-04-30T15:53:35Z</time>
      </trkpt>
      <trkpt lat="47.81154" lon="7.06233">
        <ele>668</ele>
        <time>2017-04-30T15:53:37Z</time>
      </trkpt>
      <trkpt lat="47.8116" lon="7.06256">
        <ele>664</ele>
        <time>2017-04-30T15:53:39Z</time>
      </trkpt>
      <trkpt lat="47.81163" lon="7.06271">
        <ele>663</ele>
        <time>2017-04-30T15:53:40Z</time>
      </trkpt>
      <trkpt lat="47.81166" lon="7.06286">
        <ele>664</ele>
        <time>2017-04-30T15:53:41Z</time>
      </trkpt>
      <trkpt lat="47.81152" lon="7.06296">
        <ele>662</ele>
        <time>2017-04-30T15:53:42Z</time>
      </trkpt>
      <trkpt lat="47.81156" lon="7.06309">
        <ele>662</ele>
        <time>2017-04-30T15:53:43Z</time>
      </trkpt>
      <trkpt lat="47.81155" lon="7.06326">
        <ele>661</ele>
        <time>2017-04-30T15:53:44Z</time>
      </trkpt>
      <trkpt lat="47.81154" lon="7.0634">
        <ele>661</ele>
        <time>2017-04-30T15:53:45Z</time>
      </trkpt>
      <trkpt lat="47.81152" lon="7.06355">
        <ele>661</ele>
        <time>2017-04-30T15:53:46Z</time>
      </trkpt>
      <trkpt lat="47.81146" lon="7.06369">
        <ele>657</ele>
        <time>2017-04-30T15:53:48Z</time>
      </trkpt>
      <trkpt lat="47.81144" lon="7.06386">
        <ele>657</ele>
        <time>2017-04-30T15:53:49Z</time>
      </trkpt>
      <trkpt lat="47.81143" lon="7.06404">
        <ele>656</ele>
        <time>2017-04-30T15:53:50Z</time>
      </trkpt>
      <trkpt lat="47.81141" lon="7.06421">
        <ele>655</ele>
        <time>2017-04-30T15:53:51Z</time>
      </trkpt>
      <trkpt lat="47.81129" lon="7.06416">
        <ele>656</ele>
        <time>2017-04-30T15:53:52Z</time>
      </trkpt>
      <trkpt lat="47.81133" lon="7.06432">
        <ele>652</ele>
        <time>2017-04-30T15:53:54Z</time>
      </trkpt>
      <trkpt lat="47.81114" lon="7.06438">
        <ele>653</ele>
        <time>2017-04-30T15:53:56Z</time>
      </trkpt>
      <trkpt lat="47.81099" lon="7.06443">
        <ele>652</ele>
        <time>2017-04-30T15:53:58Z</time>
      </trkpt>
      <trkpt lat="47.81088" lon="7.06453">
        <ele>654</ele>
        <time>2017-04-30T15:54:05Z</time>
      </trkpt>
      <trkpt lat="47.81076" lon="7.06458">
        <ele>655</ele>
        <time>2017-04-30T15:54:07Z</time>
      </trkpt>
      <trkpt lat="47.81065" lon="7.06461">
        <ele>653</ele>
        <time>2017-04-30T15:54:09Z</time>
      </trkpt>
      <trkpt lat="47.81056" lon="7.06464">
        <ele>653</ele>
        <time>2017-04-30T15:54:10Z</time>
      </trkpt>
      <trkpt lat="47.81047" lon="7.06465">
        <ele>654</ele>
        <time>2017-04-30T15:54:11Z</time>
      </trkpt>
      <trkpt lat="47.81035" lon="7.06477">
        <ele>650</ele>
        <time>2017-04-30T15:54:13Z</time>
      </trkpt>
      <trkpt lat="47.8102" lon="7.06507">
        <ele>650</ele>
        <time>2017-04-30T15:54:15Z</time>
      </trkpt>
      <trkpt lat="47.81013" lon="7.06527">
        <ele>650</ele>
        <time>2017-04-30T15:54:17Z</time>
      </trkpt>
      <trkpt lat="47.81006" lon="7.06542">
        <ele>650</ele>
        <time>2017-04-30T15:54:18Z</time>
      </trkpt>
      <trkpt lat="47.80996" lon="7.0655">
        <ele>650</ele>
        <time>2017-04-30T15:54:19Z</time>
      </trkpt>
      <trkpt lat="47.8099" lon="7.06562">
        <ele>650</ele>
        <time>2017-04-30T15:54:20Z</time>
      </trkpt>
      <trkpt lat="47.80986" lon="7.06575">
        <ele>650</ele>
        <time>2017-04-30T15:54:21Z</time>
      </trkpt>
      <trkpt lat="47.8097" lon="7.06591">
        <ele>653</ele>
        <time>2017-04-30T15:54:23Z</time>
      </trkpt>
      <trkpt lat="47.80962" lon="7.06602">
        <ele>653</ele>
        <time>2017-04-30T15:54:24Z</time>
      </trkpt>
      <trkpt lat="47.80949" lon="7.06612">
        <ele>652</ele>
        <time>2017-04-30T15:54:25Z</time>
      </trkpt>
      <trkpt lat="47.80942" lon="7.06627">
        <ele>650</ele>
        <time>2017-04-30T15:54:27Z</time>
      </trkpt>
      <trkpt lat="47.80927" lon="7.06632">
        <ele>647</ele>
        <time>2017-04-30T15:54:29Z</time>
      </trkpt>
      <trkpt lat="47.80915" lon="7.0663">
        <ele>648</ele>
        <time>2017-04-30T15:54:30Z</time>
      </trkpt>
      <trkpt lat="47.80899" lon="7.0663">
        <ele>648</ele>
        <time>2017-04-30T15:54:32Z</time>
      </trkpt>
      <trkpt lat="47.80889" lon="7.06635">
        <ele>648</ele>
        <time>2017-04-30T15:54:33Z</time>
      </trkpt>
      <trkpt lat="47.80877" lon="7.0664">
        <ele>647</ele>
        <time>2017-04-30T15:54:34Z</time>
      </trkpt>
      <trkpt lat="47.80866" lon="7.06646">
        <ele>649</ele>
        <time>2017-04-30T15:54:35Z</time>
      </trkpt>
      <trkpt lat="47.80852" lon="7.06653">
        <ele>649</ele>
        <time>2017-04-30T15:54:36Z</time>
      </trkpt>
      <trkpt lat="47.80842" lon="7.0666">
        <ele>647</ele>
        <time>2017-04-30T15:54:37Z</time>
      </trkpt>
      <trkpt lat="47.80831" lon="7.06661">
        <ele>646</ele>
        <time>2017-04-30T15:54:38Z</time>
      </trkpt>
      <trkpt lat="47.80812" lon="7.06662">
        <ele>645</ele>
        <time>2017-04-30T15:54:40Z</time>
      </trkpt>
      <trkpt lat="47.80814" lon="7.06678">
        <ele>644</ele>
        <time>2017-04-30T15:54:42Z</time>
      </trkpt>
      <trkpt lat="47.80817" lon="7.06708">
        <ele>644</ele>
        <time>2017-04-30T15:54:45Z</time>
      </trkpt>
      <trkpt lat="47.80843" lon="7.06686">
        <ele>644</ele>
        <time>2017-04-30T15:54:48Z</time>
      </trkpt>
      <trkpt lat="47.80854" lon="7.06672">
        <ele>642</ele>
        <time>2017-04-30T15:54:50Z</time>
      </trkpt>
      <trkpt lat="47.80868" lon="7.06674">
        <ele>643</ele>
        <time>2017-04-30T15:54:51Z</time>
      </trkpt>
      <trkpt lat="47.80878" lon="7.06676">
        <ele>643</ele>
        <time>2017-04-30T15:54:52Z</time>
      </trkpt>
      <trkpt lat="47.80891" lon="7.06676">
        <ele>642</ele>
        <time>2017-04-30T15:54:53Z</time>
      </trkpt>
      <trkpt lat="47.80903" lon="7.06676">
        <ele>641</ele>
        <time>2017-04-30T15:54:54Z</time>
      </trkpt>
      <trkpt lat="47.80912" lon="7.06679">
        <ele>638</ele>
        <time>2017-04-30T15:54:55Z</time>
      </trkpt>
      <trkpt lat="47.80922" lon="7.06684">
        <ele>639</ele>
        <time>2017-04-30T15:54:56Z</time>
      </trkpt>
      <trkpt lat="47.80934" lon="7.06686">
        <ele>637</ele>
        <time>2017-04-30T15:54:57Z</time>
      </trkpt>
      <trkpt lat="47.80947" lon="7.06686">
        <ele>636</ele>
        <time>2017-04-30T15:54:58Z</time>
      </trkpt>
      <trkpt lat="47.80957" lon="7.06692">
        <ele>631</ele>
        <time>2017-04-30T15:54:59Z</time>
      </trkpt>
      <trkpt lat="47.80974" lon="7.0669">
        <ele>631</ele>
        <time>2017-04-30T15:55:01Z</time>
      </trkpt>
      <trkpt lat="47.80984" lon="7.06683">
        <ele>630</ele>
        <time>2017-04-30T15:55:02Z</time>
      </trkpt>
      <trkpt lat="47.81001" lon="7.06675">
        <ele>630</ele>
        <time>2017-04-30T15:55:04Z</time>
      </trkpt>
      <trkpt lat="47.81012" lon="7.06671">
        <ele>629</ele>
        <time>2017-04-30T15:55:05Z</time>
      </trkpt>
      <trkpt lat="47.81034" lon="7.06649">
        <ele>626</ele>
        <time>2017-04-30T15:55:07Z</time>
      </trkpt>
      <trkpt lat="47.81039" lon="7.06634">
        <ele>625</ele>
        <time>2017-04-30T15:55:08Z</time>
      </trkpt>
      <trkpt lat="47.81052" lon="7.06613">
        <ele>623</ele>
        <time>2017-04-30T15:55:10Z</time>
      </trkpt>
      <trkpt lat="47.81061" lon="7.06601">
        <ele>621</ele>
        <time>2017-04-30T15:55:11Z</time>
      </trkpt>
      <trkpt lat="47.81076" lon="7.06597">
        <ele>621</ele>
        <time>2017-04-30T15:55:12Z</time>
      </trkpt>
      <trkpt lat="47.81086" lon="7.06594">
        <ele>620</ele>
        <time>2017-04-30T15:55:13Z</time>
      </trkpt>
      <trkpt lat="47.81101" lon="7.06592">
        <ele>618</ele>
        <time>2017-04-30T15:55:14Z</time>
      </trkpt>
      <trkpt lat="47.81118" lon="7.06592">
        <ele>619</ele>
        <time>2017-04-30T15:55:16Z</time>
      </trkpt>
      <trkpt lat="47.81128" lon="7.06586">
        <ele>619</ele>
        <time>2017-04-30T15:55:17Z</time>
      </trkpt>
      <trkpt lat="47.81136" lon="7.06578">
        <ele>617</ele>
        <time>2017-04-30T15:55:18Z</time>
      </trkpt>
      <trkpt lat="47.81147" lon="7.0657">
        <ele>617</ele>
        <time>2017-04-30T15:55:19Z</time>
      </trkpt>
      <trkpt lat="47.81161" lon="7.0656">
        <ele>615</ele>
        <time>2017-04-30T15:55:20Z</time>
      </trkpt>
      <trkpt lat="47.81169" lon="7.06549">
        <ele>614</ele>
        <time>2017-04-30T15:55:21Z</time>
      </trkpt>
      <trkpt lat="47.81179" lon="7.06544">
        <ele>615</ele>
        <time>2017-04-30T15:55:22Z</time>
      </trkpt>
      <trkpt lat="47.8119" lon="7.06538">
        <ele>614</ele>
        <time>2017-04-30T15:55:23Z</time>
      </trkpt>
      <trkpt lat="47.81202" lon="7.06532">
        <ele>615</ele>
        <time>2017-04-30T15:55:24Z</time>
      </trkpt>
      <trkpt lat="47.81213" lon="7.06521">
        <ele>614</ele>
        <time>2017-04-30T15:55:25Z</time>
      </trkpt>
      <trkpt lat="47.81224" lon="7.06514">
        <ele>615</ele>
        <time>2017-04-30T15:55:26Z</time>
      </trkpt>
      <trkpt lat="47.81242" lon="7.06502">
        <ele>614</ele>
        <time>2017-04-30T15:55:28Z</time>
      </trkpt>
      <trkpt lat="47.81256" lon="7.06495">
        <ele>612</ele>
        <time>2017-04-30T15:55:29Z</time>
      </trkpt>
      <trkpt lat="47.81266" lon="7.06486">
        <ele>611</ele>
        <time>2017-04-30T15:55:30Z</time>
      </trkpt>
      <trkpt lat="47.81276" lon="7.06483">
        <ele>610</ele>
        <time>2017-04-30T15:55:31Z</time>
      </trkpt>
      <trkpt lat="47.81288" lon="7.06476">
        <ele>611</ele>
        <time>2017-04-30T15:55:33Z</time>
      </trkpt>
      <trkpt lat="47.81297" lon="7.06486">
        <ele>610</ele>
        <time>2017-04-30T15:55:35Z</time>
      </trkpt>
      <trkpt lat="47.81304" lon="7.06508">
        <ele>605</ele>
        <time>2017-04-30T15:55:38Z</time>
      </trkpt>
      <trkpt lat="47.81285" lon="7.06509">
        <ele>604</ele>
        <time>2017-04-30T15:55:40Z</time>
      </trkpt>
      <trkpt lat="47.81267" lon="7.06513">
        <ele>602</ele>
        <time>2017-04-30T15:55:42Z</time>
      </trkpt>
      <trkpt lat="47.81258" lon="7.06517">
        <ele>601</ele>
        <time>2017-04-30T15:55:43Z</time>
      </trkpt>
      <trkpt lat="47.81248" lon="7.06522">
        <ele>601</ele>
        <time>2017-04-30T15:55:44Z</time>
      </trkpt>
      <trkpt lat="47.81236" lon="7.06528">
        <ele>600</ele>
        <time>2017-04-30T15:55:45Z</time>
      </trkpt>
      <trkpt lat="47.81227" lon="7.06533">
        <ele>601</ele>
        <time>2017-04-30T15:55:46Z</time>
      </trkpt>
      <trkpt lat="47.81215" lon="7.06544">
        <ele>600</ele>
        <time>2017-04-30T15:55:47Z</time>
      </trkpt>
      <trkpt lat="47.81206" lon="7.06555">
        <ele>599</ele>
        <time>2017-04-30T15:55:48Z</time>
      </trkpt>
      <trkpt lat="47.81198" lon="7.06565">
        <ele>599</ele>
        <time>2017-04-30T15:55:49Z</time>
      </trkpt>
      <trkpt lat="47.81189" lon="7.06576">
        <ele>598</ele>
        <time>2017-04-30T15:55:50Z</time>
      </trkpt>
      <trkpt lat="47.81179" lon="7.0659">
        <ele>598</ele>
        <time>2017-04-30T15:55:51Z</time>
      </trkpt>
      <trkpt lat="47.81171" lon="7.06603">
        <ele>598</ele>
        <time>2017-04-30T15:55:52Z</time>
      </trkpt>
      <trkpt lat="47.81163" lon="7.06616">
        <ele>597</ele>
        <time>2017-04-30T15:55:53Z</time>
      </trkpt>
      <trkpt lat="47.8115" lon="7.06628">
        <ele>598</ele>
        <time>2017-04-30T15:55:54Z</time>
      </trkpt>
      <trkpt lat="47.81141" lon="7.0664">
        <ele>599</ele>
        <time>2017-04-30T15:55:55Z</time>
      </trkpt>
      <trkpt lat="47.81132" lon="7.06654">
        <ele>599</ele>
        <time>2017-04-30T15:55:56Z</time>
      </trkpt>
      <trkpt lat="47.81124" lon="7.06667">
        <ele>599</ele>
        <time>2017-04-30T15:55:57Z</time>
      </trkpt>
      <trkpt lat="47.81115" lon="7.06677">
        <ele>600</ele>
        <time>2017-04-30T15:55:58Z</time>
      </trkpt>
      <trkpt lat="47.81094" lon="7.06696">
        <ele>600</ele>
        <time>2017-04-30T15:56:00Z</time>
      </trkpt>
      <trkpt lat="47.81081" lon="7.06708">
        <ele>600</ele>
        <time>2017-04-30T15:56:01Z</time>
      </trkpt>
      <trkpt lat="47.81072" lon="7.06721">
        <ele>599</ele>
        <time>2017-04-30T15:56:02Z</time>
      </trkpt>
      <trkpt lat="47.81059" lon="7.0673">
        <ele>599</ele>
        <time>2017-04-30T15:56:03Z</time>
      </trkpt>
      <trkpt lat="47.81051" lon="7.06742">
        <ele>599</ele>
        <time>2017-04-30T15:56:04Z</time>
      </trkpt>
      <trkpt lat="47.81039" lon="7.06754">
        <ele>598</ele>
        <time>2017-04-30T15:56:05Z</time>
      </trkpt>
      <trkpt lat="47.8103" lon="7.06767">
        <ele>597</ele>
        <time>2017-04-30T15:56:06Z</time>
      </trkpt>
      <trkpt lat="47.8102" lon="7.06782">
        <ele>598</ele>
        <time>2017-04-30T15:56:07Z</time>
      </trkpt>
      <trkpt lat="47.8101" lon="7.06794">
        <ele>598</ele>
        <time>2017-04-30T15:56:08Z</time>
      </trkpt>
      <trkpt lat="47.81002" lon="7.06807">
        <ele>598</ele>
        <time>2017-04-30T15:56:09Z</time>
      </trkpt>
      <trkpt lat="47.80992" lon="7.06822">
        <ele>599</ele>
        <time>2017-04-30T15:56:10Z</time>
      </trkpt>
      <trkpt lat="47.80983" lon="7.06835">
        <ele>600</ele>
        <time>2017-04-30T15:56:11Z</time>
      </trkpt>
      <trkpt lat="47.8097" lon="7.06848">
        <ele>600</ele>
        <time>2017-04-30T15:56:12Z</time>
      </trkpt>
      <trkpt lat="47.80958" lon="7.06862">
        <ele>600</ele>
        <time>2017-04-30T15:56:13Z</time>
      </trkpt>
      <trkpt lat="47.80945" lon="7.06875">
        <ele>600</ele>
        <time>2017-04-30T15:56:14Z</time>
      </trkpt>
      <trkpt lat="47.80936" lon="7.06891">
        <ele>600</ele>
        <time>2017-04-30T15:56:15Z</time>
      </trkpt>
      <trkpt lat="47.80929" lon="7.06919">
        <ele>598</ele>
        <time>2017-04-30T15:56:17Z</time>
      </trkpt>
      <trkpt lat="47.80919" lon="7.06933">
        <ele>597</ele>
        <time>2017-04-30T15:56:18Z</time>
      </trkpt>
      <trkpt lat="47.80912" lon="7.06948">
        <ele>594</ele>
        <time>2017-04-30T15:56:19Z</time>
      </trkpt>
      <trkpt lat="47.80906" lon="7.06962">
        <ele>596</ele>
        <time>2017-04-30T15:56:20Z</time>
      </trkpt>
      <trkpt lat="47.80901" lon="7.06978">
        <ele>596</ele>
        <time>2017-04-30T15:56:21Z</time>
      </trkpt>
      <trkpt lat="47.80884" lon="7.06996">
        <ele>592</ele>
        <time>2017-04-30T15:56:23Z</time>
      </trkpt>
      <trkpt lat="47.8089" lon="7.07019">
        <ele>592</ele>
        <time>2017-04-30T15:56:24Z</time>
      </trkpt>
      <trkpt lat="47.80888" lon="7.07034">
        <ele>592</ele>
        <time>2017-04-30T15:56:25Z</time>
      </trkpt>
      <trkpt lat="47.80884" lon="7.07054">
        <ele>592</ele>
        <time>2017-04-30T15:56:26Z</time>
      </trkpt>
      <trkpt lat="47.80884" lon="7.07074">
        <ele>591</ele>
        <time>2017-04-30T15:56:27Z</time>
      </trkpt>
      <trkpt lat="47.80885" lon="7.07094">
        <ele>592</ele>
        <time>2017-04-30T15:56:28Z</time>
      </trkpt>
      <trkpt lat="47.80883" lon="7.07113">
        <ele>591</ele>
        <time>2017-04-30T15:56:29Z</time>
      </trkpt>
      <trkpt lat="47.80882" lon="7.07127">
        <ele>592</ele>
        <time>2017-04-30T15:56:30Z</time>
      </trkpt>
      <trkpt lat="47.80882" lon="7.0715">
        <ele>592</ele>
        <time>2017-04-30T15:56:31Z</time>
      </trkpt>
      <trkpt lat="47.80874" lon="7.07161">
        <ele>590</ele>
        <time>2017-04-30T15:56:32Z</time>
      </trkpt>
      <trkpt lat="47.80865" lon="7.07179">
        <ele>590</ele>
        <time>2017-04-30T15:56:33Z</time>
      </trkpt>
      <trkpt lat="47.80856" lon="7.07204">
        <ele>581</ele>
        <time>2017-04-30T15:56:35Z</time>
      </trkpt>
      <trkpt lat="47.80846" lon="7.07216">
        <ele>581</ele>
        <time>2017-04-30T15:56:36Z</time>
      </trkpt>
      <trkpt lat="47.80838" lon="7.07229">
        <ele>580</ele>
        <time>2017-04-30T15:56:37Z</time>
      </trkpt>
      <trkpt lat="47.80833" lon="7.07241">
        <ele>579</ele>
        <time>2017-04-30T15:56:38Z</time>
      </trkpt>
      <trkpt lat="47.80835" lon="7.07254">
        <ele>579</ele>
        <time>2017-04-30T15:56:39Z</time>
      </trkpt>
      <trkpt lat="47.80824" lon="7.07265">
        <ele>579</ele>
        <time>2017-04-30T15:56:40Z</time>
      </trkpt>
      <trkpt lat="47.80811" lon="7.07274">
        <ele>579</ele>
        <time>2017-04-30T15:56:41Z</time>
      </trkpt>
      <trkpt lat="47.80797" lon="7.07284">
        <ele>580</ele>
        <time>2017-04-30T15:56:42Z</time>
      </trkpt>
      <trkpt lat="47.8078" lon="7.07289">
        <ele>576</ele>
        <time>2017-04-30T15:56:43Z</time>
      </trkpt>
      <trkpt lat="47.80771" lon="7.07301">
        <ele>577</ele>
        <time>2017-04-30T15:56:44Z</time>
      </trkpt>
      <trkpt lat="47.80745" lon="7.07319">
        <ele>577</ele>
        <time>2017-04-30T15:56:46Z</time>
      </trkpt>
      <trkpt lat="47.80737" lon="7.07337">
        <ele>579</ele>
        <time>2017-04-30T15:56:47Z</time>
      </trkpt>
      <trkpt lat="47.80723" lon="7.07347">
        <ele>580</ele>
        <time>2017-04-30T15:56:48Z</time>
      </trkpt>
      <trkpt lat="47.80716" lon="7.07358">
        <ele>580</ele>
        <time>2017-04-30T15:56:49Z</time>
      </trkpt>
      <trkpt lat="47.80706" lon="7.07367">
        <ele>582</ele>
        <time>2017-04-30T15:56:50Z</time>
      </trkpt>
      <trkpt lat="47.80693" lon="7.07392">
        <ele>581</ele>
        <time>2017-04-30T15:56:52Z</time>
      </trkpt>
      <trkpt lat="47.80685" lon="7.07404">
        <ele>580</ele>
        <time>2017-04-30T15:56:53Z</time>
      </trkpt>
      <trkpt lat="47.80672" lon="7.07416">
        <ele>580</ele>
        <time>2017-04-30T15:56:54Z</time>
      </trkpt>
      <trkpt lat="47.80663" lon="7.0743">
        <ele>579</ele>
        <time>2017-04-30T15:56:55Z</time>
      </trkpt>
      <trkpt lat="47.80649" lon="7.07447">
        <ele>581</ele>
        <time>2017-04-30T15:56:56Z</time>
      </trkpt>
      <trkpt lat="47.80644" lon="7.07462">
        <ele>578</ele>
        <time>2017-04-30T15:56:57Z</time>
      </trkpt>
      <trkpt lat="47.80646" lon="7.07496">
        <ele>574</ele>
        <time>2017-04-30T15:56:59Z</time>
      </trkpt>
      <trkpt lat="47.80654" lon="7.07513">
        <ele>569</ele>
        <time>2017-04-30T15:57:00Z</time>
      </trkpt>
      <trkpt lat="47.80655" lon="7.07531">
        <ele>569</ele>
        <time>2017-04-30T15:57:01Z</time>
      </trkpt>
      <trkpt lat="47.80657" lon="7.07549">
        <ele>571</ele>
        <time>2017-04-30T15:57:02Z</time>
      </trkpt>
      <trkpt lat="47.80658" lon="7.07567">
        <ele>570</ele>
        <time>2017-04-30T15:57:03Z</time>
      </trkpt>
      <trkpt lat="47.80661" lon="7.07583">
        <ele>569</ele>
        <time>2017-04-30T15:57:04Z</time>
      </trkpt>
      <trkpt lat="47.80663" lon="7.07597">
        <ele>565</ele>
        <time>2017-04-30T15:57:05Z</time>
      </trkpt>
      <trkpt lat="47.80666" lon="7.07611">
        <ele>561</ele>
        <time>2017-04-30T15:57:06Z</time>
      </trkpt>
      <trkpt lat="47.8067" lon="7.07625">
        <ele>561</ele>
        <time>2017-04-30T15:57:07Z</time>
      </trkpt>
      <trkpt lat="47.80674" lon="7.07639">
        <ele>561</ele>
        <time>2017-04-30T15:57:08Z</time>
      </trkpt>
      <trkpt lat="47.80677" lon="7.07655">
        <ele>559</ele>
        <time>2017-04-30T15:57:09Z</time>
      </trkpt>
      <trkpt lat="47.80682" lon="7.07669">
        <ele>559</ele>
        <time>2017-04-30T15:57:10Z</time>
      </trkpt>
      <trkpt lat="47.8069" lon="7.07685">
        <ele>557</ele>
        <time>2017-04-30T15:57:11Z</time>
      </trkpt>
      <trkpt lat="47.80692" lon="7.07701">
        <ele>555</ele>
        <time>2017-04-30T15:57:12Z</time>
      </trkpt>
      <trkpt lat="47.80701" lon="7.07714">
        <ele>554</ele>
        <time>2017-04-30T15:57:13Z</time>
      </trkpt>
      <trkpt lat="47.80706" lon="7.0773">
        <ele>553</ele>
        <time>2017-04-30T15:57:14Z</time>
      </trkpt>
      <trkpt lat="47.80711" lon="7.07746">
        <ele>554</ele>
        <time>2017-04-30T15:57:15Z</time>
      </trkpt>
      <trkpt lat="47.80722" lon="7.07771">
        <ele>553</ele>
        <time>2017-04-30T15:57:17Z</time>
      </trkpt>
      <trkpt lat="47.8073" lon="7.07786">
        <ele>551</ele>
        <time>2017-04-30T15:57:18Z</time>
      </trkpt>
      <trkpt lat="47.8074" lon="7.07799">
        <ele>549</ele>
        <time>2017-04-30T15:57:19Z</time>
      </trkpt>
      <trkpt lat="47.80748" lon="7.07816">
        <ele>547</ele>
        <time>2017-04-30T15:57:20Z</time>
      </trkpt>
      <trkpt lat="47.80749" lon="7.07831">
        <ele>546</ele>
        <time>2017-04-30T15:57:21Z</time>
      </trkpt>
      <trkpt lat="47.80754" lon="7.07844">
        <ele>545</ele>
        <time>2017-04-30T15:57:22Z</time>
      </trkpt>
      <trkpt lat="47.80755" lon="7.07858">
        <ele>544</ele>
        <time>2017-04-30T15:57:23Z</time>
      </trkpt>
      <trkpt lat="47.80752" lon="7.07874">
        <ele>543</ele>
        <time>2017-04-30T15:57:24Z</time>
      </trkpt>
      <trkpt lat="47.80754" lon="7.07888">
        <ele>543</ele>
        <time>2017-04-30T15:57:25Z</time>
      </trkpt>
      <trkpt lat="47.80756" lon="7.07918">
        <ele>542</ele>
        <time>2017-04-30T15:57:27Z</time>
      </trkpt>
      <trkpt lat="47.80759" lon="7.07931">
        <ele>543</ele>
        <time>2017-04-30T15:57:28Z</time>
      </trkpt>
      <trkpt lat="47.80767" lon="7.07946">
        <ele>541</ele>
        <time>2017-04-30T15:57:29Z</time>
      </trkpt>
      <trkpt lat="47.80774" lon="7.07963">
        <ele>539</ele>
        <time>2017-04-30T15:57:30Z</time>
      </trkpt>
      <trkpt lat="47.80784" lon="7.07976">
        <ele>537</ele>
        <time>2017-04-30T15:57:31Z</time>
      </trkpt>
      <trkpt lat="47.80788" lon="7.07989">
        <ele>538</ele>
        <time>2017-04-30T15:57:32Z</time>
      </trkpt>
      <trkpt lat="47.80794" lon="7.08007">
        <ele>533</ele>
        <time>2017-04-30T15:57:33Z</time>
      </trkpt>
      <trkpt lat="47.80793" lon="7.08025">
        <ele>532</ele>
        <time>2017-04-30T15:57:34Z</time>
      </trkpt>
      <trkpt lat="47.80784" lon="7.08041">
        <ele>530</ele>
        <time>2017-04-30T15:57:35Z</time>
      </trkpt>
      <trkpt lat="47.80782" lon="7.0806">
        <ele>529</ele>
        <time>2017-04-30T15:57:36Z</time>
      </trkpt>
      <trkpt lat="47.80784" lon="7.08077">
        <ele>525</ele>
        <time>2017-04-30T15:57:37Z</time>
      </trkpt>
      <trkpt lat="47.80783" lon="7.081">
        <ele>525</ele>
        <time>2017-04-30T15:57:38Z</time>
      </trkpt>
      <trkpt lat="47.80784" lon="7.08121">
        <ele>522</ele>
        <time>2017-04-30T15:57:39Z</time>
      </trkpt>
      <trkpt lat="47.80767" lon="7.08142">
        <ele>521</ele>
        <time>2017-04-30T15:57:42Z</time>
      </trkpt>
      <trkpt lat="47.80763" lon="7.08158">
        <ele>514</ele>
        <time>2017-04-30T15:57:44Z</time>
      </trkpt>
      <trkpt lat="47.80761" lon="7.0818">
        <ele>514</ele>
        <time>2017-04-30T15:57:46Z</time>
      </trkpt>
      <trkpt lat="47.80754" lon="7.08189">
        <ele>515</ele>
        <time>2017-04-30T15:57:48Z</time>
      </trkpt>
      <trkpt lat="47.80742" lon="7.08212">
        <ele>514</ele>
        <time>2017-04-30T15:57:50Z</time>
      </trkpt>
      <trkpt lat="47.80745" lon="7.08227">
        <ele>512</ele>
        <time>2017-04-30T15:57:52Z</time>
      </trkpt>
      <trkpt lat="47.80741" lon="7.08245">
        <ele>512</ele>
        <time>2017-04-30T15:57:54Z</time>
      </trkpt>
      <trkpt lat="47.80739" lon="7.08259">
        <ele>509</ele>
        <time>2017-04-30T15:57:56Z</time>
      </trkpt>
      <trkpt lat="47.80738" lon="7.08278">
        <ele>509</ele>
        <time>2017-04-30T15:57:59Z</time>
      </trkpt>
      <trkpt lat="47.80738" lon="7.08295">
        <ele>509</ele>
        <time>2017-04-30T15:58:02Z</time>
      </trkpt>
      <trkpt lat="47.80736" lon="7.0831">
        <ele>507</ele>
        <time>2017-04-30T15:58:04Z</time>
      </trkpt>
      <trkpt lat="47.80728" lon="7.08327">
        <ele>507</ele>
        <time>2017-04-30T15:58:06Z</time>
      </trkpt>
      <trkpt lat="47.80734" lon="7.08341">
        <ele>506</ele>
        <time>2017-04-30T15:58:08Z</time>
      </trkpt>
      <trkpt lat="47.80727" lon="7.08359">
        <ele>506</ele>
        <time>2017-04-30T15:58:11Z</time>
      </trkpt>
      <trkpt lat="47.80721" lon="7.08381">
        <ele>505</ele>
        <time>2017-04-30T15:58:13Z</time>
      </trkpt>
      <trkpt lat="47.80717" lon="7.08396">
        <ele>505</ele>
        <time>2017-04-30T15:58:15Z</time>
      </trkpt>
      <trkpt lat="47.80723" lon="7.08417">
        <ele>502</ele>
        <time>2017-04-30T15:58:18Z</time>
      </trkpt>
      <trkpt lat="47.80724" lon="7.08434">
        <ele>501</ele>
        <time>2017-04-30T15:58:20Z</time>
      </trkpt>
      <trkpt lat="47.80727" lon="7.08448">
        <ele>499</ele>
        <time>2017-04-30T15:58:22Z</time>
      </trkpt>
      <trkpt lat="47.80726" lon="7.08464">
        <ele>496</ele>
        <time>2017-04-30T15:58:24Z</time>
      </trkpt>
      <trkpt lat="47.8073" lon="7.08487">
        <ele>496</ele>
        <time>2017-04-30T15:58:27Z</time>
      </trkpt>
      <trkpt lat="47.80723" lon="7.085">
        <ele>499</ele>
        <time>2017-04-30T15:58:29Z</time>
      </trkpt>
      <trkpt lat="47.80725" lon="7.08524">
        <ele>500</ele>
        <time>2017-04-30T15:58:31Z</time>
      </trkpt>
      <trkpt lat="47.80726" lon="7.0854">
        <ele>500</ele>
        <time>2017-04-30T15:58:32Z</time>
      </trkpt>
      <trkpt lat="47.80726" lon="7.08555">
        <ele>499</ele>
        <time>2017-04-30T15:58:33Z</time>
      </trkpt>
      <trkpt lat="47.80722" lon="7.0857">
        <ele>499</ele>
        <time>2017-04-30T15:58:34Z</time>
      </trkpt>
      <trkpt lat="47.80722" lon="7.08588">
        <ele>499</ele>
        <time>2017-04-30T15:58:35Z</time>
      </trkpt>
      <trkpt lat="47.80723" lon="7.08605">
        <ele>500</ele>
        <time>2017-04-30T15:58:36Z</time>
      </trkpt>
      <trkpt lat="47.80727" lon="7.08618">
        <ele>498</ele>
        <time>2017-04-30T15:58:37Z</time>
      </trkpt>
      <trkpt lat="47.80731" lon="7.08632">
        <ele>496</ele>
        <time>2017-04-30T15:58:38Z</time>
      </trkpt>
      <trkpt lat="47.80739" lon="7.0864">
        <ele>491</ele>
        <time>2017-04-30T15:58:39Z</time>
      </trkpt>
      <trkpt lat="47.80737" lon="7.08656">
        <ele>488</ele>
        <time>2017-04-30T15:58:41Z</time>
      </trkpt>
      <trkpt lat="47.80742" lon="7.08668">
        <ele>487</ele>
        <time>2017-04-30T15:58:42Z</time>
      </trkpt>
      <trkpt lat="47.8074" lon="7.08685">
        <ele>483</ele>
        <time>2017-04-30T15:58:44Z</time>
      </trkpt>
      <trkpt lat="47.80747" lon="7.0872">
        <ele>481</ele>
        <time>2017-04-30T15:58:47Z</time>
      </trkpt>
      <trkpt lat="47.80751" lon="7.08734">
        <ele>479</ele>
        <time>2017-04-30T15:58:48Z</time>
      </trkpt>
      <trkpt lat="47.80743" lon="7.08751">
        <ele>479</ele>
        <time>2017-04-30T15:58:50Z</time>
      </trkpt>
      <trkpt lat="47.80746" lon="7.08768">
        <ele>477</ele>
        <time>2017-04-30T15:58:51Z</time>
      </trkpt>
      <trkpt lat="47.80737" lon="7.08787">
        <ele>473</ele>
        <time>2017-04-30T15:58:53Z</time>
      </trkpt>
      <trkpt lat="47.80734" lon="7.088">
        <ele>473</ele>
        <time>2017-04-30T15:58:54Z</time>
      </trkpt>
      <trkpt lat="47.80729" lon="7.08822">
        <ele>471</ele>
        <time>2017-04-30T15:58:56Z</time>
      </trkpt>
      <trkpt lat="47.80723" lon="7.08841">
        <ele>470</ele>
        <time>2017-04-30T15:58:58Z</time>
      </trkpt>
      <trkpt lat="47.8072" lon="7.08853">
        <ele>470</ele>
        <time>2017-04-30T15:58:59Z</time>
      </trkpt>
      <trkpt lat="47.80719" lon="7.08868">
        <ele>466</ele>
        <time>2017-04-30T15:59:00Z</time>
      </trkpt>
      <trkpt lat="47.80717" lon="7.08882">
        <ele>465</ele>
        <time>2017-04-30T15:59:01Z</time>
      </trkpt>
      <trkpt lat="47.80716" lon="7.08897">
        <ele>465</ele>
        <time>2017-04-30T15:59:02Z</time>
      </trkpt>
      <trkpt lat="47.80715" lon="7.08911">
        <ele>461</ele>
        <time>2017-04-30T15:59:03Z</time>
      </trkpt>
      <trkpt lat="47.80712" lon="7.08928">
        <ele>460</ele>
        <time>2017-04-30T15:59:04Z</time>
      </trkpt>
      <trkpt lat="47.80706" lon="7.08953">
        <ele>460</ele>
        <time>2017-04-30T15:59:06Z</time>
      </trkpt>
      <trkpt lat="47.807" lon="7.08977">
        <ele>458</ele>
        <time>2017-04-30T15:59:08Z</time>
      </trkpt>
      <trkpt lat="47.80696" lon="7.08989">
        <ele>458</ele>
        <time>2017-04-30T15:59:09Z</time>
      </trkpt>
      <trkpt lat="47.8069" lon="7.09001">
        <ele>459</ele>
        <time>2017-04-30T15:59:10Z</time>
      </trkpt>
      <trkpt lat="47.80685" lon="7.09013">
        <ele>459</ele>
        <time>2017-04-30T15:59:11Z</time>
      </trkpt>
      <trkpt lat="47.80681" lon="7.09025">
        <ele>458</ele>
        <time>2017-04-30T15:59:12Z</time>
      </trkpt>
      <trkpt lat="47.80673" lon="7.09046">
        <ele>454</ele>
        <time>2017-04-30T15:59:14Z</time>
      </trkpt>
      <trkpt lat="47.80667" lon="7.09063">
        <ele>451</ele>
        <time>2017-04-30T15:59:16Z</time>
      </trkpt>
      <trkpt lat="47.80655" lon="7.0909">
        <ele>449</ele>
        <time>2017-04-30T15:59:19Z</time>
      </trkpt>
      <trkpt lat="47.8065" lon="7.09101">
        <ele>448</ele>
        <time>2017-04-30T15:59:20Z</time>
      </trkpt>
      <trkpt lat="47.80644" lon="7.09115">
        <ele>448</ele>
        <time>2017-04-30T15:59:21Z</time>
      </trkpt>
      <trkpt lat="47.80636" lon="7.09138">
        <ele>443</ele>
        <time>2017-04-30T15:59:23Z</time>
      </trkpt>
      <trkpt lat="47.80628" lon="7.0916">
        <ele>444</ele>
        <time>2017-04-30T15:59:25Z</time>
      </trkpt>
      <trkpt lat="47.80621" lon="7.09173">
        <ele>444</ele>
        <time>2017-04-30T15:59:26Z</time>
      </trkpt>
      <trkpt lat="47.80615" lon="7.09185">
        <ele>444</ele>
        <time>2017-04-30T15:59:27Z</time>
      </trkpt>
      <trkpt lat="47.80606" lon="7.0921">
        <ele>445</ele>
        <time>2017-04-30T15:59:29Z</time>
      </trkpt>
      <trkpt lat="47.806" lon="7.09232">
        <ele>443</ele>
        <time>2017-04-30T15:59:31Z</time>
      </trkpt>
      <trkpt lat="47.80594" lon="7.0925">
        <ele>442</ele>
        <time>2017-04-30T15:59:33Z</time>
      </trkpt>
      <trkpt lat="47.80589" lon="7.09267">
        <ele>441</ele>
        <time>2017-04-30T15:59:35Z</time>
      </trkpt>
      <trkpt lat="47.80582" lon="7.09289">
        <ele>442</ele>
        <time>2017-04-30T15:59:37Z</time>
      </trkpt>
      <trkpt lat="47.80575" lon="7.09314">
        <ele>441</ele>
        <time>2017-04-30T15:59:39Z</time>
      </trkpt>
      <trkpt lat="47.80571" lon="7.09326">
        <ele>441</ele>
        <time>2017-04-30T15:59:40Z</time>
      </trkpt>
      <trkpt lat="47.80568" lon="7.09338">
        <ele>440</ele>
        <time>2017-04-30T15:59:41Z</time>
      </trkpt>
      <trkpt lat="47.80563" lon="7.09352">
        <ele>440</ele>
        <time>2017-04-30T15:59:42Z</time>
      </trkpt>
      <trkpt lat="47.80559" lon="7.09365">
        <ele>439</ele>
        <time>2017-04-30T15:59:43Z</time>
      </trkpt>
      <trkpt lat="47.80555" lon="7.09378">
        <ele>440</ele>
        <time>2017-04-30T15:59:44Z</time>
      </trkpt>
      <trkpt lat="47.8055" lon="7.09392">
        <ele>441</ele>
        <time>2017-04-30T15:59:45Z</time>
      </trkpt>
      <trkpt lat="47.80544" lon="7.09404">
        <ele>440</ele>
        <time>2017-04-30T15:59:46Z</time>
      </trkpt>
      <trkpt lat="47.80541" lon="7.09417">
        <ele>439</ele>
        <time>2017-04-30T15:59:47Z</time>
      </trkpt>
      <trkpt lat="47.80534" lon="7.09441">
        <ele>436</ele>
        <time>2017-04-30T15:59:49Z</time>
      </trkpt>
      <trkpt lat="47.80526" lon="7.09467">
        <ele>434</ele>
        <time>2017-04-30T15:59:51Z</time>
      </trkpt>
      <trkpt lat="47.80516" lon="7.09488">
        <ele>435</ele>
        <time>2017-04-30T15:59:53Z</time>
      </trkpt>
      <trkpt lat="47.80511" lon="7.09507">
        <ele>436</ele>
        <time>2017-04-30T15:59:55Z</time>
      </trkpt>
      <trkpt lat="47.80506" lon="7.09521">
        <ele>435</ele>
        <time>2017-04-30T15:59:58Z</time>
      </trkpt>
      <trkpt lat="47.805" lon="7.09535">
        <ele>432</ele>
        <time>2017-04-30T16:00:02Z</time>
      </trkpt>
      <trkpt lat="47.80499" lon="7.09552">
        <ele>431</ele>
        <time>2017-04-30T16:00:04Z</time>
      </trkpt>
      <trkpt lat="47.80499" lon="7.0957">
        <ele>426</ele>
        <time>2017-04-30T16:00:06Z</time>
      </trkpt>
      <trkpt lat="47.80498" lon="7.09597">
        <ele>425</ele>
        <time>2017-04-30T16:00:08Z</time>
      </trkpt>
      <trkpt lat="47.80499" lon="7.09612">
        <ele>427</ele>
        <time>2017-04-30T16:00:09Z</time>
      </trkpt>
      <trkpt lat="47.80499" lon="7.09626">
        <ele>427</ele>
        <time>2017-04-30T16:00:10Z</time>
      </trkpt>
      <trkpt lat="47.80496" lon="7.09642">
        <ele>427</ele>
        <time>2017-04-30T16:00:11Z</time>
      </trkpt>
      <trkpt lat="47.80498" lon="7.09658">
        <ele>426</ele>
        <time>2017-04-30T16:00:12Z</time>
      </trkpt>
      <trkpt lat="47.80497" lon="7.09674">
        <ele>426</ele>
        <time>2017-04-30T16:00:13Z</time>
      </trkpt>
      <trkpt lat="47.80496" lon="7.09688">
        <ele>427</ele>
        <time>2017-04-30T16:00:14Z</time>
      </trkpt>
      <trkpt lat="47.80499" lon="7.09701">
        <ele>428</ele>
        <time>2017-04-30T16:00:15Z</time>
      </trkpt>
      <trkpt lat="47.80501" lon="7.09721">
        <ele>427</ele>
        <time>2017-04-30T16:00:16Z</time>
      </trkpt>
      <trkpt lat="47.80504" lon="7.0974">
        <ele>427</ele>
        <time>2017-04-30T16:00:17Z</time>
      </trkpt>
      <trkpt lat="47.80506" lon="7.09756">
        <ele>426</ele>
        <time>2017-04-30T16:00:18Z</time>
      </trkpt>
      <trkpt lat="47.80509" lon="7.09773">
        <ele>426</ele>
        <time>2017-04-30T16:00:19Z</time>
      </trkpt>
      <trkpt lat="47.80513" lon="7.09791">
        <ele>425</ele>
        <time>2017-04-30T16:00:20Z</time>
      </trkpt>
      <trkpt lat="47.80512" lon="7.09807">
        <ele>424</ele>
        <time>2017-04-30T16:00:21Z</time>
      </trkpt>
      <trkpt lat="47.80514" lon="7.09821">
        <ele>425</ele>
        <time>2017-04-30T16:00:22Z</time>
      </trkpt>
      <trkpt lat="47.80516" lon="7.09838">
        <ele>426</ele>
        <time>2017-04-30T16:00:23Z</time>
      </trkpt>
      <trkpt lat="47.80518" lon="7.09853">
        <ele>425</ele>
        <time>2017-04-30T16:00:24Z</time>
      </trkpt>
      <trkpt lat="47.8052" lon="7.0988">
        <ele>427</ele>
        <time>2017-04-30T16:00:26Z</time>
      </trkpt>
      <trkpt lat="47.8052" lon="7.09907">
        <ele>429</ele>
        <time>2017-04-30T16:00:28Z</time>
      </trkpt>
      <trkpt lat="47.8052" lon="7.09922">
        <ele>428</ele>
        <time>2017-04-30T16:00:29Z</time>
      </trkpt>
      <trkpt lat="47.80519" lon="7.09936">
        <ele>428</ele>
        <time>2017-04-30T16:00:30Z</time>
      </trkpt>
      <trkpt lat="47.80518" lon="7.09951">
        <ele>425</ele>
        <time>2017-04-30T16:00:31Z</time>
      </trkpt>
      <trkpt lat="47.80516" lon="7.09965">
        <ele>425</ele>
        <time>2017-04-30T16:00:32Z</time>
      </trkpt>
      <trkpt lat="47.8051" lon="7.09977">
        <ele>426</ele>
        <time>2017-04-30T16:00:33Z</time>
      </trkpt>
      <trkpt lat="47.80509" lon="7.09992">
        <ele>425</ele>
        <time>2017-04-30T16:00:34Z</time>
      </trkpt>
      <trkpt lat="47.80505" lon="7.10005">
        <ele>425</ele>
        <time>2017-04-30T16:00:35Z</time>
      </trkpt>
      <trkpt lat="47.80498" lon="7.10029">
        <ele>427</ele>
        <time>2017-04-30T16:00:37Z</time>
      </trkpt>
      <trkpt lat="47.80504" lon="7.10048">
        <ele>425</ele>
        <time>2017-04-30T16:00:38Z</time>
      </trkpt>
      <trkpt lat="47.80503" lon="7.10064">
        <ele>424</ele>
        <time>2017-04-30T16:00:39Z</time>
      </trkpt>
      <trkpt lat="47.80507" lon="7.10077">
        <ele>424</ele>
        <time>2017-04-30T16:00:40Z</time>
      </trkpt>
      <trkpt lat="47.80507" lon="7.10099">
        <ele>422</ele>
        <time>2017-04-30T16:00:42Z</time>
      </trkpt>
      <trkpt lat="47.8051" lon="7.10118">
        <ele>424</ele>
        <time>2017-04-30T16:00:44Z</time>
      </trkpt>
      <trkpt lat="47.80512" lon="7.10138">
        <ele>423</ele>
        <time>2017-04-30T16:00:46Z</time>
      </trkpt>
      <trkpt lat="47.80505" lon="7.10155">
        <ele>422</ele>
        <time>2017-04-30T16:00:48Z</time>
      </trkpt>
      <trkpt lat="47.80494" lon="7.10173">
        <ele>422</ele>
        <time>2017-04-30T16:00:50Z</time>
      </trkpt>
      <trkpt lat="47.80485" lon="7.10178">
        <ele>421</ele>
        <time>2017-04-30T16:00:51Z</time>
      </trkpt>
      <trkpt lat="47.80473" lon="7.1018">
        <ele>421</ele>
        <time>2017-04-30T16:00:52Z</time>
      </trkpt>
      <trkpt lat="47.80465" lon="7.10185">
        <ele>421</ele>
        <time>2017-04-30T16:00:53Z</time>
      </trkpt>
      <trkpt lat="47.80455" lon="7.10205">
        <ele>420</ele>
        <time>2017-04-30T16:00:55Z</time>
      </trkpt>
      <trkpt lat="47.80446" lon="7.10211">
        <ele>420</ele>
        <time>2017-04-30T16:00:56Z</time>
      </trkpt>
      <trkpt lat="47.80437" lon="7.10215">
        <ele>420</ele>
        <time>2017-04-30T16:00:57Z</time>
      </trkpt>
      <trkpt lat="47.80418" lon="7.10222">
        <ele>418</ele>
        <time>2017-04-30T16:00:59Z</time>
      </trkpt>
      <trkpt lat="47.80405" lon="7.1022">
        <ele>419</ele>
        <time>2017-04-30T16:01:00Z</time>
      </trkpt>
      <trkpt lat="47.80392" lon="7.10222">
        <ele>419</ele>
        <time>2017-04-30T16:01:01Z</time>
      </trkpt>
      <trkpt lat="47.80379" lon="7.10226">
        <ele>419</ele>
        <time>2017-04-30T16:01:02Z</time>
      </trkpt>
      <trkpt lat="47.80375" lon="7.10241">
        <ele>418</ele>
        <time>2017-04-30T16:01:03Z</time>
      </trkpt>
      <trkpt lat="47.80363" lon="7.10242">
        <ele>417</ele>
        <time>2017-04-30T16:01:04Z</time>
      </trkpt>
      <trkpt lat="47.80347" lon="7.10255">
        <ele>414</ele>
        <time>2017-04-30T16:01:06Z</time>
      </trkpt>
      <trkpt lat="47.80336" lon="7.10258">
        <ele>417</ele>
        <time>2017-04-30T16:01:07Z</time>
      </trkpt>
      <trkpt lat="47.80328" lon="7.10262">
        <ele>419</ele>
        <time>2017-04-30T16:01:08Z</time>
      </trkpt>
      <trkpt lat="47.80317" lon="7.1027">
        <ele>418</ele>
        <time>2017-04-30T16:01:09Z</time>
      </trkpt>
      <trkpt lat="47.80306" lon="7.10279">
        <ele>420</ele>
        <time>2017-04-30T16:01:10Z</time>
      </trkpt>
      <trkpt lat="47.80296" lon="7.10286">
        <ele>419</ele>
        <time>2017-04-30T16:01:11Z</time>
      </trkpt>
      <trkpt lat="47.80286" lon="7.10295">
        <ele>419</ele>
        <time>2017-04-30T16:01:12Z</time>
      </trkpt>
      <trkpt lat="47.80276" lon="7.10304">
        <ele>418</ele>
        <time>2017-04-30T16:01:13Z</time>
      </trkpt>
      <trkpt lat="47.80266" lon="7.10317">
        <ele>417</ele>
        <time>2017-04-30T16:01:14Z</time>
      </trkpt>
      <trkpt lat="47.80258" lon="7.10327">
        <ele>417</ele>
        <time>2017-04-30T16:01:15Z</time>
      </trkpt>
      <trkpt lat="47.80249" lon="7.10337">
        <ele>417</ele>
        <time>2017-04-30T16:01:16Z</time>
      </trkpt>
      <trkpt lat="47.80241" lon="7.10347">
        <ele>417</ele>
        <time>2017-04-30T16:01:17Z</time>
      </trkpt>
      <trkpt lat="47.80233" lon="7.10358">
        <ele>417</ele>
        <time>2017-04-30T16:01:18Z</time>
      </trkpt>
      <trkpt lat="47.80225" lon="7.10367">
        <ele>416</ele>
        <time>2017-04-30T16:01:19Z</time>
      </trkpt>
      <trkpt lat="47.80217" lon="7.10376">
        <ele>414</ele>
        <time>2017-04-30T16:01:20Z</time>
      </trkpt>
      <trkpt lat="47.80209" lon="7.10387">
        <ele>413</ele>
        <time>2017-04-30T16:01:21Z</time>
      </trkpt>
      <trkpt lat="47.80196" lon="7.10403">
        <ele>411</ele>
        <time>2017-04-30T16:01:23Z</time>
      </trkpt>
      <trkpt lat="47.80187" lon="7.10418">
        <ele>408</ele>
        <time>2017-04-30T16:01:25Z</time>
      </trkpt>
      <trkpt lat="47.80178" lon="7.10432">
        <ele>407</ele>
        <time>2017-04-30T16:01:27Z</time>
      </trkpt>
      <trkpt lat="47.8017" lon="7.10445">
        <ele>409</ele>
        <time>2017-04-30T16:01:29Z</time>
      </trkpt>
      <trkpt lat="47.80146" lon="7.10479">
        <ele>400</ele>
        <time>2017-04-30T16:02:11Z</time>
      </trkpt>
      <trkpt lat="47.80139" lon="7.10487">
        <ele>397</ele>
        <time>2017-04-30T16:02:12Z</time>
      </trkpt>
      <trkpt lat="47.80128" lon="7.10501">
        <ele>400</ele>
        <time>2017-04-30T16:02:14Z</time>
      </trkpt>
      <trkpt lat="47.80117" lon="7.10514">
        <ele>402</ele>
        <time>2017-04-30T16:02:16Z</time>
      </trkpt>
      <trkpt lat="47.80106" lon="7.10529">
        <ele>403</ele>
        <time>2017-04-30T16:02:18Z</time>
      </trkpt>
      <trkpt lat="47.80085" lon="7.10551">
        <ele>404</ele>
        <time>2017-04-30T16:02:21Z</time>
      </trkpt>
      <trkpt lat="47.80078" lon="7.10561">
        <ele>403</ele>
        <time>2017-04-30T16:02:22Z</time>
      </trkpt>
      <trkpt lat="47.8007" lon="7.10571">
        <ele>403</ele>
        <time>2017-04-30T16:02:23Z</time>
      </trkpt>
      <trkpt lat="47.80064" lon="7.10581">
        <ele>403</ele>
        <time>2017-04-30T16:02:24Z</time>
      </trkpt>
      <trkpt lat="47.80056" lon="7.10591">
        <ele>405</ele>
        <time>2017-04-30T16:02:25Z</time>
      </trkpt>
      <trkpt lat="47.80042" lon="7.10607">
        <ele>407</ele>
        <time>2017-04-30T16:02:27Z</time>
      </trkpt>
      <trkpt lat="47.80034" lon="7.10614">
        <ele>406</ele>
        <time>2017-04-30T16:02:28Z</time>
      </trkpt>
      <trkpt lat="47.80028" lon="7.10624">
        <ele>405</ele>
        <time>2017-04-30T16:02:29Z</time>
      </trkpt>
      <trkpt lat="47.80021" lon="7.10635">
        <ele>407</ele>
        <time>2017-04-30T16:02:30Z</time>
      </trkpt>
      <trkpt lat="47.80014" lon="7.10644">
        <ele>407</ele>
        <time>2017-04-30T16:02:31Z</time>
      </trkpt>
      <trkpt lat="47.80006" lon="7.10651">
        <ele>406</ele>
        <time>2017-04-30T16:02:32Z</time>
      </trkpt>
      <trkpt lat="47.79999" lon="7.1066">
        <ele>404</ele>
        <time>2017-04-30T16:02:33Z</time>
      </trkpt>
      <trkpt lat="47.79993" lon="7.10672">
        <ele>404</ele>
        <time>2017-04-30T16:02:34Z</time>
      </trkpt>
      <trkpt lat="47.79984" lon="7.10682">
        <ele>404</ele>
        <time>2017-04-30T16:02:35Z</time>
      </trkpt>
      <trkpt lat="47.79978" lon="7.10695">
        <ele>405</ele>
        <time>2017-04-30T16:02:36Z</time>
      </trkpt>
      <trkpt lat="47.79971" lon="7.10707">
        <ele>405</ele>
        <time>2017-04-30T16:02:37Z</time>
      </trkpt>
      <trkpt lat="47.79965" lon="7.10719">
        <ele>402</ele>
        <time>2017-04-30T16:02:38Z</time>
      </trkpt>
      <trkpt lat="47.79956" lon="7.1073">
        <ele>405</ele>
        <time>2017-04-30T16:02:39Z</time>
      </trkpt>
      <trkpt lat="47.79949" lon="7.10741">
        <ele>405</ele>
        <time>2017-04-30T16:02:40Z</time>
      </trkpt>
      <trkpt lat="47.79943" lon="7.10754">
        <ele>404</ele>
        <time>2017-04-30T16:02:41Z</time>
      </trkpt>
      <trkpt lat="47.79936" lon="7.10768">
        <ele>406</ele>
        <time>2017-04-30T16:02:42Z</time>
      </trkpt>
      <trkpt lat="47.79927" lon="7.10778">
        <ele>406</ele>
        <time>2017-04-30T16:02:43Z</time>
      </trkpt>
      <trkpt lat="47.7992" lon="7.10789">
        <ele>405</ele>
        <time>2017-04-30T16:02:44Z</time>
      </trkpt>
      <trkpt lat="47.79913" lon="7.10802">
        <ele>406</ele>
        <time>2017-04-30T16:02:45Z</time>
      </trkpt>
      <trkpt lat="47.79905" lon="7.10813">
        <ele>407</ele>
        <time>2017-04-30T16:02:46Z</time>
      </trkpt>
      <trkpt lat="47.79898" lon="7.10824">
        <ele>407</ele>
        <time>2017-04-30T16:02:47Z</time>
      </trkpt>
      <trkpt lat="47.7989" lon="7.10835">
        <ele>407</ele>
        <time>2017-04-30T16:02:48Z</time>
      </trkpt>
      <trkpt lat="47.79882" lon="7.10847">
        <ele>407</ele>
        <time>2017-04-30T16:02:49Z</time>
      </trkpt>
      <trkpt lat="47.79875" lon="7.10859">
        <ele>408</ele>
        <time>2017-04-30T16:02:50Z</time>
      </trkpt>
      <trkpt lat="47.79867" lon="7.10871">
        <ele>407</ele>
        <time>2017-04-30T16:02:51Z</time>
      </trkpt>
      <trkpt lat="47.79859" lon="7.10882">
        <ele>407</ele>
        <time>2017-04-30T16:02:52Z</time>
      </trkpt>
      <trkpt lat="47.7985" lon="7.10894">
        <ele>409</ele>
        <time>2017-04-30T16:02:53Z</time>
      </trkpt>
      <trkpt lat="47.79844" lon="7.10904">
        <ele>409</ele>
        <time>2017-04-30T16:02:54Z</time>
      </trkpt>
      <trkpt lat="47.79833" lon="7.10918">
        <ele>409</ele>
        <time>2017-04-30T16:02:56Z</time>
      </trkpt>
      <trkpt lat="47.79828" lon="7.10932">
        <ele>407</ele>
        <time>2017-04-30T16:02:58Z</time>
      </trkpt>
      <trkpt lat="47.79823" lon="7.10947">
        <ele>408</ele>
        <time>2017-04-30T16:03:00Z</time>
      </trkpt>
      <trkpt lat="47.79832" lon="7.10958">
        <ele>412</ele>
        <time>2017-04-30T16:03:02Z</time>
      </trkpt>
      <trkpt lat="47.79838" lon="7.10973">
        <ele>411</ele>
        <time>2017-04-30T16:03:04Z</time>
      </trkpt>
      <trkpt lat="47.79845" lon="7.10988">
        <ele>410</ele>
        <time>2017-04-30T16:03:06Z</time>
      </trkpt>
      <trkpt lat="47.79852" lon="7.11005">
        <ele>413</ele>
        <time>2017-04-30T16:03:09Z</time>
      </trkpt>
      <trkpt lat="47.79859" lon="7.11015">
        <ele>412</ele>
        <time>2017-04-30T16:03:11Z</time>
      </trkpt>
      <trkpt lat="47.79865" lon="7.11026">
        <ele>410</ele>
        <time>2017-04-30T16:03:13Z</time>
      </trkpt>
      <trkpt lat="47.79873" lon="7.1104">
        <ele>410</ele>
        <time>2017-04-30T16:03:14Z</time>
      </trkpt>
      <trkpt lat="47.79884" lon="7.11057">
        <ele>410</ele>
        <time>2017-04-30T16:03:16Z</time>
      </trkpt>
      <trkpt lat="47.79902" lon="7.11087">
        <ele>407</ele>
        <time>2017-04-30T16:03:19Z</time>
      </trkpt>
      <trkpt lat="47.79915" lon="7.11114">
        <ele>405</ele>
        <time>2017-04-30T16:03:21Z</time>
      </trkpt>
      <trkpt lat="47.79921" lon="7.11129">
        <ele>407</ele>
        <time>2017-04-30T16:03:23Z</time>
      </trkpt>
      <trkpt lat="47.7993" lon="7.11142">
        <ele>404</ele>
        <time>2017-04-30T16:03:24Z</time>
      </trkpt>
      <trkpt lat="47.7994" lon="7.1116">
        <ele>403</ele>
        <time>2017-04-30T16:03:26Z</time>
      </trkpt>
      <trkpt lat="47.79947" lon="7.11178">
        <ele>403</ele>
        <time>2017-04-30T16:03:28Z</time>
      </trkpt>
      <trkpt lat="47.79954" lon="7.11191">
        <ele>403</ele>
        <time>2017-04-30T16:03:29Z</time>
      </trkpt>
      <trkpt lat="47.79958" lon="7.11202">
        <ele>402</ele>
        <time>2017-04-30T16:03:30Z</time>
      </trkpt>
      <trkpt lat="47.79964" lon="7.11214">
        <ele>400</ele>
        <time>2017-04-30T16:03:32Z</time>
      </trkpt>
      <trkpt lat="47.79969" lon="7.11234">
        <ele>401</ele>
        <time>2017-04-30T16:03:34Z</time>
      </trkpt>
      <trkpt lat="47.79977" lon="7.11246">
        <ele>400</ele>
        <time>2017-04-30T16:03:36Z</time>
      </trkpt>
      <trkpt lat="47.79985" lon="7.11261">
        <ele>400</ele>
        <time>2017-04-30T16:03:38Z</time>
      </trkpt>
      <trkpt lat="47.7999" lon="7.11274">
        <ele>401</ele>
        <time>2017-04-30T16:03:40Z</time>
      </trkpt>
      <trkpt lat="47.79995" lon="7.11288">
        <ele>401</ele>
        <time>2017-04-30T16:03:43Z</time>
      </trkpt>
      <trkpt lat="47.80004" lon="7.11307">
        <ele>401</ele>
        <time>2017-04-30T16:03:46Z</time>
      </trkpt>
      <trkpt lat="47.80011" lon="7.11321">
        <ele>401</ele>
        <time>2017-04-30T16:03:48Z</time>
      </trkpt>
      <trkpt lat="47.80015" lon="7.11334">
        <ele>401</ele>
        <time>2017-04-30T16:03:49Z</time>
      </trkpt>
      <trkpt lat="47.80017" lon="7.11352">
        <ele>401</ele>
        <time>2017-04-30T16:03:51Z</time>
      </trkpt>
      <trkpt lat="47.80024" lon="7.11373">
        <ele>401</ele>
        <time>2017-04-30T16:03:53Z</time>
      </trkpt>
      <trkpt lat="47.80028" lon="7.11392">
        <ele>400</ele>
        <time>2017-04-30T16:03:55Z</time>
      </trkpt>
      <trkpt lat="47.80034" lon="7.11411">
        <ele>399</ele>
        <time>2017-04-30T16:03:57Z</time>
      </trkpt>
      <trkpt lat="47.80039" lon="7.11429">
        <ele>399</ele>
        <time>2017-04-30T16:03:59Z</time>
      </trkpt>
      <trkpt lat="47.80043" lon="7.11453">
        <ele>399</ele>
        <time>2017-04-30T16:04:01Z</time>
      </trkpt>
      <trkpt lat="47.80048" lon="7.11467">
        <ele>400</ele>
        <time>2017-04-30T16:04:02Z</time>
      </trkpt>
      <trkpt lat="47.80055" lon="7.11482">
        <ele>400</ele>
        <time>2017-04-30T16:04:03Z</time>
      </trkpt>
      <trkpt lat="47.80062" lon="7.11498">
        <ele>401</ele>
        <time>2017-04-30T16:04:04Z</time>
      </trkpt>
      <trkpt lat="47.80069" lon="7.11514">
        <ele>401</ele>
        <time>2017-04-30T16:04:05Z</time>
      </trkpt>
      <trkpt lat="47.80074" lon="7.11532">
        <ele>399</ele>
        <time>2017-04-30T16:04:06Z</time>
      </trkpt>
      <trkpt lat="47.80082" lon="7.11545">
        <ele>399</ele>
        <time>2017-04-30T16:04:07Z</time>
      </trkpt>
      <trkpt lat="47.80085" lon="7.11561">
        <ele>399</ele>
        <time>2017-04-30T16:04:08Z</time>
      </trkpt>
      <trkpt lat="47.80089" lon="7.11577">
        <ele>398</ele>
        <time>2017-04-30T16:04:09Z</time>
      </trkpt>
      <trkpt lat="47.80094" lon="7.11592">
        <ele>397</ele>
        <time>2017-04-30T16:04:10Z</time>
      </trkpt>
      <trkpt lat="47.80099" lon="7.11611">
        <ele>398</ele>
        <time>2017-04-30T16:04:12Z</time>
      </trkpt>
      <trkpt lat="47.80106" lon="7.1162">
        <ele>399</ele>
        <time>2017-04-30T16:04:13Z</time>
      </trkpt>
      <trkpt lat="47.8011" lon="7.11648">
        <ele>399</ele>
        <time>2017-04-30T16:04:15Z</time>
      </trkpt>
      <trkpt lat="47.80114" lon="7.11664">
        <ele>398</ele>
        <time>2017-04-30T16:04:16Z</time>
      </trkpt>
      <trkpt lat="47.80117" lon="7.11681">
        <ele>397</ele>
        <time>2017-04-30T16:04:18Z</time>
      </trkpt>
      <trkpt lat="47.80111" lon="7.11699">
        <ele>395</ele>
        <time>2017-04-30T16:04:20Z</time>
      </trkpt>
      <trkpt lat="47.80105" lon="7.11722">
        <ele>393</ele>
        <time>2017-04-30T16:04:22Z</time>
      </trkpt>
      <trkpt lat="47.80098" lon="7.11743">
        <ele>393</ele>
        <time>2017-04-30T16:04:24Z</time>
      </trkpt>
      <trkpt lat="47.8009" lon="7.11752">
        <ele>394</ele>
        <time>2017-04-30T16:04:25Z</time>
      </trkpt>
      <trkpt lat="47.8008" lon="7.1176">
        <ele>394</ele>
        <time>2017-04-30T16:04:26Z</time>
      </trkpt>
      <trkpt lat="47.8007" lon="7.11769">
        <ele>392</ele>
        <time>2017-04-30T16:04:27Z</time>
      </trkpt>
      <trkpt lat="47.80056" lon="7.1178">
        <ele>393</ele>
        <time>2017-04-30T16:04:29Z</time>
      </trkpt>
      <trkpt lat="47.80046" lon="7.11795">
        <ele>391</ele>
        <time>2017-04-30T16:04:31Z</time>
      </trkpt>
      <trkpt lat="47.80033" lon="7.11809">
        <ele>393</ele>
        <time>2017-04-30T16:04:33Z</time>
      </trkpt>
      <trkpt lat="47.80021" lon="7.11825">
        <ele>393</ele>
        <time>2017-04-30T16:04:35Z</time>
      </trkpt>
      <trkpt lat="47.80005" lon="7.11838">
        <ele>393</ele>
        <time>2017-04-30T16:04:37Z</time>
      </trkpt>
      <trkpt lat="47.79996" lon="7.11844">
        <ele>393</ele>
        <time>2017-04-30T16:04:38Z</time>
      </trkpt>
      <trkpt lat="47.79987" lon="7.11853">
        <ele>393</ele>
        <time>2017-04-30T16:04:39Z</time>
      </trkpt>
      <trkpt lat="47.79979" lon="7.11861">
        <ele>392</ele>
        <time>2017-04-30T16:04:40Z</time>
      </trkpt>
      <trkpt lat="47.7997" lon="7.11868">
        <ele>392</ele>
        <time>2017-04-30T16:04:41Z</time>
      </trkpt>
      <trkpt lat="47.7996" lon="7.11876">
        <ele>392</ele>
        <time>2017-04-30T16:04:42Z</time>
      </trkpt>
      <trkpt lat="47.79944" lon="7.11891">
        <ele>392</ele>
        <time>2017-04-30T16:04:44Z</time>
      </trkpt>
      <trkpt lat="47.79934" lon="7.11901">
        <ele>393</ele>
        <time>2017-04-30T16:04:45Z</time>
      </trkpt>
      <trkpt lat="47.79925" lon="7.11909">
        <ele>393</ele>
        <time>2017-04-30T16:04:46Z</time>
      </trkpt>
      <trkpt lat="47.79916" lon="7.11918">
        <ele>394</ele>
        <time>2017-04-30T16:04:47Z</time>
      </trkpt>
      <trkpt lat="47.79908" lon="7.11928">
        <ele>393</ele>
        <time>2017-04-30T16:04:48Z</time>
      </trkpt>
      <trkpt lat="47.79902" lon="7.11937">
        <ele>393</ele>
        <time>2017-04-30T16:04:49Z</time>
      </trkpt>
      <trkpt lat="47.79892" lon="7.11945">
        <ele>395</ele>
        <time>2017-04-30T16:04:50Z</time>
      </trkpt>
      <trkpt lat="47.79884" lon="7.11953">
        <ele>396</ele>
        <time>2017-04-30T16:04:51Z</time>
      </trkpt>
      <trkpt lat="47.79876" lon="7.11961">
        <ele>396</ele>
        <time>2017-04-30T16:04:52Z</time>
      </trkpt>
      <trkpt lat="47.7986" lon="7.1197">
        <ele>395</ele>
        <time>2017-04-30T16:04:54Z</time>
      </trkpt>
      <trkpt lat="47.79852" lon="7.11975">
        <ele>393</ele>
        <time>2017-04-30T16:04:55Z</time>
      </trkpt>
      <trkpt lat="47.79841" lon="7.1199">
        <ele>392</ele>
        <time>2017-04-30T16:04:57Z</time>
      </trkpt>
      <trkpt lat="47.79828" lon="7.12">
        <ele>391</ele>
        <time>2017-04-30T16:04:59Z</time>
      </trkpt>
      <trkpt lat="47.79817" lon="7.1201">
        <ele>387</ele>
        <time>2017-04-30T16:05:01Z</time>
      </trkpt>
      <trkpt lat="47.79805" lon="7.12019">
        <ele>387</ele>
        <time>2017-04-30T16:05:03Z</time>
      </trkpt>
      <trkpt lat="47.79796" lon="7.12029">
        <ele>387</ele>
        <time>2017-04-30T16:05:04Z</time>
      </trkpt>
      <trkpt lat="47.79788" lon="7.12036">
        <ele>389</ele>
        <time>2017-04-30T16:05:05Z</time>
      </trkpt>
      <trkpt lat="47.79781" lon="7.12047">
        <ele>389</ele>
        <time>2017-04-30T16:05:06Z</time>
      </trkpt>
      <trkpt lat="47.79773" lon="7.12054">
        <ele>391</ele>
        <time>2017-04-30T16:05:07Z</time>
      </trkpt>
      <trkpt lat="47.79764" lon="7.12064">
        <ele>392</ele>
        <time>2017-04-30T16:05:08Z</time>
      </trkpt>
      <trkpt lat="47.79756" lon="7.12072">
        <ele>390</ele>
        <time>2017-04-30T16:05:09Z</time>
      </trkpt>
      <trkpt lat="47.79739" lon="7.12082">
        <ele>390</ele>
        <time>2017-04-30T16:05:11Z</time>
      </trkpt>
      <trkpt lat="47.79729" lon="7.12089">
        <ele>390</ele>
        <time>2017-04-30T16:05:12Z</time>
      </trkpt>
      <trkpt lat="47.79721" lon="7.12097">
        <ele>388</ele>
        <time>2017-04-30T16:05:13Z</time>
      </trkpt>
      <trkpt lat="47.79714" lon="7.12107">
        <ele>388</ele>
        <time>2017-04-30T16:05:14Z</time>
      </trkpt>
      <trkpt lat="47.79699" lon="7.1212">
        <ele>388</ele>
        <time>2017-04-30T16:05:16Z</time>
      </trkpt>
      <trkpt lat="47.7969" lon="7.12133">
        <ele>387</ele>
        <time>2017-04-30T16:05:18Z</time>
      </trkpt>
      <trkpt lat="47.79682" lon="7.12141">
        <ele>387</ele>
        <time>2017-04-30T16:05:20Z</time>
      </trkpt>
      <trkpt lat="47.79681" lon="7.12156">
        <ele>383</ele>
        <time>2017-04-30T16:05:22Z</time>
      </trkpt>
      <trkpt lat="47.79682" lon="7.12171">
        <ele>384</ele>
        <time>2017-04-30T16:05:24Z</time>
      </trkpt>
      <trkpt lat="47.79694" lon="7.1219">
        <ele>385</ele>
        <time>2017-04-30T16:05:26Z</time>
      </trkpt>
      <trkpt lat="47.79704" lon="7.12212">
        <ele>385</ele>
        <time>2017-04-30T16:05:28Z</time>
      </trkpt>
      <trkpt lat="47.79712" lon="7.1223">
        <ele>382</ele>
        <time>2017-04-30T16:05:30Z</time>
      </trkpt>
      <trkpt lat="47.79722" lon="7.12253">
        <ele>384</ele>
        <time>2017-04-30T16:05:32Z</time>
      </trkpt>
      <trkpt lat="47.79729" lon="7.12275">
        <ele>384</ele>
        <time>2017-04-30T16:05:34Z</time>
      </trkpt>
      <trkpt lat="47.79735" lon="7.12286">
        <ele>385</ele>
        <time>2017-04-30T16:05:35Z</time>
      </trkpt>
      <trkpt lat="47.79744" lon="7.12304">
        <ele>385</ele>
        <time>2017-04-30T16:05:37Z</time>
      </trkpt>
      <trkpt lat="47.79752" lon="7.12312">
        <ele>384</ele>
        <time>2017-04-30T16:05:39Z</time>
      </trkpt>
      <trkpt lat="47.79759" lon="7.12323">
        <ele>384</ele>
        <time>2017-04-30T16:05:41Z</time>
      </trkpt>
      <trkpt lat="47.79767" lon="7.12331">
        <ele>383</ele>
        <time>2017-04-30T16:05:43Z</time>
      </trkpt>
      <trkpt lat="47.79775" lon="7.12339">
        <ele>382</ele>
        <time>2017-04-30T16:05:46Z</time>
      </trkpt>
      <trkpt lat="47.79775" lon="7.12345">
        <ele>383</ele>
        <time>2017-04-30T16:05:57Z</time>
      </trkpt>
      <trkpt lat="47.79775" lon="7.12345">
        <ele>383</ele>
        <time>2017-04-30T16:05:57Z</time>
      </trkpt>
    </trkseg>
  </trk>
</gpx>